[[{"header":{"parameterUnit":"m.s-1","parameterCategory":1,"la1":30.6,"la2":29.2853,"lo1":-89.7004,"lo2":-87.6739,"dy":0.0162,"dx":0.0183,"nx":112,"ny":82,"refTime":"2023-04-04T06:00:00:Z","depth":0,"parameterNumber":2,"parameterNumberName":"U-component_of_WINDS"},"data":[0.0,0.0,0.0,0.0,0.0,0.0,0.0,0.0,0.0,0.0,0.0,0.0,0.0,0.0,0.0,0.0,0.0,0.0,0.0,0.0,0.0,0.0,0.0,0.0,0.0,0.0,0.0,0.0,0.0,0.0,0.0,0.0,0.0,0.0,0.0,0.0,0.0,0.0,0.0,0.0,0.0,0.0,0.0,0.0,0.0,0.0,0.0,0.0,0.0,0.0,0.0,0.0,0.0,0.0,0.0,0.0,0.0,0.0,0.0,0.0,0.0,0.0,0.0,0.0,0.0,0.0,0.0,0.0,0.0,0.0,0.0,0.0,0.0,0.0,0.0,0.0,0.0,0.0,0.0,0.0,0.0,0.0,0.0,0.0,0.0,0.0,0.0,0.0,0.0,0.0,-6.5888,-6.7357,-7.0309,-7.2681,-7.3853,-7.4285,-7.384,-7.2282,0.0,0.0,0.0,0.0,0.0,0.0,0.0,0.0,0.0,0.0,0.0,0.0,0.0,0.0,0.0,0.0,0.0,0.0,0.0,0.0,0.0,0.0,0.0,0.0,0.0,0.0,0.0,0.0,0.0,0.0,0.0,0.0,0.0,0.0,0.0,0.0,0.0,0.0,0.0,0.0,0.0,0.0,0.0,0.0,0.0,0.0,0.0,0.0,0.0,0.0,0.0,0.0,0.0,0.0,0.0,0.0,0.0,0.0,0.0,0.0,0.0,0.0,0.0,0.0,0.0,0.0,0.0,0.0,0.0,0.0,0.0,0.0,0.0,0.0,0.0,0.0,0.0,0.0,0.0,0.0,0.0,0.0,0.0,0.0,0.0,0.0,0.0,0.0,0.0,0.0,0.0,0.0,0.0,0.0,0.0,0.0,0.0,0.0,0.0,0.0,0.0,0.0,0.0,0.0,-6.5668,-6.6586,-6.9899,-7.2162,-7.2496,-7.2327,-7.1803,-7.0846,0.0,0.0,0.0,0.0,0.0,0.0,0.0,0.0,0.0,0.0,0.0,0.0,0.0,0.0,0.0,0.0,0.0,0.0,0.0,0.0,0.0,0.0,0.0,0.0,0.0,0.0,0.0,0.0,0.0,0.0,0.0,0.0,0.0,0.0,0.0,0.0,0.0,0.0,0.0,0.0,0.0,0.0,0.0,0.0,0.0,0.0,0.0,0.0,0.0,0.0,0.0,0.0,0.0,0.0,0.0,0.0,0.0,0.0,0.0,0.0,0.0,0.0,0.0,0.0,0.0,0.0,0.0,0.0,0.0,0.0,0.0,0.0,0.0,0.0,0.0,0.0,0.0,0.0,0.0,0.0,0.0,0.0,0.0,0.0,0.0,0.0,0.0,0.0,0.0,0.0,0.0,0.0,0.0,0.0,0.0,0.0,0.0,0.0,0.0,0.0,0.0,0.0,0.0,-6.4494,-6.5632,-6.6402,-6.8773,-7.0507,-7.103,-7.0772,-7.0411,-7.0045,-7.0179,0.0,0.0,0.0,0.0,0.0,0.0,0.0,0.0,0.0,0.0,0.0,0.0,0.0,0.0,0.0,0.0,0.0,0.0,0.0,0.0,0.0,0.0,0.0,0.0,0.0,0.0,0.0,0.0,0.0,0.0,0.0,0.0,0.0,0.0,0.0,0.0,0.0,0.0,0.0,0.0,0.0,0.0,0.0,0.0,0.0,0.0,0.0,0.0,0.0,0.0,0.0,0.0,0.0,0.0,0.0,0.0,0.0,0.0,0.0,0.0,0.0,0.0,0.0,0.0,0.0,0.0,0.0,0.0,0.0,0.0,0.0,0.0,0.0,0.0,0.0,0.0,0.0,0.0,0.0,0.0,0.0,0.0,0.0,0.0,0.0,0.0,0.0,0.0,0.0,0.0,0.0,0.0,0.0,0.0,0.0,0.0,0.0,0.0,0.0,0.0,0.0,0.0,-6.3243,-6.4501,-6.5736,-6.7459,-6.8807,-6.943,-6.9458,-6.9457,-6.9457,-6.8679,0.0,0.0,0.0,0.0,0.0,0.0,0.0,0.0,0.0,0.0,0.0,0.0,0.0,0.0,0.0,0.0,0.0,0.0,0.0,0.0,0.0,0.0,0.0,0.0,0.0,0.0,0.0,0.0,0.0,0.0,0.0,0.0,0.0,0.0,0.0,0.0,0.0,0.0,0.0,0.0,0.0,0.0,0.0,0.0,0.0,0.0,0.0,0.0,0.0,0.0,0.0,0.0,0.0,0.0,0.0,0.0,0.0,0.0,0.0,0.0,0.0,0.0,0.0,0.0,0.0,0.0,0.0,0.0,0.0,0.0,0.0,0.0,0.0,0.0,0.0,0.0,0.0,0.0,0.0,0.0,0.0,0.0,0.0,0.0,0.0,0.0,0.0,0.0,0.0,0.0,0.0,0.0,0.0,0.0,0.0,0.0,0.0,0.0,0.0,0.0,0.0,0.0,-6.1759,-6.1281,-6.3653,-6.6098,-6.7607,-6.768,-6.8467,-6.8953,-6.8953,-6.8181,0.0,0.0,0.0,0.0,0.0,0.0,0.0,0.0,0.0,0.0,0.0,0.0,0.0,0.0,0.0,0.0,0.0,0.0,0.0,0.0,0.0,0.0,0.0,0.0,0.0,0.0,0.0,0.0,0.0,0.0,0.0,0.0,0.0,0.0,0.0,0.0,0.0,0.0,0.0,0.0,0.0,0.0,0.0,0.0,0.0,0.0,0.0,0.0,0.0,0.0,0.0,0.0,0.0,0.0,0.0,0.0,0.0,0.0,0.0,0.0,0.0,0.0,0.0,0.0,0.0,0.0,0.0,0.0,0.0,0.0,0.0,0.0,0.0,0.0,0.0,0.0,0.0,0.0,0.0,0.0,0.0,0.0,0.0,0.0,0.0,0.0,0.0,0.0,0.0,0.0,0.0,0.0,0.0,0.0,0.0,0.0,0.0,0.0,0.0,0.0,0.0,0.0,-6.139,-6.1199,-6.2131,-6.3975,-6.5177,-6.5177,-6.65,-6.7286,-6.7286,0.0,0.0,0.0,0.0,0.0,0.0,0.0,0.0,0.0,0.0,0.0,0.0,0.0,0.0,0.0,0.0,0.0,0.0,0.0,0.0,0.0,0.0,0.0,0.0,0.0,0.0,0.0,0.0,0.0,0.0,0.0,0.0,0.0,0.0,0.0,0.0,0.0,0.0,0.0,0.0,0.0,0.0,0.0,0.0,0.0,0.0,0.0,0.0,0.0,0.0,0.0,0.0,0.0,0.0,0.0,0.0,0.0,0.0,0.0,0.0,0.0,0.0,0.0,0.0,0.0,0.0,0.0,0.0,0.0,0.0,0.0,0.0,0.0,0.0,0.0,0.0,0.0,0.0,0.0,0.0,0.0,0.0,0.0,0.0,0.0,0.0,0.0,0.0,0.0,0.0,0.0,0.0,0.0,0.0,0.0,0.0,0.0,0.0,0.0,0.0,0.0,0.0,-6.0134,-5.9657,-5.9348,-5.9488,-6.1148,-6.247,-6.2954,-6.4307,-6.5487,-6.6252,0.0,0.0,0.0,0.0,0.0,0.0,0.0,0.0,0.0,0.0,0.0,0.0,0.0,0.0,0.0,0.0,0.0,0.0,0.0,0.0,0.0,0.0,0.0,0.0,0.0,0.0,0.0,0.0,0.0,0.0,0.0,0.0,0.0,0.0,0.0,0.0,0.0,0.0,0.0,0.0,0.0,0.0,0.0,0.0,0.0,0.0,0.0,0.0,0.0,0.0,0.0,0.0,0.0,0.0,0.0,0.0,0.0,0.0,0.0,0.0,0.0,0.0,0.0,0.0,0.0,0.0,0.0,0.0,0.0,0.0,0.0,0.0,0.0,0.0,0.0,0.0,0.0,0.0,0.0,0.0,0.0,0.0,0.0,0.0,0.0,0.0,0.0,0.0,0.0,0.0,0.0,0.0,0.0,0.0,0.0,0.0,0.0,0.0,0.0,0.0,0.0,0.0,-5.7792,-5.6206,-5.5139,-5.5408,-5.7645,-5.9703,-6.1142,-6.2134,-6.3687,0.0,0.0,0.0,0.0,0.0,0.0,0.0,0.0,0.0,0.0,0.0,0.0,0.0,0.0,0.0,0.0,0.0,0.0,0.0,0.0,0.0,0.0,0.0,0.0,0.0,0.0,0.0,0.0,0.0,0.0,0.0,0.0,0.0,0.0,0.0,0.0,0.0,0.0,0.0,0.0,0.0,0.0,0.0,0.0,0.0,0.0,0.0,0.0,0.0,0.0,0.0,0.0,0.0,0.0,0.0,0.0,0.0,0.0,0.0,0.0,0.0,0.0,0.0,0.0,0.0,0.0,0.0,0.0,0.0,0.0,0.0,0.0,0.0,0.0,0.0,0.0,0.0,0.0,0.0,0.0,0.0,0.0,0.0,0.0,0.0,0.0,0.0,0.0,0.0,0.0,0.0,0.0,0.0,0.0,0.0,0.0,0.0,0.0,0.0,0.0,0.0,0.0,0.0,-5.8299,-5.5616,-5.4068,-5.5355,-5.6589,-5.7504,-5.7996,-5.9854,-6.1516,-6.2687,0.0,0.0,0.0,0.0,0.0,0.0,0.0,0.0,0.0,0.0,0.0,0.0,0.0,0.0,0.0,0.0,0.0,0.0,0.0,0.0,0.0,0.0,0.0,0.0,0.0,0.0,0.0,0.0,0.0,0.0,0.0,0.0,0.0,0.0,0.0,0.0,0.0,0.0,0.0,0.0,0.0,0.0,0.0,0.0,0.0,0.0,0.0,0.0,0.0,0.0,0.0,0.0,0.0,0.0,0.0,0.0,0.0,0.0,0.0,0.0,0.0,0.0,0.0,0.0,0.0,0.0,0.0,0.0,0.0,0.0,0.0,0.0,0.0,0.0,0.0,0.0,0.0,0.0,0.0,0.0,0.0,0.0,0.0,0.0,0.0,0.0,0.0,0.0,0.0,0.0,0.0,0.0,0.0,0.0,0.0,0.0,0.0,0.0,0.0,0.0,0.0,0.0,-5.7761,-5.4828,-5.3038,-5.4108,-5.4876,-5.5655,-5.6631,-5.8052,-5.9456,-6.0826,0.0,0.0,0.0,0.0,0.0,0.0,0.0,0.0,0.0,0.0,0.0,0.0,0.0,0.0,0.0,0.0,0.0,0.0,0.0,0.0,0.0,0.0,0.0,0.0,0.0,0.0,0.0,0.0,0.0,0.0,0.0,0.0,0.0,0.0,0.0,0.0,0.0,0.0,0.0,0.0,0.0,0.0,0.0,0.0,0.0,0.0,0.0,0.0,0.0,0.0,0.0,0.0,0.0,0.0,0.0,0.0,0.0,0.0,0.0,0.0,0.0,0.0,0.0,0.0,0.0,0.0,0.0,0.0,0.0,0.0,0.0,0.0,0.0,0.0,0.0,0.0,0.0,0.0,0.0,0.0,0.0,0.0,0.0,0.0,0.0,0.0,0.0,0.0,0.0,0.0,0.0,0.0,0.0,0.0,0.0,0.0,0.0,0.0,0.0,0.0,0.0,0.0,-5.658,-5.3931,-5.209,-5.2399,-5.301,-5.4227,-5.6329,-5.6464,-5.7374,-5.9734,0.0,0.0,0.0,0.0,0.0,0.0,0.0,0.0,0.0,0.0,0.0,0.0,0.0,0.0,0.0,0.0,0.0,0.0,0.0,0.0,0.0,0.0,0.0,0.0,0.0,0.0,0.0,0.0,0.0,0.0,0.0,0.0,0.0,0.0,0.0,0.0,0.0,0.0,0.0,0.0,0.0,0.0,0.0,0.0,0.0,0.0,0.0,0.0,0.0,0.0,0.0,0.0,0.0,0.0,0.0,0.0,0.0,0.0,0.0,0.0,-6.3158,-6.3527,0.0,0.0,0.0,0.0,0.0,0.0,0.0,0.0,0.0,0.0,0.0,0.0,0.0,0.0,0.0,0.0,0.0,0.0,0.0,0.0,0.0,0.0,0.0,0.0,0.0,0.0,0.0,0.0,0.0,0.0,0.0,0.0,0.0,0.0,0.0,0.0,0.0,0.0,0.0,0.0,-5.6608,-5.3594,-5.1854,-5.3112,-5.2841,-5.3246,-5.4907,-5.4499,-5.4901,-5.6507,-5.7508,0.0,0.0,0.0,0.0,0.0,0.0,0.0,0.0,0.0,0.0,0.0,0.0,0.0,0.0,0.0,0.0,0.0,0.0,0.0,0.0,0.0,0.0,0.0,0.0,0.0,0.0,0.0,0.0,0.0,0.0,0.0,0.0,0.0,0.0,0.0,0.0,0.0,0.0,0.0,0.0,0.0,0.0,0.0,0.0,0.0,0.0,0.0,0.0,0.0,0.0,0.0,0.0,0.0,0.0,0.0,0.0,0.0,0.0,0.0,-6.2399,-6.2125,0.0,0.0,0.0,0.0,0.0,0.0,0.0,0.0,0.0,0.0,0.0,0.0,0.0,0.0,0.0,0.0,0.0,0.0,0.0,0.0,0.0,0.0,0.0,0.0,0.0,0.0,0.0,0.0,0.0,0.0,0.0,0.0,0.0,0.0,0.0,0.0,0.0,0.0,0.0,0.0,-5.7111,-5.4017,-5.2198,-5.3382,-5.2773,-5.2605,-5.3349,-5.3382,-5.3653,-5.4394,-5.5518,0.0,0.0,0.0,0.0,0.0,0.0,0.0,0.0,0.0,0.0,0.0,0.0,0.0,0.0,0.0,0.0,0.0,0.0,0.0,0.0,0.0,0.0,0.0,0.0,0.0,0.0,0.0,0.0,0.0,0.0,0.0,0.0,0.0,0.0,0.0,0.0,0.0,0.0,0.0,0.0,0.0,0.0,0.0,0.0,0.0,0.0,0.0,0.0,0.0,0.0,0.0,0.0,0.0,-5.9144,-5.9839,-6.2194,-6.0427,-6.0633,-6.232,-6.2055,-6.1173,-5.9987,-6.0755,0.0,0.0,0.0,0.0,0.0,0.0,0.0,0.0,0.0,0.0,0.0,0.0,0.0,0.0,0.0,0.0,0.0,0.0,0.0,0.0,0.0,0.0,0.0,0.0,-6.1949,-6.1086,-6.1359,0.0,0.0,0.0,0.0,0.0,0.0,0.0,0.0,0.0,0.0,0.0,-5.7359,-5.4463,-5.2604,-5.3382,-5.2537,-5.193,-5.2034,-5.2371,-5.2673,-5.2943,-5.3985,-5.477,0.0,0.0,0.0,0.0,0.0,0.0,0.0,0.0,0.0,0.0,0.0,0.0,0.0,0.0,0.0,0.0,0.0,0.0,0.0,0.0,0.0,0.0,0.0,0.0,0.0,0.0,0.0,0.0,0.0,0.0,0.0,0.0,-6.4331,-6.1813,0.0,0.0,0.0,0.0,0.0,0.0,0.0,0.0,0.0,0.0,0.0,0.0,0.0,-6.3201,-6.1568,-6.1429,-6.1048,-6.0391,-6.0035,-6.0078,-6.0449,-6.0723,-6.0991,-6.1332,-6.1907,0.0,-6.1081,-6.018,0.0,0.0,0.0,0.0,0.0,0.0,0.0,0.0,0.0,0.0,0.0,0.0,0.0,0.0,0.0,0.0,0.0,0.0,0.0,0.0,0.0,0.0,-5.8783,-5.8856,-5.8705,-5.8442,0.0,-5.946,-6.1064,-6.2005,-6.1081,0.0,0.0,0.0,0.0,0.0,0.0,0.0,-5.6062,-5.3822,-5.2538,-5.3179,-5.1428,-5.0655,-5.1765,-5.0726,-5.0626,-5.1899,-5.1564,-5.2001,-5.3484,-5.415,0.0,0.0,0.0,0.0,0.0,0.0,0.0,0.0,0.0,0.0,0.0,0.0,0.0,0.0,0.0,0.0,0.0,0.0,0.0,0.0,0.0,0.0,0.0,0.0,0.0,0.0,0.0,0.0,0.0,-6.1265,-6.3816,-6.2061,-6.3836,-6.4561,0.0,0.0,0.0,0.0,0.0,0.0,0.0,0.0,0.0,-6.1095,-6.1671,-6.1605,-6.076,-6.0722,-6.0498,-6.0148,-5.9257,-5.9265,-6.0029,-5.993,-6.0324,-6.1119,-6.145,-6.168,-6.1816,-6.1354,-6.1184,-6.1146,0.0,0.0,0.0,0.0,-5.7718,-5.8259,-5.8716,-5.8588,-5.8381,-5.9202,0.0,0.0,0.0,0.0,0.0,0.0,0.0,0.0,0.0,0.0,-5.949,-5.9248,-5.8561,-5.7864,-5.7648,-5.817,-5.9072,0.0,-5.9873,-5.9624,-6.0655,0.0,0.0,0.0,0.0,-5.5342,-5.5511,-5.3956,-5.2741,-5.2606,-5.1261,-5.019,-4.9825,-4.9926,-5.0326,-5.0994,-5.1094,-5.173,-5.2973,-5.3315,-5.4395,0.0,0.0,0.0,0.0,0.0,0.0,0.0,0.0,0.0,0.0,0.0,0.0,0.0,0.0,0.0,0.0,0.0,0.0,0.0,0.0,0.0,0.0,0.0,0.0,0.0,0.0,0.0,0.0,-6.0998,-6.3764,-6.2379,-6.3984,-6.4646,0.0,0.0,0.0,0.0,0.0,0.0,-6.0278,-6.0382,-6.0705,-6.1118,-6.0731,-6.0464,-6.0401,-6.0353,-6.0263,-6.0258,-5.8966,-5.9032,-6.0258,-5.9529,-5.9794,-6.0854,-6.102,-6.1417,-6.1899,-6.2048,-6.1813,-6.1155,-6.0076,-5.958,-5.9329,-5.7971,-5.8034,-5.8829,-5.9421,-5.9526,-5.9391,-5.9841,-5.9344,-5.8749,-5.9698,0.0,0.0,0.0,0.0,-6.0965,-6.0215,-6.0076,-6.0001,-5.9545,-5.8601,-5.7707,-5.7309,-5.6928,-5.7043,0.0,-5.845,-5.8562,-5.9323,0.0,0.0,-5.678,-5.5383,-5.4499,-5.4727,-5.3782,-5.2774,-5.1799,-5.0894,-4.9725,-4.8263,-4.936,-5.0092,-5.0092,-5.079,-5.1491,-5.2232,-5.2466,-5.3212,-5.4665,0.0,0.0,0.0,0.0,0.0,0.0,0.0,0.0,0.0,0.0,0.0,0.0,0.0,0.0,0.0,0.0,0.0,0.0,0.0,0.0,0.0,0.0,0.0,0.0,0.0,0.0,0.0,0.0,0.0,-6.3282,-6.6157,0.0,0.0,0.0,0.0,-6.1431,-6.0703,-5.9975,-5.9313,-5.9972,-6.0356,-6.0204,-6.093,-6.125,-6.1069,-6.1028,-6.1061,-6.1053,-6.0258,-6.0291,-6.102,-6.0291,-5.9993,-6.0092,-6.0821,-6.1119,-6.1169,-6.139,-6.1037,-6.0367,-6.0495,-6.0096,-5.9394,-5.8558,-5.8733,-5.9461,-5.9496,-5.8948,-5.8539,-6.0198,-5.9736,-5.8794,-6.0296,-6.0291,0.0,0.0,-6.0844,-6.0651,-5.9524,-5.9306,-5.912,-5.8153,-5.7839,-5.7409,-5.6017,-5.5719,-5.5762,0.0,-5.678,-5.7201,-5.653,0.0,-5.606,-5.5319,-5.5118,-5.4582,-5.3171,-5.2937,-5.2333,-5.076,-4.9859,-4.8994,-4.81,-4.873,-4.916,-4.916,-4.9856,-5.0322,-5.0525,-5.1192,-5.2028,-5.3006,-5.4397,0.0,0.0,0.0,0.0,0.0,0.0,0.0,0.0,0.0,0.0,0.0,0.0,0.0,0.0,0.0,0.0,0.0,0.0,0.0,0.0,0.0,0.0,0.0,0.0,0.0,0.0,0.0,0.0,-6.5058,-6.6841,0.0,-6.5092,-6.4428,-6.338,-6.1537,-6.1521,-6.1089,-5.9824,-5.9991,-6.0324,-6.0712,-6.1035,-6.1169,-6.1119,-6.2047,-6.2047,-6.1119,-6.0854,-6.0622,-6.0357,-5.9628,-5.9297,-5.9297,-5.9562,-5.9694,-5.9735,-6.0271,-6.0899,-6.1441,-6.056,-6.0038,-5.9667,-5.8417,-5.8754,-5.9667,-5.8724,-5.8819,-5.9384,-5.9535,-5.9197,-5.8804,-5.901,-5.9254,-5.9288,-5.8546,-5.9075,-5.9494,-5.7933,-5.7594,-5.7415,-5.6558,-5.6017,-5.5554,-5.4986,-5.5251,-5.5487,-5.5065,-5.5384,-5.5595,-5.5181,-5.4059,-5.3296,-5.3354,-5.2259,-5.1561,-5.1961,-5.1594,-5.0893,-4.9893,-4.9427,-4.8862,-4.8067,-4.8696,-4.9094,-4.9094,-5.022,-5.0917,-5.0987,-5.1684,-5.2285,-5.2694,-5.3174,-5.3314,0.0,0.0,0.0,0.0,0.0,0.0,0.0,0.0,0.0,0.0,0.0,0.0,0.0,0.0,0.0,0.0,0.0,0.0,0.0,0.0,0.0,0.0,0.0,0.0,0.0,-6.3972,-6.6148,-6.6009,-6.7112,-6.7399,-6.6032,-6.5451,-6.437,-6.2556,-6.2589,-6.2165,-6.0881,-6.0517,-6.0622,-6.1086,-6.1351,-6.1351,-6.1119,-6.2312,-6.2179,-6.0721,-6.049,-6.0092,-5.9595,-5.8866,-5.8535,-5.8535,-5.8535,-5.8535,-5.8568,-5.9065,-5.996,-6.0986,-6.0291,-5.986,-5.9496,-5.8535,-5.88,-5.9496,-5.8502,-5.8966,-5.9893,-5.9131,-5.8899,-5.886,-5.8492,-5.8586,-5.8629,-5.7873,-5.8001,-5.8143,-5.6939,-5.6296,-5.5819,-5.5317,-5.4655,-5.4096,-5.3831,-5.3997,-5.3997,-5.3533,-5.4505,-5.5173,-5.4262,-5.3045,-5.2252,-5.2376,-5.0821,-5.0025,-5.0956,-5.0623,-4.9959,-4.9028,-4.9028,-4.8796,-4.8067,-4.8696,-4.8995,-4.8763,-4.9856,-5.0551,-5.0551,-5.1247,-5.1814,-5.2152,-5.2222,-5.1792,-5.0995,0.0,0.0,0.0,0.0,0.0,0.0,0.0,0.0,0.0,0.0,0.0,0.0,0.0,0.0,0.0,0.0,0.0,0.0,0.0,0.0,0.0,0.0,0.0,-6.1856,-6.4634,-6.6589,-6.6059,-6.7208,-6.7447,-6.588,-6.5827,-6.5488,-6.4486,-6.3746,-6.3017,-6.2321,-6.1516,-6.1119,-6.1152,-6.1848,-6.1848,-6.1119,-6.1848,-6.1516,-6.0026,-5.9297,-5.8966,-5.8899,-5.8138,-5.7806,-5.7806,-5.7773,-5.7773,-5.7773,-5.7773,-5.8171,-5.8866,-5.9661,-5.9529,-5.8899,-5.8866,-5.8833,-5.88,-5.8833,-5.9297,-5.9761,-5.9065,-5.8833,-5.8833,-5.8833,-5.8336,-5.7906,-5.8601,-5.7773,-5.6647,-5.6581,-5.5521,-5.4423,-5.4427,-5.3864,-5.3169,-5.2506,-5.1812,-5.1315,-5.1315,-5.4129,-5.5852,-5.3699,-5.3301,-5.3069,-5.2373,-5.1048,0.0,-5.0187,-5.0154,-4.9591,-4.8199,-4.8663,-4.8829,-4.8133,-4.8696,-4.8796,-4.8067,-4.8663,-4.9094,-4.9094,-4.979,-5.0518,-5.1249,-5.1388,-5.0792,-4.9426,0.0,0.0,0.0,0.0,0.0,0.0,0.0,0.0,0.0,0.0,0.0,0.0,0.0,0.0,0.0,0.0,0.0,0.0,0.0,0.0,0.0,-6.1814,-6.4191,-6.4534,-6.584,-6.7108,-6.7846,-6.8739,-6.8736,-6.7223,-6.7057,-6.6535,-6.5194,-6.3968,-6.3448,-6.3813,-6.208,-6.1351,-6.1848,-6.2619,-6.2378,-6.1119,-6.2875,-6.2775,-6.0821,-6.0589,-6.0225,-5.9661,-5.8369,-5.7806,-5.7773,-5.721,-5.6978,-5.6978,-5.6978,-5.6812,-5.6713,-5.8502,-5.9065,-5.8833,-5.8303,-5.7442,-5.668,-5.774,-5.7541,-5.6879,-5.721,-5.7276,-5.7276,-5.7276,-5.7144,-5.6912,-5.6614,-5.6249,-5.5554,-5.3964,-5.3632,-5.3467,-5.2407,-5.2009,-5.181,-5.1647,-5.1448,-5.1315,-5.1315,-5.2542,-5.3036,-5.138,-5.0651,-5.022,-5.0055,-4.9226,0.0,-4.9326,-4.8961,-4.8663,-4.8796,-4.8995,-4.9226,-4.9591,-4.9293,-4.8796,-4.8067,-4.8199,-4.8299,-4.8299,-4.9028,-4.9756,-5.0485,-5.052,-5.0388,0.0,0.0,0.0,0.0,0.0,0.0,0.0,0.0,0.0,0.0,0.0,0.0,0.0,0.0,0.0,0.0,0.0,0.0,0.0,0.0,0.0,0.0,-6.2956,-6.5452,-6.6748,-6.7342,-6.7993,-6.9064,-6.9003,-6.8539,-6.7665,-6.7049,-6.6353,-6.5492,-6.463,-6.4233,-6.4365,-6.2875,-6.208,-6.2221,-6.2619,-6.2113,-6.0655,-6.251,-6.2345,-6.0191,-6.0191,-5.9794,-5.9032,-5.7873,-5.7342,-5.7309,-5.6879,-5.668,-5.668,-5.668,-5.6282,0.0,0.0,0.0,0.0,0.0,-5.615,-5.5251,-5.6117,-5.5885,-5.5152,-5.5289,-5.5521,-5.5786,-5.5786,-5.5786,-5.5686,-5.5289,-5.492,-5.4357,-5.3135,-5.2904,-5.2771,-5.1978,-5.1315,-5.0817,-5.0817,-5.0353,-4.9889,-4.9889,-5.0253,0.0,-4.9425,-4.9458,-4.9458,-4.916,-4.8465,-4.8266,-4.9028,-4.8465,-4.8166,-4.8597,-4.8928,-4.9293,-4.9723,-4.9359,0.0,0.0,0.0,-4.8597,-4.8928,-4.9922,0.0,0.0,0.0,-4.9756,-4.8829,0.0,0.0,0.0,-4.8262,-4.8396,0.0,0.0,0.0,0.0,0.0,0.0,0.0,0.0,0.0,0.0,0.0,0.0,0.0,0.0,0.0,0.0,-6.4285,-6.6709,-6.8546,-6.8804,-6.9069,-6.9699,-6.8572,-6.7665,-6.7599,-6.6353,-6.5525,-6.5525,-6.5392,-6.5094,-6.463,-6.3813,0.0,0.0,0.0,-6.1616,-6.0158,-6.1483,-6.1161,-5.9032,-5.8933,-5.8502,-5.7773,-5.7011,-5.668,-5.668,-5.668,-5.668,-5.668,-5.6614,-5.6084,-5.535,-5.5416,-5.5052,-5.4593,-5.5118,-5.4887,-5.4262,-5.4195,0.0,0.0,-5.3367,-5.3665,-5.4295,-5.4324,-5.4423,-5.4456,-5.4328,-5.3864,-5.3367,-5.3102,-5.2705,-5.234,-5.2175,-5.1148,-5.0187,-5.0088,-4.8995,-4.8001,-4.8001,-4.8001,-4.8001,-4.8001,-4.9094,-4.9756,-4.9094,-4.8431,-4.8233,-4.8895,-4.8398,-4.8034,-4.8133,0.0,0.0,-4.9359,-4.9293,-4.916,-4.8995,-4.8895,-4.9127,-4.969,-5.1181,-5.1048,-4.9028,-4.9624,-4.8995,-4.704,-4.7669,-4.7669,-4.704,-4.7703,-4.7968,0.0,0.0,0.0,0.0,0.0,0.0,0.0,0.0,0.0,0.0,0.0,0.0,0.0,0.0,0.0,-6.2431,-6.5761,-6.844,-6.9448,-6.9566,-6.9633,-6.9765,-6.9003,-6.8241,-6.7678,-6.6817,-6.632,-6.632,-6.5227,-6.5028,-6.6055,-6.4299,-6.3249,-6.3116,-6.3116,-6.2378,-6.092,-6.1748,-6.1384,-5.9794,-5.9164,0.0,-5.7773,-5.7011,-5.668,-5.668,-5.668,-5.668,-5.6647,-5.6084,-5.5057,-5.3861,-5.4456,-5.4622,-5.4423,-5.396,-5.34,-5.2705,-5.2108,-5.1512,-5.1115,-5.1545,-5.2208,-5.2904,-5.3467,-5.4063,0.0,-5.3135,-5.3102,-5.3003,-5.128,-5.1612,-5.2075,-5.0916,-5.0419,-5.0055,-4.9458,-4.863,-4.8001,-4.8001,-4.8001,-4.8001,-4.8001,-4.8233,-4.8398,-4.8233,-4.81,-4.8067,-4.8199,-4.81,-4.8233,-4.8829,-4.9558,-5.022,-5.0817,-5.032,-4.9491,-4.8299,-4.7636,-4.7106,-4.6676,-4.863,-4.926,-4.8233,-4.8365,-4.8233,-4.7802,-4.7934,-4.7934,-4.7802,-4.7934,-4.7669,0.0,0.0,0.0,0.0,0.0,0.0,0.0,0.0,0.0,0.0,0.0,-5.6233,-5.7978,0.0,-6.2985,-6.4875,-6.7123,-6.8937,-6.9699,-6.9798,-6.9798,-6.9798,-6.9136,-6.8539,-6.8208,-6.7148,-6.6519,-6.6519,-6.5856,-6.5591,-6.5955,-6.4929,-6.4034,-6.3348,-6.2951,-6.2013,-6.0556,-6.1285,-6.1086,-5.9993,-5.9628,-5.9065,-5.8336,-5.7574,-5.7044,-5.668,-5.668,-5.668,-5.6614,-5.5521,-5.4626,-5.393,-5.3599,-5.3467,-5.35,-5.3941,-5.318,-5.1951,-5.1951,-5.122,-5.0389,-5.105,-5.1547,-5.2011,-5.2672,-5.2904,-5.2738,-5.2078,-5.181,-5.1578,-5.0485,-5.075,-5.1214,-5.085,-5.0187,-4.9657,-4.9657,-4.8796,-4.8001,-4.8001,-4.8001,-4.8001,-4.8001,-4.8001,-4.8001,-4.8001,-4.8001,-4.8001,-4.8001,-4.8001,-4.8133,-4.8498,-4.9226,-4.9657,-4.9624,-4.8961,-4.8398,-4.8034,-4.7305,-4.6709,-4.6378,-4.7769,-4.8034,-4.6908,-4.7636,-4.7835,-4.7438,-4.7835,-4.7802,-4.7438,-4.7438,-4.7239,0.0,0.0,0.0,0.0,0.0,0.0,0.0,-5.3565,-5.4409,-5.7258,-5.8407,-5.9658,-6.2139,-6.359,-6.5072,-6.7056,-6.8265,-6.9103,-6.9699,-6.9798,-6.9798,-6.9798,-6.9136,-6.8672,-6.8672,-6.7512,-6.6639,-6.6519,-6.6519,-6.6187,-6.5459,-6.5425,-6.4829,-6.358,-6.2818,-6.1748,-6.0423,-6.0887,-6.0721,-5.9993,-5.9993,-5.9529,-5.8668,-5.8204,-5.7508,-5.668,-5.668,-5.6514,-5.6183,-5.499,-5.4361,-5.3997,-5.297,-5.2506,-5.2509,-5.3551,-5.2824,-5.1392,-5.1692,-5.1092,-5.0292,-5.092,-5.1083,-5.1247,-5.2144,-5.1777,-5.1116,-5.1116,-5.0651,-5.0187,-5.0021,-5.0088,-5.0353,-5.0916,-5.0055,-4.926,-4.9856,-4.8961,-4.8001,-4.8001,-4.8001,-4.8001,-4.8001,-4.8001,-4.8001,-4.8001,-4.8001,-4.8001,-4.8001,-4.8001,-4.8001,-4.8001,-4.8663,-4.8796,-4.8067,-4.7206,-4.6874,-4.7338,-4.6941,-4.6609,-4.6477,-4.7305,-4.7173,-4.5814,-4.6974,-4.7272,-4.6676,-4.7272,-4.7272,-4.6676,-4.6543,-4.6477,-5.691,-5.5597,-5.5412,-5.6325,-5.5344,-5.4993,0.0,-5.7299,-5.6348,-5.8713,-5.9771,-6.076,-6.2332,-6.4431,-6.6271,-6.7163,-6.8611,-6.9699,-6.9765,-6.9798,-6.9798,-6.9798,-6.9136,-6.8672,-6.8672,-6.7976,-6.7202,-6.6585,-6.6519,-6.6187,-6.5459,-6.5425,-6.5061,-6.4266,-6.3537,-6.2785,-6.1989,-6.1384,-6.0721,-5.9993,-5.9993,-5.9264,-5.7939,-5.8502,-5.8005,-5.668,-5.668,-5.5951,-5.4759,-5.4593,-5.3765,-5.2672,-5.3135,-5.2937,-5.2277,-5.1256,-5.086,-5.0627,-4.9389,-4.9157,-4.9526,-5.0259,-5.0423,-5.0585,-5.1976,-5.1413,-5.032,-5.032,-5.0286,-5.0055,-4.9392,-4.9723,-5.022,-5.032,-4.969,-4.9127,-4.9226,-4.8597,-4.8001,-4.8001,-4.8001,-4.8001,-4.8001,-4.8001,-4.8001,-4.8001,-4.8001,-4.8001,-4.8001,-4.8001,-4.8001,-4.8001,-4.8663,-4.8796,-4.8067,-4.6709,-4.5682,-4.5086,-4.5616,-4.5616,-4.4953,-4.6278,-4.6643,-4.5814,-4.5947,-4.6013,-4.5914,-4.6013,-4.598,-4.5914,-4.5251,-4.4953,-6.0772,-5.8878,-5.744,-5.83,-5.7913,-5.7611,-5.8803,-5.8844,-5.9504,-6.2316,-6.3804,-6.5057,-6.6509,-6.7955,-6.9027,-6.9324,-6.9982,-7.0428,-7.0428,-7.0063,-6.9798,-6.9798,-6.9533,-6.9334,-6.9334,-6.8672,-6.8109,-6.7811,-6.7016,-6.6386,-6.6088,-6.5657,-6.5094,-6.4399,-6.3713,-6.2951,-6.2221,-6.145,-6.0953,-6.0655,-6.0655,-6.0092,-5.9065,-5.8966,-5.8104,-5.668,-5.668,-5.6117,-5.5085,-5.4655,-5.3897,-5.3003,-5.3301,-5.3042,-5.2451,-5.2028,-5.1362,-5.0626,-5.0121,-5.0023,-5.0159,-5.0359,-5.0888,-5.1512,-5.1713,-5.1313,-5.075,-5.032,-4.9889,-4.9392,-4.8663,-4.8696,-4.9028,-4.9458,-4.8995,-4.8597,-4.9028,-4.8531,-4.8001,-4.8001,-4.8001,-4.8001,-4.8001,-4.8001,-4.8001,-4.8001,-4.8001,-4.8001,-4.8001,-4.8001,-4.8001,-4.8001,-4.7504,-4.7239,-4.7338,-4.5616,-4.4589,-4.4688,-4.4589,-4.439,-4.4092,-4.4655,-4.4854,-4.4556,-4.492,-4.5152,-4.5152,-4.5582,-4.5582,-4.5152,-4.4821,-4.4224,-6.2007,-6.0798,-5.9725,-6.0774,-6.1006,-6.0948,-6.0813,-6.1348,-6.2733,-6.5437,-6.7049,-6.8374,-6.9831,-7.0527,-7.0958,-7.1156,-7.1024,-7.0891,-7.0891,-7.0262,-6.9798,-6.9798,-6.9798,-6.9798,-6.9798,-6.9301,-6.8904,-6.8705,-6.7711,-6.6949,-6.6552,-6.6022,-6.5392,-6.4697,-6.3968,-6.3382,-6.2818,-6.1848,-6.1417,-6.1384,-6.1218,-6.0721,-5.996,-5.9032,-5.8005,-5.6978,-5.6779,-5.6282,-5.5516,-5.4787,-5.4096,-5.34,-5.3202,-5.2876,-5.2553,-5.2799,-5.2,-5.0759,-5.0487,-5.0556,-5.0693,-5.0493,-5.1154,-5.2045,-5.1713,-5.1313,-5.0883,-5.0353,-4.969,-4.8928,-4.8199,-4.8001,-4.8199,-4.8928,-4.8696,-4.8465,-4.8995,-4.8696,-4.8233,-4.8034,-4.8001,-4.8001,-4.8001,-4.8001,-4.8001,-4.8001,-4.8001,-4.8001,-4.8001,-4.8001,-4.8001,-4.8001,-4.6676,-4.6079,-4.6841,-4.4887,-4.3926,-4.4622,-4.4026,-4.3598,-4.3598,-4.3598,-4.3598,-4.3598,-4.4125,-4.439,-4.439,-4.492,-4.492,-4.439,-4.439,-4.3727,-5.7978,-5.9345,-6.1051,-6.3925,-6.4539,-6.4796,-6.6253,-6.5861,-6.569,-6.7247,-6.8142,-6.9103,-7.0593,-7.0891,-7.1123,-7.1852,-7.1355,-7.0891,-7.0891,-7.0262,-6.9798,-6.9798,-6.9798,-6.9798,-6.9798,-6.9765,-6.9467,-6.8738,-6.8639,-6.8009,-6.6585,-6.6485,-6.6154,-6.5392,-6.4697,-6.4332,-6.4299,-6.2917,-6.2188,-6.2188,-6.145,-6.0721,-5.996,-5.8502,-5.7806,-5.7707,-5.7011,-5.6282,-5.5516,-5.4787,-5.4096,-5.3334,-5.2672,-5.2442,-5.2445,-5.2764,-5.2068,-5.0789,-4.9342,-4.9683,-5.0693,-5.0493,-5.0823,-5.1481,-5.2177,-5.138,-5.0253,-5.022,-4.969,-4.8928,-4.8199,-4.8001,-4.8199,-4.8928,-4.9094,-4.9094,-4.9094,-4.9094,-4.8862,-4.8133,-4.8001,-4.8001,-4.8001,-4.8001,-4.8001,-4.8001,-4.8001,-4.8001,-4.8001,-4.8001,-4.8001,-4.8001,-4.6676,-4.6079,-4.6841,-4.4887,-4.3926,-4.4622,-4.4026,-4.3598,-4.3598,-4.3598,-4.3598,-4.3598,-4.3598,-4.3631,-4.3631,-4.3664,-4.3664,-4.3631,-4.3631,-4.3234,-6.0384,-6.2433,-6.4531,-6.787,-6.8261,-6.8108,-6.9101,-6.814,-6.7463,-6.8976,-6.6899,-6.5541,-6.7712,-6.7937,-6.807,-6.9043,-7.059,-7.162,-7.162,-7.1421,-7.109,-7.0593,-7.0527,-7.0328,-6.9831,-6.9798,-6.9699,-6.9434,-6.897,-6.8274,-6.7314,-6.6784,-6.6187,-6.5425,-6.473,-6.4365,-6.4365,-6.2951,-6.2221,-6.2188,-6.0953,-5.9993,-5.9231,-5.8237,-5.7508,-5.7044,-5.6812,-5.6282,-5.5516,-5.4787,-5.4096,-5.3434,-5.3699,-5.35,-5.3172,-5.3887,-5.3263,-5.1964,-5.1228,-5.076,-5.0493,-5.0392,-5.1121,-5.2011,-5.1746,-5.1645,-5.1545,-5.1048,-5.075,-5.0386,-4.9657,-4.9458,-4.9525,-4.979,-4.9856,-4.9723,-4.9226,-4.9094,-4.8895,-4.8133,-4.8001,-4.8001,-4.8001,-4.8001,-4.8001,-4.8001,-4.8001,-4.8001,-4.8001,-4.8001,-4.8001,-4.8001,-4.7106,-4.6643,-4.6874,-4.5781,-4.4953,-4.4718,-4.4456,-4.4125,-4.3598,-4.3135,-4.3102,-4.3598,-4.3102,-4.3102,-4.3598,-4.3102,-4.3102,-4.3598,-4.3102,-4.3002,-6.2868,-6.533,-6.7514,-7.1161,-7.1468,-7.1007,-7.1459,-7.0106,-6.9015,-6.9998,-6.7023,-6.4832,-6.6736,-6.6635,-6.655,-6.7165,-6.9309,-7.0863,-7.0742,-7.087,-7.0823,-7.0542,-7.0494,-7.0328,-6.9831,-6.9798,-6.9666,-6.9434,-6.897,-6.8274,-6.7235,-6.6784,-6.6187,-6.5425,-6.4995,-6.4763,-6.4763,-6.3305,-6.2354,-6.1781,-6.0854,-6.0026,-5.9264,-5.8535,-5.7773,-5.7077,-5.6812,-5.6415,-5.5951,-5.5222,-5.4494,-5.3864,-5.4291,-5.4063,-5.3533,-5.4745,-5.405,-5.2454,-5.2032,-5.1429,-5.0791,-5.0757,-5.1484,-5.231,-5.1846,-5.2045,-5.2277,-5.1514,-5.1315,-5.1149,-5.0386,-5.022,-5.022,-5.022,-5.0453,-5.0388,-4.9326,-4.9326,-4.926,-4.8199,-4.8001,-4.8001,-4.8001,-4.8001,-4.8001,-4.8001,-4.8001,-4.8001,-4.8001,-4.8001,-4.8001,-4.8001,-4.7338,-4.7007,-4.7272,-4.6378,-4.5582,-4.5119,-4.4851,-4.4357,-4.3631,-4.287,-4.2837,-4.3598,-4.2605,-4.2605,-4.3598,-4.2837,-4.287,-4.3598,-4.3102,-4.3135,-6.5177,-6.7883,-7.0053,-7.3744,-7.4047,-7.3432,-7.3432,-7.1902,-7.0413,-7.0345,-6.8336,-6.6735,-6.7413,-6.6882,-6.6352,-6.6347,-6.7862,-6.8971,-6.8718,-6.9005,-6.9379,-6.9808,-6.9864,-6.9831,-6.9798,-6.9798,-6.95,-6.8738,-6.8705,-6.8109,-6.6585,-6.6552,-6.622,-6.5425,-6.5425,-6.5425,-6.5425,-6.4034,-6.2577,-6.1119,-6.1119,-6.0721,-5.996,-5.9198,-5.8469,-5.774,-5.7011,-5.668,-5.6614,-5.5885,-5.5152,-5.4523,-5.449,-5.4129,-5.3699,-5.5343,-5.4476,-5.2409,-5.1822,-5.1557,-5.1456,-5.1383,-5.1846,-5.2409,-5.2409,-5.2376,-5.221,-5.1514,-5.1282,-5.1048,-5.0386,-5.0253,-5.0286,-5.0253,-5.0921,-5.1123,-4.9592,-4.9858,-4.9992,-4.8431,-4.81,-4.8034,-4.8001,-4.8001,-4.8001,-4.8001,-4.8001,-4.8001,-4.8001,-4.8001,-4.8001,-4.8001,-4.7371,-4.7239,-4.7934,-4.6709,-4.5881,-4.5781,-4.5119,-4.439,-4.3565,-4.2837,-4.2771,-4.3466,-4.2075,-4.2075,-4.3532,-4.2771,-4.2804,-4.3598,-4.3499,-4.3532,-6.745,-7.0432,-7.3103,-7.5139,-7.5472,-7.5296,-7.5296,-7.386,-7.2181,-7.0909,-6.7365,-6.4358,-6.4113,-6.4029,-6.4408,-6.5738,-6.8904,-7.1198,-7.1147,-7.166,-7.1679,-7.0741,-7.0626,-7.0394,-6.9831,-6.9798,-6.95,-6.8738,-6.9202,-6.8639,-6.6618,-6.7003,-6.6705,-6.5459,-6.5425,-6.5425,-6.5425,-6.4531,-6.3107,-6.1119,-6.1119,-6.0721,-5.996,-5.8668,-5.7972,-5.774,-5.7011,-5.668,-5.6581,-5.5322,-5.4986,-5.5251,-5.4688,-5.4688,-5.5189,-5.616,-5.5426,-5.3864,-5.3172,-5.2246,-5.1416,-5.1945,-5.2277,-5.2409,-5.2409,-5.2045,-5.1547,-5.1348,-5.0883,-5.0452,-5.0253,-5.0618,-5.1017,-5.1155,-5.1755,-5.2091,-5.1295,-5.1193,-5.0924,-4.9959,-4.926,-4.8663,-4.81,-4.8001,-4.8001,-4.8001,-4.8001,-4.8001,-4.8001,-4.8001,-4.8001,-4.8001,-4.7835,-4.7802,-4.7968,-4.7669,-4.6974,-4.5847,-4.5616,-4.4688,-4.2837,-4.2075,-4.1773,-4.1972,-4.111,-4.1342,-4.2771,-4.1541,-4.1839,-4.3565,-4.2473,-4.2539,-6.9818,-7.2448,-7.4721,-7.5851,-7.614,-7.5745,-7.4335,-7.3151,-7.1657,-6.9283,-6.5888,-6.3203,-6.284,-6.3027,-6.355,-6.4598,-6.7817,-7.0241,-7.0437,-7.0931,-7.1084,-7.0476,-7.0428,-7.0262,-6.9831,-6.9798,-6.95,-6.8738,-6.8771,-6.8175,-6.6585,-6.6618,-6.6287,-6.5459,-6.5425,-6.526,-6.4962,-6.4266,-6.3107,-6.1583,-6.1251,-6.0887,-6.0456,-5.9297,-5.8601,-5.8237,-5.7475,-5.6978,-5.6614,-5.5487,-5.5019,-5.5123,-5.5132,-5.5169,-5.5368,-5.6511,-5.5979,-5.4572,-5.414,-5.3042,-5.1746,-5.1512,-5.1645,-5.1879,-5.1512,-5.1347,-5.1249,-5.0916,-5.0518,-5.022,-5.022,-5.075,-5.1315,-5.1386,-5.2021,-5.2424,-5.1796,-5.1662,-5.1394,-5.0559,-4.9958,-4.9458,-4.9061,-4.8696,-4.8498,-4.8498,-4.8199,-4.8001,-4.8001,-4.8001,-4.8001,-4.8001,-4.8001,-4.8001,-4.8001,-4.8001,-4.7504,-4.6344,-4.6278,-4.545,-4.3562,-4.2469,-4.1877,-4.1877,-4.058,-4.0613,-4.2009,-4.0912,-4.1177,-4.2605,-4.1778,-4.2009,-7.2187,-7.4066,-7.53,-7.6239,-7.6384,-7.5515,-7.2509,-7.1491,-7.0199,-6.6752,-6.4444,-6.2919,-6.26,-6.2958,-6.3439,-6.3797,-6.6072,-6.8049,-6.8696,-6.9075,-6.939,-6.9775,-6.9798,-6.9798,-6.9798,-6.9699,-6.9368,-6.8738,-6.7943,-6.7135,-6.6552,-6.5922,-6.5525,-6.5425,-6.5425,-6.5094,-6.4399,-6.3835,-6.3073,-6.2221,-6.1649,-6.1285,-6.1086,-6.0357,-5.9595,-5.8866,-5.8104,-5.7376,-5.6614,-5.5918,-5.5218,-5.4725,-5.5443,-5.5384,-5.5085,-5.6538,-5.6166,-5.4885,-5.4685,-5.3645,-5.2175,-5.0916,-5.085,-5.1183,-5.0551,-5.0651,-5.085,-5.0253,-4.9988,-4.9922,-4.9922,-5.0486,-5.1085,-5.1184,-5.1888,-5.2359,-5.186,-5.1864,-5.1731,-5.0726,-5.0456,-5.032,-5.022,-4.969,-4.926,-4.926,-4.8696,-4.8266,-4.8166,-4.8067,-4.8001,-4.8001,-4.8001,-4.8001,-4.8001,-4.8001,-4.7703,-4.6941,-4.6908,-4.6179,-4.4622,-4.333,-4.2539,-4.234,-4.0514,-4.0216,-4.1513,-4.0779,-4.0845,-4.1707,-4.148,-4.1806,-7.4142,-7.4866,-7.5478,-7.6927,-7.6782,-7.5804,-7.3921,-7.2416,-7.0157,-6.5646,-6.4419,-6.3517,-6.1504,-6.2092,-6.3678,-6.5986,-6.7199,-6.8432,-7.0215,-7.0534,-7.0353,-6.9879,-6.9798,-6.9798,-6.9798,-6.9235,-6.8837,-6.8705,-6.7446,-6.6606,-6.6519,-6.6386,-6.6055,-6.5425,-6.5425,-6.5094,-6.4399,-6.4829,-6.4067,-6.2221,-6.2719,-6.2278,-6.1086,-6.0357,-5.9595,-5.8866,-5.8104,0.0,-5.6614,-5.5918,-5.5516,-5.535,-5.4891,-5.5061,-5.5492,-5.5795,-5.5729,-5.5293,-5.4067,-5.3105,-5.234,-5.2075,-5.1713,-5.1282,-5.1149,-5.0353,-4.9458,-4.9326,-4.8862,-4.8398,-4.8398,-4.8995,-4.9793,-5.0425,-5.1396,-5.2303,-5.2773,-5.2908,-5.2639,-5.1527,-5.129,-5.1055,-5.032,-5.0088,-5.0021,-5.0021,-4.9922,-4.9624,-4.8995,-4.8398,-4.8001,-4.8001,-4.8001,-4.8001,-4.8001,-4.8001,-4.7703,-4.6941,-4.6908,-4.598,-4.3863,-4.3532,-4.2837,-4.1612,-4.1243,-4.1475,-4.2307,-4.1011,-4.1375,-4.3168,-4.1943,-4.1806,-7.5406,-7.6348,-7.7181,-7.7941,-7.7507,-7.5949,-7.2291,-7.0517,-6.8199,-6.2983,-6.2259,-6.2041,-6.0484,-6.1956,-6.3842,-6.5163,-6.6431,-6.7868,-6.9602,-6.9796,-6.9765,-6.9798,-6.9434,-6.9368,-6.9765,-6.8804,-6.8274,-6.8672,-6.7347,-6.6519,-6.6519,-6.6154,-6.579,-6.5425,-6.5425,-6.526,-6.4929,-6.4895,-6.4167,-6.2785,-6.2752,-6.2345,-6.1649,-6.092,-6.039,-5.9993,-5.8866,-5.7939,-5.7177,-5.6084,-5.535,-5.5057,-5.5202,-5.5206,-5.5273,-5.615,-5.6179,-5.5605,-5.4509,-5.3838,-5.3434,-5.3036,-5.2175,-5.1183,-5.0386,-4.9922,-4.9525,-4.8763,-4.8266,-4.81,-4.8465,-4.8895,-4.9393,-5.0124,-5.1128,-5.2135,-5.2874,-5.3041,-5.2837,-5.2192,-5.2019,-5.185,-5.1448,-5.1015,-5.075,-5.075,-5.0452,-5.0088,-4.9723,-4.9028,-4.8431,-4.8034,-4.8001,-4.8001,-4.8001,-4.8001,-4.7835,-4.7504,-4.7471,-4.6841,-4.5384,-4.4953,-4.4059,-4.2572,-4.2175,-4.1806,-4.1409,-4.0741,-4.0912,-4.1939,-4.121,-4.1276,-7.6309,-7.7615,-7.8738,-7.8919,-7.8231,-7.613,-7.091,-6.8669,-6.6207,-6.0738,-6.0122,-6.0303,-5.9506,-6.1523,-6.3306,-6.3371,-6.4697,-6.6336,-6.815,-6.8361,-6.8639,-6.968,-6.9136,-6.8904,-6.95,-6.8241,-6.7612,-6.8175,-6.7016,-6.6287,-6.6287,-6.5724,-6.5425,-6.5425,-6.5425,-6.5425,-6.5425,-6.473,-6.4045,-6.3315,-6.2553,-6.2122,-6.1914,-6.1351,-6.102,-6.0788,-5.9463,-5.8469,-5.7707,-5.6382,-5.5383,-5.4792,-5.5372,-5.5347,-5.5081,-5.6267,-5.6429,-5.5979,-5.5214,-5.487,-5.4589,-5.3897,-5.2672,-5.1348,-5.0154,-4.9889,-4.9723,-4.8564,-4.8133,-4.8166,-4.8928,-4.9127,-4.9393,-5.0357,-5.1361,-5.2234,-5.2804,-5.2972,-5.2903,-5.2659,-5.2483,-5.2445,-5.2409,-5.1945,-5.1547,-5.1547,-5.1048,-5.0618,-5.0452,-4.9922,-4.9293,-4.8564,-4.8199,-4.8001,-4.8001,-4.8001,-4.8001,-4.8001,-4.8001,-4.7669,-4.6941,-4.6344,-4.5417,-4.4125,-4.3499,-4.2667,-4.1569,-4.1404,-4.1337,-4.1304,-4.0978,-4.1143,-7.7031,-7.8014,-7.8883,-7.9607,-7.8629,-7.642,-7.2327,-6.9068,-6.5518,-6.0629,-5.9651,-5.947,-5.8673,-5.9934,-6.1227,-6.1756,-6.1969,-6.3206,-6.6452,-6.6863,-6.7631,-6.9561,-6.9136,-6.8705,-6.8771,-6.7479,-6.6651,-6.6717,-6.5989,-6.5525,-6.5525,-6.5459,-6.5425,-6.5425,-6.5425,-6.5425,-6.5425,-6.473,-6.4045,-6.3315,-6.2553,-6.1848,-6.1218,-6.1152,-6.0755,-6.0059,-5.9264,-5.8469,0.0,-5.6912,-5.615,-5.5416,-5.4858,-5.499,-5.5454,-5.4962,-5.5558,-5.652,-5.5752,-5.5521,-5.535,-5.4622,-5.3467,-5.2277,-5.2144,-5.075,-4.9193,-4.9061,-4.8531,-4.8166,-4.8928,-4.9194,-4.9726,-5.1497,-5.2369,-5.2871,-5.3144,-5.3179,-5.3041,-5.2659,-5.2589,-5.2518,-5.2409,-5.2343,-5.231,-5.231,-5.2243,-5.1943,-5.1315,-5.1149,-5.0817,-5.0088,-4.8796,-4.8001,-4.8001,-4.8001,-4.8001,-4.8001,-4.8001,-4.7669,-4.6941,-4.6841,-4.6411,-4.5616,-4.5516,-4.5417,-4.5284,-4.4622,-4.4291,-4.4257,-4.2932,-4.234,-7.772,-7.9861,-8.1418,-8.0802,-7.9064,-7.6456,-7.2509,-6.8742,-6.4975,-6.1136,-6.0738,-6.0665,-5.9361,-6.0448,-6.129,-6.0496,-6.0683,-6.1556,-6.338,-6.4401,-6.5533,-6.7093,-6.7093,-6.7288,-6.7956,-6.6717,-6.5856,-6.5856,-6.5591,-6.5425,-6.5425,-6.5425,-6.5425,-6.5425,-6.5425,-6.5425,-6.5425,-6.473,-6.4045,-6.3315,-6.3017,-6.2487,-6.1748,-6.1748,-6.1583,-6.1218,-5.9595,-5.8734,0.0,-5.7177,-5.6017,-5.492,-5.5085,-5.4787,-5.4361,-5.492,-5.5554,-5.6017,-5.5681,-5.5918,-5.615,-5.5383,-5.4494,-5.35,-5.2638,-5.1446,-5.032,-4.9889,-4.9558,-4.9491,-5.022,-5.0454,-5.0724,-5.1698,-5.1998,-5.223,-5.2872,-5.2903,-5.2764,-5.2551,-5.248,-5.248,-5.2409,-5.2409,-5.2409,-5.2409,-5.2409,-5.231,-5.2011,-5.158,-5.1216,-5.0883,-4.9955,-4.916,-4.8696,-4.8663,-4.8465,-4.8034,-4.8001,-4.7868,-4.757,-4.757,-4.7206,-4.6477,-4.6444,-4.6013,-4.5119,-4.4821,-4.4456,-4.4026,-4.3433,-4.3168,-7.7746,-8.0728,-8.2867,-8.1744,-7.9462,-7.6456,-7.2472,-6.8452,-6.4685,-6.1462,-6.1254,-6.1218,-5.9868,-6.0738,-6.1136,-5.9506,-5.9606,-6.0297,-6.1512,-6.2521,-6.3762,-6.527,-6.5167,-6.5459,-6.6644,-6.5935,-6.5425,-6.5425,-6.5425,-6.5425,-6.5425,-6.5425,-6.5425,-6.5425,-6.5425,-6.5425,-6.5425,-6.473,-6.4177,-6.3603,-6.3372,-6.2917,-6.2221,-6.2221,-6.2089,-6.1748,-5.9761,-5.8899,0.0,-5.7309,-5.6084,-5.5156,-5.5218,-5.4754,-5.4092,-5.4759,-5.5218,-5.5582,-5.5582,-5.6084,-5.6614,-5.6084,-5.5454,-5.4589,-5.34,-5.2243,-5.1216,-5.0684,-5.0518,-5.0651,-5.1183,-5.1516,-5.1753,-5.2065,-5.2065,-5.2231,-5.3036,-5.3098,-5.3023,-5.3006,-5.2837,-5.2705,-5.2705,-5.2506,-5.2409,-5.2409,-5.2409,-5.2409,-5.2409,-5.1978,-5.1647,-5.1647,-5.1148,-5.0386,-4.9193,-4.9094,-4.8796,-4.8067,-4.8001,-4.8001,-4.8001,-4.8001,-4.7769,-4.7239,-4.7239,-4.6709,-4.5682,-4.5682,-4.5185,-4.4257,-4.4026,-4.3797,-7.6874,-8.0068,-8.2324,-8.2287,-7.9861,-7.6456,-7.2436,-6.8452,-6.4685,-6.1462,-6.081,-6.0557,-5.976,-6.0267,-6.0303,-5.8673,-5.842,-5.9204,-6.1478,-6.1818,-6.2634,-6.4847,-6.3764,-6.3337,-6.4608,-6.5149,-6.5425,-6.5425,-6.5425,-6.5425,-6.5425,-6.5425,-6.5425,-6.5425,-6.5425,-6.5425,-6.5425,-6.473,-6.4365,-6.4365,-6.368,-6.2917,-6.2221,-6.2221,-6.1781,-6.1053,-5.9529,-5.8899,0.0,-5.7309,-5.668,-5.6514,-5.509,-5.492,-5.5383,-5.3964,-5.4361,-5.5582,-5.5582,-5.6084,-5.668,-5.668,-5.6183,-5.545,-5.4688,-5.3003,-5.1315,-5.1282,-5.1282,-5.1282,-5.1315,-5.1951,-5.2659,-5.2834,-5.3041,-5.3346,-5.3876,-5.3973,-5.4066,-5.4398,-5.3897,-5.34,-5.34,-5.2837,-5.2409,-5.2409,-5.2409,-5.2409,-5.2409,-5.2373,-5.2409,-5.2409,-5.2409,-5.1479,-4.9293,-4.9094,-4.8796,-4.8067,-4.8001,-4.8001,-4.8001,-4.8001,-4.8001,-4.8001,-4.8001,-4.7968,-4.7968,-4.7968,-4.7206,-4.5748,-4.5019,-4.4291,-7.3413,-7.5452,-7.6829,-7.6898,-7.5135,-7.2653,-6.9756,-6.7293,-6.483,-6.2159,-6.1616,-6.1362,-6.0593,-6.0629,-6.0267,-5.8673,-5.8932,-5.9222,-5.8852,-6.1077,-6.2726,-6.2648,-6.3777,-6.4732,-6.513,-6.5315,-6.5425,-6.5425,-6.5425,-6.5425,-6.5425,-6.5425,-6.5425,-6.5425,-6.5425,-6.5425,-6.5425,-6.473,-6.4365,-6.4365,-6.4133,-6.3415,-6.2221,-6.2719,-6.2245,-6.1053,-6.0092,-5.9363,-5.8833,-5.7839,-5.6846,-5.5918,-5.5416,-5.5085,-5.4787,-5.4291,-5.4754,-5.5582,-5.5582,-5.6084,-5.668,-5.668,-5.6216,-5.5549,-5.5317,-5.4427,-5.35,-5.35,-5.3135,-5.2738,-5.2738,-5.2682,-5.2659,-5.2834,-5.2834,-5.2999,-5.3839,-5.3795,-5.3778,-5.4361,-5.4291,-5.396,-5.35,-5.3235,-5.2937,-5.244,-5.2409,-5.2409,-5.2409,-5.2409,-5.2409,-5.2409,-5.2409,-5.191,-5.0684,-5.0154,-4.9558,-4.8796,-4.8299,-4.8001,-4.8001,-4.8001,-4.8001,-4.8001,-4.8001,-4.8001,-4.8001,-4.8001,-4.7239,-4.5781,-4.5549,-4.5317,-7.1129,-7.3343,-7.4774,-7.4715,-7.3071,-7.0987,-6.8984,-6.6779,-6.4678,-6.2885,-6.1996,-6.1362,-6.0892,-6.0303,-5.9579,-5.8565,-5.8642,-5.8797,-5.8654,-6.0755,-6.2084,-6.1636,-6.3441,-6.4571,-6.4303,-6.4949,-6.5425,-6.5425,-6.5425,-6.5425,-6.5425,-6.5425,-6.5425,-6.5425,-6.5425,-6.5425,-6.5425,-6.4995,-6.4763,-6.4763,-6.4763,-6.4001,-6.2652,-6.3116,-6.2477,-6.1053,-6.0324,-5.9728,0.0,-5.8204,-5.7276,-5.6382,-5.5814,-5.5317,-5.4854,-5.4589,-5.4953,-5.5582,-5.5582,-5.6084,-5.668,-5.668,-5.6017,-5.5256,-5.5629,-5.5202,-5.4638,-5.4712,-5.4216,-5.3618,-5.3509,-5.3318,-5.3163,-5.3165,-5.3398,-5.3764,-5.4534,-5.4519,-5.4572,-5.5302,-5.5161,-5.4692,-5.4037,-5.3636,-5.3169,-5.2473,-5.2409,-5.2409,-5.2409,-5.2409,-5.2409,-5.2409,-5.2409,-5.221,-5.1779,-5.0783,-4.9889,-4.916,-4.8398,-4.8001,-4.8001,-4.8001,-4.8001,-4.8001,-4.8001,-4.8001,-4.8001,-4.7736,-4.7106,-4.6212,-4.5914,-4.5947,0.0,-7.2782,-7.4811,-7.4559,-7.2794,-7.0729,-6.9358,-6.6649,0.0,-6.3457,-6.1969,-6.081,-6.0738,-5.9434,-5.8383,-5.8337,-5.7757,-5.8041,-6.0178,-6.0646,-6.1023,-6.1848,-6.3021,-6.3425,-6.26,-6.4294,-6.5425,-6.5425,-6.5425,-6.5425,-6.5425,-6.5425,-6.5425,-6.5425,-6.5425,-6.5425,-6.5425,-6.5425,-6.5425,-6.5425,-6.5359,-6.463,-6.3315,-6.3282,-6.2444,0.0,-6.039,-6.0026,-5.9827,-5.8436,-5.7806,-5.7574,-5.6216,-5.5648,-5.5582,-5.4821,-5.5057,-5.5648,-5.5615,-5.6084,-5.668,-5.668,-5.5786,-5.4792,-5.5647,-5.5388,-5.4859,-5.5177,-5.4711,-5.4107,-5.3928,-5.3966,-5.4037,-5.3825,-5.4431,-5.5238,-5.5792,-5.5884,-5.6083,-5.6854,-5.6264,-5.5492,-5.4948,-5.414,-5.3334,-5.2572,-5.2442,-5.2409,-5.2409,-5.2376,-5.2343,-5.2373,-5.2409,-5.2409,-5.2409,-5.1048,-4.9955,-4.9293,-4.8465,-4.8034,-4.8067,-4.7968,-4.7934,-4.7934,-4.7934,-4.7968,-4.8001,-4.7305,-4.6941,-4.6874,-4.6179,-4.6245,-6.6371,0.0,-6.7772,-6.8311,-6.7716,-6.6779,0.0,-6.5053,-6.4054,-6.274,-6.165,-6.0752,-6.0171,-5.9227,-5.8355,-5.7738,-5.7992,-5.8208,-5.8096,-5.9923,-6.2081,-6.4262,-6.4796,-6.469,-6.4024,-6.4795,-6.5425,-6.5425,-6.5425,-6.5425,-6.5425,-6.5425,-6.5425,-6.5425,-6.5425,-6.5425,-6.5425,-6.5425,-6.5425,-6.5392,-6.4895,-6.4167,-6.3315,-6.2719,-6.1947,-6.1086,-6.092,-6.0191,-5.9131,-5.8767,-5.7972,-5.6912,-5.6581,-5.6448,-5.6349,-5.562,-5.5819,-5.6349,-5.5819,-5.6084,-5.668,-5.668,-5.6448,-5.6155,-5.5946,-5.5388,-5.5092,-5.6415,-5.6251,-5.5646,-5.5425,-5.5135,-5.4809,-5.4592,-5.4725,-5.5059,-5.5755,-5.5771,-5.5857,-5.6624,-5.6586,-5.6216,-5.5525,-5.5222,-5.4659,-5.3367,-5.2705,-5.2409,-5.2409,-5.1912,-5.1779,-5.2343,-5.2409,-5.2409,-5.2409,-5.1048,-5.0386,-5.075,-4.9028,-4.8266,-4.8829,-4.7769,-4.7139,-4.7139,-4.7139,-4.7438,-4.8001,-4.7835,-4.7438,-4.6908,-4.6709,-4.6709,-6.4717,-6.5113,-6.5567,-6.5505,-6.5012,-6.4525,-6.4648,-6.4011,-6.3294,-6.3,-6.1688,-6.0398,-5.9961,-5.8942,-5.7996,-5.7559,-5.8079,-5.8506,-5.8541,-6.0462,-6.2506,-6.4178,-6.4686,-6.489,-6.4873,-6.5194,-6.5425,-6.5425,-6.5425,-6.5425,-6.5425,-6.5425,-6.5425,-6.5425,-6.5425,-6.5425,-6.5425,-6.5094,-6.5094,-6.5392,-6.4365,-6.367,-6.3282,-6.2553,-6.1781,-6.1119,-6.1119,-6.0456,-5.9363,-5.9032,-5.8237,-5.7144,-5.6812,-5.6481,-5.615,-5.5747,-5.5852,-5.615,-5.5714,-5.6084,-5.6614,-5.6316,-5.5984,-5.5724,-5.5846,-5.5425,-5.5202,-5.6449,-5.6519,-5.6144,-5.5958,-5.5696,-5.5432,-5.521,-5.5439,-5.5771,-5.617,-5.6193,-5.6254,-5.6729,-5.6757,-5.6487,-5.5866,-5.5658,-5.5085,-5.3632,-5.2837,-5.231,-5.1945,-5.1247,-5.1082,-5.1846,-5.1912,-5.2045,-5.2376,-5.1347,-5.0717,-5.0783,-4.9359,-4.8531,-4.8597,-4.7835,-4.7404,-4.7404,-4.7073,-4.7272,-4.8001,-4.8001,-4.7802,-4.7404,-4.7404,-4.7404,-6.4163,-6.5111,-6.5786,-6.44,-6.3655,-6.3456,-6.4275,-6.3202,-6.2328,-6.3247,-6.1624,-5.9967,-5.9686,-5.8446,-5.7388,-5.7231,-5.7819,-5.8822,-6.0324,-6.1733,-6.2806,-6.3323,-6.4084,-6.4774,-6.5172,-6.5359,-6.5425,-6.5425,-6.5425,-6.5425,-6.5425,-6.5425,-6.5425,-6.5425,-6.5425,-6.5425,-6.5425,-6.4829,-6.4829,-6.5392,-6.3968,-6.3315,-6.3282,-6.2453,-6.1682,-6.1119,0.0,0.0,-5.9794,-5.9164,-5.8403,-5.7574,-5.6945,-5.6249,-5.5615,-5.5714,-5.5681,-5.5615,-5.5714,-5.6183,-5.6581,-5.5984,-5.5251,-5.4792,-5.5647,-5.5562,-5.5308,-5.5977,-5.6285,-5.6385,-5.6125,-5.6088,-5.6012,-5.5824,-5.6249,-5.668,-5.668,-5.668,-5.6757,-5.6911,-5.6796,-5.6558,-5.6112,-5.5899,-5.5251,-5.3798,-5.3003,-5.2274,-5.158,-5.0717,-5.0518,-5.1382,-5.1382,-5.1614,-5.2343,-5.1846,-5.1148,-5.0419,-4.9591,-4.873,-4.7868,-4.7835,-4.7769,-4.7669,-4.7173,-4.7206,-4.7835,-4.7968,-4.8001,-4.8001,-4.8001,-4.8001,-6.4563,-6.5649,-6.6032,-6.3357,-6.3039,-6.3239,-6.2854,-6.2042,-6.1412,-6.1711,-6.0932,-5.9761,-5.8384,-5.7384,-5.6437,-5.5545,-5.6808,-5.9047,-6.2425,-6.306,-6.3424,-6.4118,-6.4806,-6.5061,-6.4608,-6.5061,-6.5425,-6.5425,-6.5425,-6.5425,-6.5425,-6.5425,-6.5425,-6.5425,-6.5425,-6.5425,-6.5425,-6.5326,-6.5326,-6.5392,-6.3968,-6.3315,-6.3282,-6.1881,-6.1218,-6.1119,0.0,-6.0324,-5.9065,-5.8933,-5.8104,-5.6846,-5.6713,-5.6249,-5.5648,-5.6316,-5.615,-5.5681,-5.6316,-5.6614,-5.668,-5.6547,-5.6051,-5.5487,-5.5813,-5.5742,-5.5601,-5.585,-5.6653,-5.7308,-5.6934,-5.682,-5.6782,-5.6553,-5.6614,-5.668,-5.668,-5.668,-5.6719,-5.6719,-5.6719,-5.6685,-5.6586,-5.6553,-5.6017,-5.4523,-5.3732,-5.3003,-5.2343,-5.1048,-5.0717,-5.2075,-5.168,-5.1614,-5.2343,-5.231,-5.1945,-5.1183,-4.9856,-4.8498,-4.7139,-4.7073,-4.6775,-4.6146,-4.6643,-4.6974,-4.7073,-4.7703,-4.8001,-4.8001,-4.8001,-4.8001,-6.3311,-6.3365,-6.3362,-6.294,-6.3702,-6.4428,-6.373,-6.2629,-6.1798,-6.2015,-6.0737,-5.9323,-5.8495,-5.8319,-5.86,-5.9499,-5.979,-6.0565,-6.2425,-6.2803,-6.3091,-6.3693,-6.4413,-6.4877,-6.494,-6.5227,-6.5425,-6.5425,-6.5425,-6.5425,-6.5425,-6.5425,-6.5425,-6.5425,-6.5425,-6.5425,-6.5425,-6.5028,-6.5028,-6.5392,-6.357,-6.2917,-6.3282,-6.1781,-6.1119,-6.1086,0.0,-5.9893,-5.8866,-5.8469,-5.7674,-5.668,-5.668,-5.6017,-5.5057,-5.5388,-5.5322,-5.5152,-5.6316,-5.668,-5.6614,-5.6249,-5.562,-5.5024,-5.5098,-5.4907,-5.4741,-5.5501,-5.6117,-5.6496,-5.6307,-5.6231,-5.6132,-5.562,-5.5819,-5.6017,-5.5587,-5.5819,-5.6117,-5.6117,-5.6415,-5.668,-5.668,-5.668,-5.6183,-5.4725,-5.3897,-5.3003,-5.1945,-5.0883,-5.0452,-5.1148,-5.0916,-5.085,-5.1181,-5.1214,-5.1247,-5.1315,-4.9922,-4.8796,-4.8133,-4.7305,-4.6941,-4.6974,-4.6941,-4.7106,-4.7504,-4.7835,-4.8001,-4.8001,-4.8001,-4.8001,-6.2105,-6.1634,-6.1434,-6.2376,-6.3273,-6.4025,-6.4492,-6.323,-6.2073,-6.2412,-6.0876,-5.9233,-5.8397,-5.8411,-5.9421,-6.2064,-6.1937,-6.1832,-6.2744,-6.3067,-6.3333,-6.3672,-6.4262,-6.4857,-6.5337,-6.5425,-6.5425,-6.5425,-6.5425,-6.5425,-6.5425,-6.5425,-6.5425,-6.5425,-6.5425,-6.5326,-6.5194,-6.4664,-6.4664,-6.516,-6.314,-6.252,-6.3017,-6.1682,-6.102,-6.0821,-6.0258,-5.9496,-5.8601,-5.8038,-5.7342,-5.668,-5.668,-5.6017,-5.499,-5.4622,-5.4725,-5.5189,-5.6316,-5.668,-5.6581,-5.5852,-5.5218,-5.4759,-5.4597,-5.4276,-5.408,-5.5132,-5.5256,-5.5152,-5.5483,-5.545,-5.5185,-5.4622,-5.5052,-5.545,-5.4854,-5.5355,-5.5885,-5.5885,-5.6316,-5.668,-5.668,-5.668,-5.6249,-5.492,-5.4162,-5.3202,-5.1943,-5.1015,-5.0518,-5.0717,-5.0551,-5.0452,-5.0452,-5.0452,-5.0618,-5.1015,-4.9988,-4.9226,-4.8862,-4.7769,-4.7338,-4.7736,-4.7371,-4.7338,-4.7736,-4.7934,-4.8001,-4.8001,-4.8001,-4.8001,-6.1896,-6.2512,-6.2693,-6.1317,-5.9941,-5.9895,-6.3729,-6.2847,-6.1433,-6.2093,-6.1559,-6.0068,-5.7085,-5.5795,-5.6069,-5.88,-6.0191,-6.1957,-6.4773,-6.5161,-6.5205,-6.5249,-6.5315,-6.5337,-6.5392,-6.5425,-6.5425,-6.5425,-6.5425,-6.5425,-6.5425,-6.5425,-6.5425,-6.5425,-6.5425,-6.5094,-6.4465,-6.4399,-6.4399,-6.4432,-6.2951,-6.2255,-6.2255,-6.145,-6.0721,-6.0092,-6.0026,-5.9198,-5.7873,-5.7806,-5.7342,-5.668,-5.668,-5.6614,-5.6382,-5.5024,-5.5388,-5.6547,-5.6647,-5.668,-5.6581,-5.5852,-5.5549,-5.5421,-5.4948,-5.4608,-5.4498,-5.4782,-5.4206,-5.3897,-5.5218,-5.5085,-5.4593,-5.449,-5.5052,-5.5582,-5.5516,-5.6117,-5.6614,-5.6614,-5.6647,-5.668,-5.668,-5.668,-5.6415,-5.5615,-5.4887,-5.4162,-5.3367,-5.2042,-5.1481,-5.2142,-5.1647,-5.1249,-5.1249,-5.1249,-5.0949,-5.032,-5.0187,-4.9525,-4.8133,-4.7968,-4.7636,-4.6974,-4.7603,-4.7603,-4.6974,-4.7669,-4.8001,-4.8001,-4.8001,-4.8001,-6.1253,-6.1417,-6.1462,-6.0928,-5.9138,-5.8776,-6.3401,-6.3448,-6.2531,-6.2876,-6.1888,-6.022,-5.7724,-5.7637,-5.8599,-6.0526,-6.2091,-6.3472,-6.4608,-6.516,-6.5425,-6.5425,-6.5425,-6.5425,-6.5425,-6.5425,-6.5425,-6.5425,-6.5425,-6.5425,-6.5425,-6.5425,-6.5425,-6.5425,-6.5425,-6.5094,-6.4399,-6.3978,-6.3514,-6.305,-6.2487,-6.1947,-6.1483,-6.0755,-6.0026,-5.9297,-5.8833,-5.8303,-5.774,-5.7309,-5.6945,-5.6647,-5.6216,-5.5752,-5.5322,-5.5218,-5.5554,-5.6084,-5.6514,-5.668,-5.6581,-5.5852,-5.5582,-5.5487,-5.48,-5.4232,-5.393,-5.4468,-5.3738,-5.3003,-5.3997,-5.3993,-5.3732,-5.3301,-5.4096,-5.4787,-5.4361,-5.5189,-5.6017,-5.6017,-5.6382,-5.668,-5.668,-5.668,-5.6448,-5.5681,-5.535,-5.492,-5.4158,-5.3235,-5.2539,-5.2407,-5.1313,-5.0618,-5.0618,-5.0618,-5.032,-4.9558,-4.9525,-4.9293,-4.873,-4.8233,-4.7868,-4.7603,-4.7868,-4.7868,-4.757,-4.7868,-4.8001,-4.8001,-4.8001,-4.8001,-6.0564,-6.0151,-5.9916,-6.0023,-5.874,-5.8533,-6.2666,-6.2802,-6.2359,-6.3437,-6.1566,-5.9198,-5.7491,-5.7973,-5.913,-6.0772,-6.2348,-6.3603,-6.4266,-6.4796,-6.516,-6.5392,-6.5425,-6.5425,-6.5425,-6.5425,-6.5425,-6.5425,-6.5425,-6.5425,-6.5425,-6.5425,-6.5425,-6.5425,-6.5194,-6.473,-6.4078,-6.3348,-6.2586,-6.1848,-6.1848,-6.145,-6.0755,-6.0225,-5.9463,-5.8502,-5.8005,-5.7674,-5.7409,-5.6912,-5.6547,-5.6316,-5.5819,-5.5284,-5.4887,-5.5383,-5.5747,-5.6017,-5.6514,-5.668,-5.6581,-5.5852,-5.5747,-5.5786,-5.4787,-5.4125,-5.3794,-5.4096,-5.3301,-5.2542,-5.297,-5.3069,-5.297,-5.2506,-5.3467,-5.4357,-5.3864,-5.4924,-5.5951,-5.5951,-5.6349,-5.668,-5.668,-5.668,-5.6514,-5.6017,-5.5747,-5.5416,-5.4887,-5.4192,-5.35,-5.2771,-5.1612,-5.0817,-5.0585,-5.0551,-5.0121,-4.916,-4.9094,-4.8995,-4.8763,-4.8498,-4.8365,-4.8365,-4.8365,-4.8365,-4.8365,-4.81,-4.8001,-4.8001,-4.8001,-4.8001,-5.9875,-5.9035,-5.842,-5.8383,-5.842,-5.9072,-6.1435,-6.0774,-6.0503,-6.3553,-6.0476,-5.6916,-5.5962,-5.5825,-5.6505,-5.8634,-6.0157,-6.1881,-6.4034,-6.4365,-6.463,-6.5326,-6.5425,-6.5425,-6.5425,-6.5425,-6.5425,-6.5425,-6.5425,-6.5425,-6.5425,-6.5425,-6.5425,-6.5425,-6.473,-6.4078,-6.3315,-6.2586,-6.1815,-6.1119,-6.1086,-6.0721,-5.9993,-5.9993,-5.9164,-5.7773,-5.7773,-5.7376,-5.668,-5.668,-5.6282,-5.5582,-5.5582,-5.5582,-5.5582,-5.5582,-5.6084,-5.668,-5.668,-5.668,-5.6581,-5.5852,-5.6117,-5.6415,-5.4957,-5.449,-5.4357,-5.3632,-5.2937,-5.2442,-5.2407,-5.2407,-5.2442,-5.2407,-5.35,-5.449,-5.449,-5.5653,-5.668,-5.668,-5.668,-5.668,-5.668,-5.668,-5.668,-5.668,-5.6084,-5.5582,-5.5582,-5.4953,-5.4229,-5.35,-5.2804,-5.2111,-5.1382,-5.1315,-5.0651,-4.9226,-4.9127,-4.8763,-4.8034,-4.873,-4.9094,-4.9094,-4.9127,-4.9127,-4.9127,-4.8365,-4.8001,-4.8001,-4.8001,-4.8001,-5.9039,-5.9753,-6.0412,-5.813,-5.9253,-6.0991,-6.1136,-6.1679,-6.2205,-6.2383,-6.0033,-5.7434,-5.5892,-5.6502,-5.7222,-5.7296,-5.9443,-6.1351,-6.198,-6.3405,-6.4465,-6.4664,-6.5127,-6.5425,-6.5425,-6.5425,-6.5425,-6.5425,-6.5425,-6.5425,-6.5425,-6.5425,-6.5425,-6.5425,-6.473,-6.4078,-6.3315,-6.2586,-6.1815,-6.1086,-6.0589,-5.9926,-5.9231,-5.9231,-5.8403,-5.7011,-5.7011,-5.6879,-5.668,-5.668,-5.6282,-5.5648,-5.6183,-5.6084,-5.5648,-5.6183,-5.6514,-5.668,-5.668,-5.668,-5.6647,-5.6448,-5.6514,-5.6614,-5.6183,-5.5686,-5.5118,-5.4394,-5.403,-5.3765,-5.3235,-5.35,-5.3765,-5.3235,-5.4229,-5.5251,-5.5251,-5.6017,-5.668,-5.668,-5.668,-5.668,-5.668,-5.668,-5.668,-5.668,-5.6514,-5.6183,-5.5648,-5.4953,-5.4229,-5.35,-5.2804,-5.231,-5.2111,-5.1614,-5.1116,-5.0651,-4.9657,-4.8763,-4.8034,-4.873,-4.9094,-4.9094,-4.9624,-4.9889,-4.9889,-4.9127,-4.8763,-4.8763,-4.8233,-4.8001,-5.9384,-6.0251,-6.1127,-5.9905,-6.1027,-6.2295,-6.1462,-6.2041,-6.2299,-6.0774,-5.8781,-5.6902,-5.5614,-5.5962,-5.6535,-5.6727,-5.8685,-6.0423,-6.102,-6.2742,-6.4034,-6.4365,-6.4995,-6.5425,-6.5425,-6.5425,-6.5425,-6.5425,-6.5425,-6.5425,-6.5425,-6.5425,-6.5425,-6.5425,-6.4465,-6.3736,-6.3315,-6.2278,-6.1384,-6.0655,-6.0225,-5.9463,-5.8469,-5.8469,-5.7806,-5.668,-5.668,-5.668,-5.668,-5.668,-5.6084,-5.5251,-5.6282,-5.6084,-5.5322,-5.6316,-5.668,-5.668,-5.668,-5.668,-5.668,-5.668,-5.668,-5.668,-5.668,-5.6183,-5.5483,-5.5052,-5.449,-5.3927,-5.3533,-5.3732,-5.3993,-5.3897,-5.4721,-5.5582,-5.5582,-5.6183,-5.668,-5.668,-5.668,-5.668,-5.668,-5.668,-5.668,-5.668,-5.668,-5.6514,-5.6084,-5.5156,-5.4361,-5.3861,-5.297,-5.2409,-5.2409,-5.2011,-5.1614,-5.1315,-5.0187,-4.9226,-4.8465,-4.8862,-4.926,-4.9525,-4.9988,-5.022,-5.022,-4.9458,-4.8961,-4.8663,-4.8498,-4.8431,-6.0503,-6.0774,-6.1298,-6.2811,-6.3128,-6.2911,-6.2159,-6.1833,-6.1068,-5.8928,-5.7199,-5.5899,-5.5302,-5.4789,-5.4995,-5.6616,-5.7891,-5.9198,-6.0688,-6.2146,-6.3372,-6.42,-6.4895,-6.5326,-6.5392,-6.5425,-6.5392,-6.5326,-6.5326,-6.5326,-6.5326,-6.5326,-6.5326,-6.5326,-6.4001,-6.3282,-6.3216,-6.1748,-6.0655,-5.9993,-5.986,-5.9098,-5.7806,-5.7806,-5.7376,-5.668,-5.668,-5.668,-5.668,-5.6614,-5.5819,-5.4759,-5.5984,-5.5686,-5.4655,-5.6017,-5.6514,-5.6581,-5.6581,-5.6614,-5.668,-5.668,-5.668,-5.668,-5.668,-5.6216,-5.5681,-5.5615,-5.4622,-5.3632,-5.3632,-5.3632,-5.3798,-5.456,-5.5152,-5.5615,-5.5681,-5.6216,-5.668,-5.668,-5.668,-5.668,-5.668,-5.668,-5.668,-5.668,-5.668,-5.668,-5.6614,-5.5421,-5.4523,-5.439,-5.3235,-5.244,-5.2409,-5.2409,-5.2111,-5.1448,-5.0717,-4.9988,-4.9226,-4.916,-4.9425,-5.0088,-5.0187,-5.022,-5.022,-4.9458,-4.8763,-4.8133,-4.8796,-4.9094,-6.0937,-6.2048,-6.3535,-6.3273,-6.273,-6.2223,-6.2014,-6.0557,-5.9015,-5.8449,-5.7548,-5.6619,-5.5791,-5.501,-5.4825,-5.5757,-5.6619,-5.7674,-5.9164,-6.0655,-6.2047,-6.3372,-6.4167,-6.4829,-6.5359,-6.5425,-6.5194,-6.463,-6.4597,-6.4597,-6.4597,-6.4597,-6.4597,-6.4597,-6.3736,-6.305,-6.2453,-6.0953,-6.0158,-5.9993,-5.8833,-5.8104,-5.7806,-5.7806,-5.7376,-5.668,-5.668,-5.668,-5.6647,-5.6084,-5.5648,-5.5317,-5.509,-5.4792,-5.456,-5.4858,-5.5355,-5.5852,-5.5852,-5.6216,-5.668,-5.668,-5.668,-5.668,-5.668,-5.6581,-5.6349,-5.5747,-5.535,-5.5118,-5.5118,-5.5118,-5.5322,-5.6051,-5.5918,-5.5747,-5.6349,-5.6581,-5.668,-5.668,-5.668,-5.668,-5.668,-5.668,-5.668,-5.668,-5.668,-5.6481,-5.5918,-5.5549,-5.492,-5.3765,-5.3367,-5.297,-5.2407,-5.2409,-5.2307,-5.2142,-5.1481,-5.0717,-4.9988,-4.9425,-4.9193,-4.9326,-4.9922,-5.022,-5.022,-4.9458,-4.9028,-4.8862,-4.9028,-4.9094,-6.1226,-6.2446,-6.3804,-6.4251,-6.3744,-6.2947,-6.2159,-6.0448,-5.8858,-5.8421,-5.71,-5.575,-5.5006,-5.4382,-5.4129,-5.4456,-5.5752,-5.6945,-5.774,-5.9728,-6.1516,-6.2652,-6.3703,-6.463,-6.5326,-6.5127,-6.4763,-6.4399,-6.4034,-6.3879,-6.3879,-6.3879,-6.3879,-6.3879,-6.3183,-6.2453,-6.1682,-6.0556,-5.9661,-5.8933,-5.8171,-5.7608,-5.7243,-5.7243,-5.7044,-5.668,-5.6316,-5.6183,-5.6117,-5.5388,-5.4854,-5.4523,-5.449,-5.4258,-5.403,-5.4357,-5.4953,-5.5549,-5.5185,-5.5786,-5.6614,-5.6282,-5.6183,-5.6249,-5.6581,-5.6448,-5.6183,-5.615,-5.5885,-5.5582,-5.5582,-5.5317,-5.5289,-5.6017,-5.615,-5.6216,-5.6614,-5.668,-5.668,-5.668,-5.668,-5.668,-5.668,-5.668,-5.668,-5.668,-5.6415,-5.6051,-5.5648,-5.4953,-5.4262,-5.35,-5.3102,-5.2771,-5.2442,-5.2409,-5.2409,-5.2409,-5.1713,-5.1149,-5.075,-5.0021,-4.9458,-4.9127,-4.9823,-5.022,-5.022,-4.9823,-4.9458,-4.9094,-4.9094,-4.9094,-6.1723,-6.2715,-6.3718,-6.5055,-6.4794,-6.3816,-6.2367,-6.0774,-5.9361,-5.8565,-5.6609,-5.4818,-5.4168,-5.3719,-5.3415,-5.34,-5.4924,-5.6249,-5.6647,-5.8899,-6.0887,-6.1881,-6.314,-6.4233,-6.4962,-6.4531,-6.4133,-6.4045,-6.3438,-6.3116,-6.3116,-6.3116,-6.3116,-6.3116,-6.2378,-6.1649,-6.092,-6.0059,-5.8999,-5.7806,-5.7541,-5.7011,-5.6316,-5.6316,-5.6382,-5.6448,-5.5752,-5.5383,-5.535,-5.4589,-5.3964,-5.3467,-5.3964,-5.3765,-5.3301,-5.393,-5.4589,-5.5118,-5.449,-5.5189,-5.6249,-5.5786,-5.5516,-5.5549,-5.6448,-5.6183,-5.5747,-5.6481,-5.6084,-5.545,-5.5752,-5.5156,-5.4688,-5.5549,-5.6249,-5.668,-5.668,-5.668,-5.668,-5.668,-5.668,-5.668,-5.668,-5.668,-5.668,-5.668,-5.6183,-5.5681,-5.5416,-5.4593,-5.3798,-5.3301,-5.2937,-5.2638,-5.2442,-5.2409,-5.2409,-5.2409,-5.1846,-5.1448,-5.1315,-5.0717,-5.0055,-4.9326,-4.9889,-5.022,-5.022,-5.0088,-4.9723,-4.9094,-4.9094,-4.9094,-6.3002,-6.4028,-6.4983,-6.4657,-6.3961,-6.3128,-6.2223,-6.0774,-5.9361,-5.8565,-5.703,-5.5616,-5.4813,-5.4074,-5.3551,-5.341,-5.3665,-5.4527,-5.6415,-5.7574,-5.8999,-6.102,-6.198,-6.2785,-6.3504,-6.3514,-6.3183,-6.2553,-6.242,-6.2354,-6.2354,-6.2354,-6.2354,-6.2354,-6.1616,-6.0887,-6.0158,-5.8767,-5.7972,-5.7773,-5.6514,-5.5483,-5.4792,-5.4792,-5.5118,-5.5719,-5.499,-5.4659,-5.4589,-5.3864,-5.35,-5.3367,-5.287,-5.2605,-5.2539,-5.2638,-5.3102,-5.3699,-5.3599,-5.4096,-5.4891,-5.5416,-5.5152,-5.4924,-5.6282,-5.6183,-5.5747,-5.6481,-5.5719,-5.4957,-5.6216,-5.5521,-5.4858,-5.6216,-5.6614,-5.668,-5.668,-5.668,-5.668,-5.668,-5.668,-5.668,-5.668,-5.668,-5.668,-5.668,-5.6614,-5.6084,-5.4825,-5.5587,-5.5289,-5.2771,-5.3566,-5.3732,-5.2473,-5.2409,-5.2409,-5.2409,-5.231,-5.1978,-5.1348,-5.1216,-5.0817,-5.0088,-5.0154,-5.022,-5.022,-4.9558,-4.9193,-4.9094,-4.9094,-4.9094,-6.3793,-6.4154,-6.4533,-6.5482,-6.4794,-6.378,-6.3418,-6.2114,-6.0738,-5.9905,-5.8474,-5.6858,-5.5284,-5.4195,-5.345,-5.3023,-5.3172,-5.3765,-5.4725,-5.6183,-5.7839,-5.9661,-6.0887,-6.2013,-6.3216,-6.2951,-6.2553,-6.2221,-6.1815,-6.1583,-6.1583,-6.1583,-6.1384,-6.0953,-6.0655,-5.9926,-5.8767,-5.8104,-5.7376,-5.6547,-5.5483,-5.4787,-5.4456,-5.3699,-5.393,-5.492,-5.4192,-5.3861,-5.3831,-5.3135,-5.2837,-5.2804,-5.2506,-5.2409,-5.2409,-5.2409,-5.2804,-5.3367,-5.297,-5.3831,-5.5085,-5.4986,-5.4754,-5.4792,-5.6249,-5.5918,-5.5118,-5.5885,-5.562,-5.5251,-5.5918,-5.562,-5.535,-5.6448,-5.668,-5.668,-5.668,-5.668,-5.668,-5.668,-5.668,-5.668,-5.668,-5.668,-5.668,-5.668,-5.6349,-5.5852,-5.5185,-5.5322,-5.499,-5.3699,-5.3765,-5.3632,-5.3003,-5.2605,-5.2409,-5.2409,-5.2409,-5.2241,-5.1945,-5.1945,-5.1744,-5.1446,-5.1015,-5.0817,-5.0817,-5.0088,-4.9723,-4.9723,-4.8862,-4.8498,-6.373,-6.3539,-6.3557,-6.5656,-6.512,-6.4178,-6.4613,-6.3454,-6.2078,-6.1281,-6.0013,-5.8394,-5.6364,-5.5053,-5.3954,-5.3031,-5.3213,-5.3437,-5.34,-5.5156,-5.6912,-5.8171,-5.9827,-6.1251,-6.2345,-6.2113,-6.1914,-6.1914,-6.1417,-6.1119,-6.1119,-6.1119,-6.0854,-6.0291,-5.9926,-5.9198,-5.8071,-5.7508,-5.6614,-5.5284,-5.4556,-5.4162,-5.393,-5.287,-5.297,-5.393,-5.34,-5.3169,-5.3102,-5.2605,-5.2409,-5.2409,-5.2409,-5.2409,-5.2409,-5.2409,-5.2705,-5.3069,-5.2572,-5.3434,-5.4725,-5.4324,-5.4229,-5.4527,-5.5984,-5.5521,-5.4622,-5.5383,-5.5317,-5.5052,-5.5251,-5.5317,-5.5483,-5.6249,-5.6547,-5.668,-5.668,-5.668,-5.668,-5.668,-5.668,-5.668,-5.668,-5.668,-5.668,-5.668,-5.6216,-5.5781,-5.5615,-5.5289,-5.4924,-5.456,-5.403,-5.3632,-5.3434,-5.2771,-5.2409,-5.2409,-5.2409,-5.2409,-5.2409,-5.2409,-5.2409,-5.2409,-5.1879,-5.158,-5.158,-5.085,-5.0485,-5.0452,-4.916,-4.8564,-6.2321,-6.2214,-6.2467,-6.4106,-6.3889,-6.3635,-6.5192,-6.4287,-6.2911,-6.2087,-6.1254,-6.0224,-5.878,-5.7152,-5.5554,-5.3908,-5.369,-5.3618,-5.3434,-5.4688,-5.5951,-5.6713,-5.8734,-6.0092,-6.0158,-6.0788,-6.1152,-6.1152,-6.1119,-6.1119,-6.1119,-6.1119,-6.1086,-6.1053,-5.9694,-5.8933,-5.8833,-5.6779,-5.5317,-5.4523,-5.3831,-5.3135,-5.2542,-5.2442,-5.2407,-5.2542,-5.244,-5.244,-5.2475,-5.2407,-5.2409,-5.2409,-5.2409,-5.2409,-5.2409,-5.2409,-5.2407,-5.2475,-5.2407,-5.244,-5.2638,-5.3268,-5.3467,-5.3732,-5.5185,-5.5118,-5.4622,-5.5383,-5.4589,-5.3699,-5.4394,-5.4556,-5.4721,-5.545,-5.6183,-5.668,-5.668,-5.668,-5.668,-5.668,-5.668,-5.668,-5.668,-5.668,-5.668,-5.668,-5.6647,-5.6382,-5.5681,-5.6183,-5.6051,-5.4659,-5.4456,-5.4162,-5.3467,-5.2771,-5.2409,-5.2409,-5.2409,-5.2409,-5.2409,-5.2409,-5.2409,-5.2409,-5.234,-5.2343,-5.2343,-5.1614,-5.1249,-5.1249,-5.0452,-5.0088,-6.299,-6.2275,-6.1742,-6.3375,-6.3075,-6.2612,-6.3275,-6.332,-6.2947,-6.2159,-6.1761,-6.1415,-6.1026,-5.9118,-5.7132,-5.5689,-5.4872,-5.4222,-5.3654,-5.3937,-5.4659,-5.5852,-5.7111,-5.8436,-5.986,-6.0258,-6.0589,-6.1086,-6.1119,-6.1119,-6.1119,-6.0655,-6.039,-6.039,-5.9429,-5.8436,-5.7475,-5.6713,-5.5454,-5.3798,-5.3533,-5.3036,-5.2409,-5.2409,-5.2409,-5.2409,-5.2409,-5.2409,-5.2409,-5.2409,-5.2409,-5.2409,-5.2409,-5.2409,-5.2409,-5.2409,-5.2409,-5.2409,-5.2409,-5.2672,-5.3069,-5.3334,-5.3732,-5.4258,-5.5284,-5.5052,-5.4556,-5.4787,-5.4195,-5.3599,-5.4291,-5.449,-5.4825,-5.6017,-5.6514,-5.668,-5.668,-5.668,-5.668,-5.668,-5.668,-5.668,-5.668,-5.668,-5.668,-5.668,-5.668,-5.6581,-5.6349,-5.6514,-5.6481,-5.5984,-5.5487,-5.5085,-5.4821,-5.3732,-5.3036,-5.3036,-5.2638,-5.2409,-5.2409,-5.2409,-5.2409,-5.2409,-5.2409,-5.2409,-5.2409,-5.168,-5.1315,-5.1282,-5.0551,-5.022,-6.2847,-6.1848,-6.1173,-6.3276,-6.2504,-6.1724,-6.343,-6.352,-6.3256,-6.3237,-6.2802,-6.251,-6.2867,-6.1321,-5.9568,-5.8166,-5.6909,-5.5754,-5.494,-5.4251,-5.4367,-5.5796,-5.6601,-5.7839,-5.9827,-6.0225,-6.0589,-6.1086,-6.1119,-6.1119,-6.1119,-6.0655,-6.0158,-5.9661,-5.9164,-5.8071,-5.6349,-5.6084,-5.509,-5.34,-5.3169,-5.2837,-5.2409,-5.2409,-5.2409,-5.2409,-5.2409,-5.2409,-5.2409,-5.2409,-5.2409,-5.2409,-5.2409,-5.2409,-5.2409,-5.2409,-5.2409,-5.2409,-5.2409,-5.2672,-5.3069,-5.3069,-5.3566,-5.4229,-5.4688,-5.449,-5.4125,-5.4125,-5.3632,-5.3169,-5.3665,-5.4162,-5.4891,-5.6349,-5.668,-5.668,-5.668,-5.668,-5.668,-5.668,-5.668,-5.668,-5.668,-5.668,-5.668,-5.668,-5.668,-5.668,-5.668,-5.668,-5.668,-5.668,-5.6051,-5.5582,-5.5582,-5.4456,-5.3798,-5.3798,-5.3102,-5.2738,-5.2738,-5.2506,-5.2409,-5.2409,-5.2409,-5.2409,-5.2409,-5.1912,-5.168,-5.168,-5.1148,-5.0949,0.0,0.0,0.0,-6.3693,-6.2076,-6.1022,-6.5674,-6.4984,-6.3693,-6.5185,-6.4279,-6.3482,-6.4287,-6.3816,-6.2839,-6.1389,-5.9768,-5.8314,-5.7228,-5.5784,-5.5281,-5.6526,-5.7344,-5.8376,-5.986,-6.0655,-6.1086,-6.1119,-6.1119,-6.1119,-6.1119,-6.1119,-6.0423,-5.8933,-5.8933,-5.7873,-5.5615,-5.4887,-5.4162,-5.3367,-5.2705,-5.2409,-5.2409,-5.2409,-5.2409,-5.2409,-5.2409,-5.2409,-5.2409,-5.2409,-5.2409,-5.2409,-5.2409,-5.2409,-5.2409,-5.2409,-5.2409,-5.2409,-5.2409,-5.2409,-5.2409,-5.2409,-5.2837,-5.34,-5.34,-5.3434,-5.3434,-5.3434,-5.2937,-5.2442,-5.2475,-5.35,-5.4957,-5.6349,-5.668,-5.668,-5.668,-5.668,-5.668,-5.668,-5.668,-5.668,-5.668,-5.668,-5.668,-5.668,-5.668,-5.668,-5.668,-5.668,-5.668,-5.668,-5.6084,-5.5615,-5.5615,-5.4953,-5.4523,-5.4523,-5.3864,-5.3434,-5.3434,-5.2804,-5.2475,-5.2442,-5.2442,-5.2442,-5.2409,-5.2409,-5.2409,-5.2409,-5.2409,-5.2409,-6.1147,0.0,0.0,0.0,0.0,0.0,-6.0879,-6.1084,-6.1355,-6.2858,-6.323,-6.371,-6.504,-6.5555,-6.5655,-6.5262,-6.2883,-6.0587,-5.9214,-5.8092,-5.7427,-5.7593,-5.7814,-5.8484,-5.9875,-6.0191,-6.0523,0.0,-6.1119,-6.1119,-6.1119,-6.1119,-6.0423,-5.8933,-5.9429,-5.8403,-5.5615,-5.5383,-5.4427,-5.2672,-5.2473,-5.2409,-5.2409,-5.2409,-5.2409,-5.2409,-5.2409,-5.2409,-5.2409,-5.2409,-5.2409,-5.2409,-5.2409,-5.2409,-5.2409,-5.2409,-5.2409,-5.2409,-5.2409,-5.2409,-5.2409,-5.2409,-5.2837,-5.34,-5.34,-5.3798,-5.4192,-5.4192,-5.3699,-5.3268,-5.3798,-5.499,-5.6183,-5.6581,-5.668,-5.668,-5.668,-5.668,-5.668,-5.668,-5.668,-5.668,-5.668,-5.668,-5.668,-5.668,-5.668,-5.668,-5.668,-5.668,-5.668,-5.668,-5.6514,-5.6382,-5.6382,-5.5719,-5.5284,-5.5284,-5.4589,-5.4192,-5.4192,-5.403,-5.3665,-5.3135,-5.3135,-5.287,-5.2409,-5.2409,-5.2409,-5.2409,-5.2409,-5.2409,-6.0643,-6.0051,-5.9438,-6.077,0.0,0.0,-6.1014,-6.1182,-6.1589,-6.3665,-6.4218,-6.4662,-6.591,-6.6207,-6.6424,-6.675,-6.5232,-6.3447,-6.1849,-6.0344,-5.9391,-5.9389,-5.9136,-5.9363,-6.034,-6.0456,-6.0655,-6.1086,-6.1119,-6.1119,-6.1119,-6.1384,-6.0887,-5.9396,-5.9164,-5.7972,-5.5615,-5.4986,-5.393,-5.2409,-5.2409,-5.2409,-5.2409,-5.2409,-5.2409,-5.2409,-5.2409,-5.2409,-5.2409,-5.2409,-5.2409,-5.2409,-5.2409,-5.2409,-5.2409,-5.2409,-5.2409,-5.2409,-5.2409,-5.2409,-5.2409,-5.2409,-5.2638,-5.297,-5.297,-5.35,-5.4026,-5.4026,-5.3964,-5.4063,-5.4754,-5.562,-5.6316,-5.6614,-5.668,-5.668,-5.668,-5.668,-5.668,-5.668,-5.668,-5.668,-5.668,-5.668,-5.668,-5.668,-5.668,-5.668,-5.668,-5.668,-5.668,-5.668,-5.668,-5.668,-5.668,-5.6316,-5.6084,-5.6084,-5.5388,-5.4953,-5.4953,-5.4655,-5.4328,-5.3897,-5.3864,-5.3533,-5.2804,-5.2539,-5.2409,-5.2409,-5.2409,-5.2409,-6.0052,-6.004,-6.0056,-6.1615,-6.0391,0.0,-6.3225,-6.2907,-6.2682,-6.5488,-6.5504,-6.525,-6.6018,-6.5685,-6.5431,-6.5946,-6.6417,-6.6141,-6.4578,-6.2599,-6.141,-6.157,-6.1005,-6.0732,-6.1209,-6.1127,-6.1119,-6.1119,-6.1185,-6.1185,-6.1119,-6.1781,-6.1516,-6.0059,-5.8568,-5.7077,-5.5615,-5.4063,-5.3003,-5.2409,-5.2343,-5.2343,-5.2409,-5.2409,-5.2409,-5.2409,-5.2409,-5.2409,-5.2409,-5.2409,-5.2409,-5.2409,-5.2409,-5.2409,-5.2409,-5.2409,-5.2409,-5.2409,-5.2409,-5.2409,-5.2409,-5.2409,-5.2409,-5.2409,-5.2409,-5.287,-5.34,-5.34,-5.396,-5.4721,-5.5317,-5.5516,-5.5819,-5.6514,-5.668,-5.668,-5.668,-5.668,-5.668,-5.668,-5.668,-5.668,-5.668,-5.668,-5.668,-5.668,-5.668,-5.668,-5.668,-5.668,-5.668,-5.668,-5.668,-5.668,-5.668,-5.668,-5.668,-5.668,-5.6084,-5.5714,-5.5714,-5.5085,-5.4725,-5.4589,-5.4523,-5.4162,-5.34,-5.2705,-5.2409,-5.2409,-5.2409,-5.2409,-5.8885,-5.89,-5.8939,-5.9393,-5.9225,0.0,-5.9115,-5.8896,-5.9201,-6.1098,-6.1277,-6.1345,-6.2146,-6.2692,-6.2656,-6.1501,-6.3966,-6.5851,-6.5381,-6.4968,-6.4405,-6.3722,-6.2786,-6.2249,-6.2222,-6.1513,-6.1119,-6.1119,-6.1649,-6.1715,-6.1152,-6.1781,-6.1516,-6.0059,-5.8568,-5.7077,-5.5615,-5.3599,-5.2506,-5.2373,-5.1812,-5.1846,-5.2409,-5.2409,-5.2409,-5.2409,-5.2409,-5.2409,-5.2409,-5.2409,-5.2409,-5.2409,-5.2409,-5.2409,-5.2409,-5.2409,-5.2409,-5.2409,-5.2409,-5.2409,-5.2409,-5.2409,-5.2409,-5.2409,-5.2409,-5.287,-5.34,-5.34,-5.4357,-5.5284,-5.4821,-5.5152,-5.5819,-5.6514,-5.668,-5.668,-5.668,-5.668,-5.668,-5.668,-5.668,-5.668,-5.668,-5.668,-5.668,-5.668,-5.668,-5.668,-5.668,-5.668,-5.668,-5.668,-5.668,-5.668,-5.668,-5.668,-5.668,-5.668,-5.6547,-5.6481,-5.6481,-5.6349,-5.5984,-5.5383,-5.4787,-5.4162,-5.34,-5.2705,-5.2409,-5.2409,-5.2409,-5.2409,-5.9263,-5.9444,-5.9636,-5.9441,-5.9381,0.0,0.0,-5.8847,-5.9235,-6.0799,-6.1101,-6.1101,-6.1022,-6.1376,-6.1428,-6.0627,-6.2776,-6.4391,-6.4048,-6.5605,-6.6452,-6.5465,-6.4584,-6.3659,-6.257,-6.2048,-6.1595,-6.1161,-6.2113,-6.2453,-6.1682,-6.2354,-6.2255,-6.1119,-5.8933,-5.7276,-5.6183,-5.3997,-5.2705,-5.2409,-5.2045,-5.2045,-5.2409,-5.2409,-5.2409,-5.2409,-5.2409,-5.2409,-5.2409,-5.2409,-5.2409,-5.2409,-5.2409,-5.2409,-5.2409,-5.2409,-5.2409,-5.2409,-5.2409,-5.2409,-5.2409,-5.2409,-5.2409,-5.2409,-5.2409,-5.3135,-5.4129,-5.4858,-5.5322,-5.5516,-5.5118,-5.5317,-5.5681,-5.6084,-5.6415,-5.668,-5.668,-5.668,-5.668,-5.668,-5.668,-5.668,-5.668,-5.668,-5.668,-5.668,-5.668,-5.668,-5.668,-5.668,-5.668,-5.668,-5.668,-5.668,-5.668,-5.668,-5.668,-5.668,-5.668,-5.668,-5.668,-5.668,-5.6514,-5.615,-5.509,-5.449,-5.449,-5.3434,-5.2705,-5.2409,-5.2409,-5.2409,-5.959,-6.0056,-6.0646,-5.9874,-5.9619,-5.9521,0.0,0.0,0.0,-6.0752,-6.1168,-6.1074,-6.0181,-6.0223,-6.03,-5.9983,-6.1577,-6.2631,-6.2068,-6.5093,-6.7005,-6.607,-6.5604,-6.4734,-6.3002,-6.2491,-6.1975,-6.1368,-6.2414,-6.2855,-6.2221,-6.2917,-6.2917,-6.2022,-5.9231,-5.7442,-5.668,-5.4394,-5.2937,-5.2409,-5.2277,-5.2277,-5.2409,-5.2241,-5.2277,-5.2409,-5.2277,-5.2277,-5.2409,-5.2409,-5.2409,-5.2409,-5.2409,-5.2409,-5.2409,-5.2409,-5.2409,-5.2409,-5.2409,-5.2409,-5.2409,-5.2409,-5.2409,-5.2407,-5.2539,-5.34,-5.456,-5.5719,-5.5752,-5.5383,-5.5383,-5.5483,-5.5615,-5.5747,-5.6282,-5.668,-5.668,-5.668,-5.668,-5.668,-5.668,-5.668,-5.668,-5.668,-5.668,-5.668,-5.668,-5.668,-5.668,-5.668,-5.668,-5.668,-5.668,-5.668,-5.668,-5.668,-5.668,-5.668,-5.668,-5.668,-5.668,-5.668,-5.668,-5.668,-5.5521,-5.5156,-5.5582,-5.439,-5.34,-5.2572,-5.2572,-5.2506,-5.8221,-5.9186,-6.0448,-5.8953,-5.8656,-5.8394,-5.7097,0.0,-5.6901,-5.7308,0.0,-5.8055,-5.7227,0.0,0.0,-5.6287,-5.9164,-6.1332,-6.0578,-6.3162,-6.4876,-6.403,-6.4787,-6.4986,-6.3978,-6.2404,-6.163,-6.2049,-6.23,-6.2347,-6.223,-6.2917,-6.2643,-6.1285,-5.8999,-5.7442,-5.668,-5.3897,-5.2509,-5.2409,-5.1746,-5.1779,-5.2409,-5.1746,-5.1779,-5.234,-5.1713,-5.1812,-5.2409,-5.2409,-5.2409,-5.2409,-5.2409,-5.2409,-5.2409,-5.2409,-5.2409,-5.2409,-5.2409,-5.2409,-5.2409,-5.2409,-5.2409,-5.2506,-5.3102,-5.34,-5.3566,-5.3732,-5.4195,-5.4589,-5.4589,-5.5085,-5.5747,-5.6415,-5.6614,-5.668,-5.668,-5.668,-5.668,-5.668,-5.668,-5.668,-5.668,-5.668,-5.668,-5.668,-5.668,-5.668,-5.668,-5.668,-5.668,-5.668,-5.668,-5.668,-5.668,-5.668,-5.668,-5.668,-5.668,-5.668,-5.668,-5.668,-5.668,-5.668,-5.6514,-5.6183,-5.5582,-5.5416,-5.4622,-5.3301,-5.3301,-5.297,-5.859,-5.9844,-6.1272,-6.0295,-5.9641,-5.8928,-5.7521,-5.6426,-5.5856,-5.6423,0.0,0.0,0.0,0.0,0.0,0.0,-5.847,-5.914,-5.8943,0.0,-6.2417,-6.3464,0.0,0.0,-6.2809,-6.1973,-6.1525,-6.1575,-6.2066,-6.2352,-6.2197,-6.2917,-6.2808,-6.1748,-5.9595,-5.8071,-5.7342,-5.5289,-5.3831,-5.297,-5.2672,-5.2473,-5.2376,-5.1647,-5.1481,-5.1746,-5.0982,-5.1082,-5.1779,-5.1779,-5.2011,-5.2409,-5.2409,-5.2409,-5.2409,-5.2409,-5.2409,-5.2409,-5.2409,-5.2409,-5.2409,-5.2409,-5.2409,-5.2506,-5.3202,-5.34,-5.35,-5.393,-5.4258,-5.449,-5.449,-5.5019,-5.5648,-5.5984,-5.6382,-5.668,-5.668,-5.668,-5.668,-5.668,-5.668,-5.668,-5.668,-5.668,-5.668,-5.668,-5.668,-5.668,-5.668,-5.668,-5.668,-5.668,-5.668,-5.668,-5.668,-5.668,-5.668,-5.668,-5.668,-5.668,-5.668,-5.668,-5.668,-5.668,-5.6282,-5.6117,-5.6249,-5.5819,-5.5284,-5.4655,-5.3798,-5.3036,-5.8658,-6.0015,-6.1479,-6.0711,-5.9852,-5.8833,-5.747,-5.6168,-5.5405,-5.6071,-5.6593,0.0,0.0,0.0,-5.7836,-5.8786,0.0,-5.7995,-5.801,-5.9018,-6.0357,-6.189,-6.2605,0.0,0.0,-6.1317,-6.1112,-6.088,-6.1385,-6.1723,-6.1899,-6.2378,-6.2444,-6.1914,-5.9926,-5.8535,-5.7806,-5.6349,-5.4854,-5.34,-5.34,-5.3036,-5.2376,-5.1647,-5.1315,-5.1282,-5.0518,-5.0618,-5.1315,-5.1315,-5.1746,-5.2409,-5.2409,-5.2409,-5.2409,-5.2409,-5.2409,-5.2409,-5.2409,-5.2409,-5.2409,-5.2409,-5.2409,-5.2506,-5.3202,-5.3268,-5.3301,-5.403,-5.4324,-5.449,-5.449,-5.5222,-5.5918,-5.5918,-5.6316,-5.668,-5.668,-5.668,-5.668,-5.668,-5.668,-5.668,-5.668,-5.668,-5.668,-5.668,-5.668,-5.668,-5.668,-5.668,-5.668,-5.668,-5.668,-5.668,-5.668,-5.668,-5.668,-5.668,-5.668,-5.668,-5.668,-5.668,-5.668,-5.668,-5.6183,-5.6183,-5.668,-5.6183,-5.5719,-5.5251,-5.4192,-5.3334,0.0,0.0,0.0,-5.9061,0.0,0.0,0.0,0.0,-5.5418,0.0,0.0,0.0,0.0,0.0,-5.9636,-5.8932,-5.8884,0.0,0.0,-5.8707,-5.8964,-5.8253,-6.0005,0.0,0.0,-6.0313,-5.9987,-6.0301,-5.9806,-6.0007,-6.1111,-6.1152,-6.1152,-6.1152,-5.9694,-5.8535,-5.7806,-5.6349,-5.4854,-5.34,-5.34,-5.3036,-5.2376,-5.1647,-5.1315,-5.1282,-5.0518,-5.0618,-5.1315,-5.1315,-5.1746,-5.2409,-5.2409,-5.2409,-5.2409,-5.2409,-5.2409,-5.2409,-5.2409,-5.2409,-5.2409,-5.2409,-5.2409,-5.2506,-5.3202,-5.2937,-5.2572,-5.3268,-5.3964,-5.449,-5.449,-5.5587,-5.6647,-5.6647,-5.668,-5.668,-5.668,-5.668,-5.668,-5.668,-5.668,-5.668,-5.668,-5.668,-5.668,-5.668,-5.668,-5.668,-5.668,-5.668,-5.668,-5.668,-5.668,-5.668,-5.668,-5.668,-5.668,-5.668,-5.668,-5.668,-5.668,-5.668,-5.668,-5.668,-5.668,-5.668,-5.668,-5.668,-5.5918,-5.4523,-5.4494,-5.4059,0.0,0.0,-6.0448,-5.9757,0.0,0.0,0.0,0.0,0.0,0.0,0.0,0.0,0.0,0.0,-5.8919,-5.9725,-5.8564,-5.7657,0.0,-5.7776,-5.7519,-5.7262,-5.9188,-6.0267,0.0,0.0,-5.968,-5.9461,-5.9286,-5.9523,-6.0306,-6.0854,-6.1119,-6.1119,-5.9661,-5.8767,-5.8535,-5.7044,-5.5587,-5.4162,-5.4162,-5.3533,-5.2376,-5.1647,-5.1315,-5.1249,-4.9988,-4.9889,-5.0585,-5.0585,-5.1015,-5.1746,-5.221,-5.2409,-5.2409,-5.2409,-5.2409,-5.2409,-5.2409,-5.2409,-5.2409,-5.2409,-5.2409,-5.2407,-5.2672,-5.2572,-5.2475,-5.2672,-5.3599,-5.449,-5.449,-5.5587,-5.668,-5.668,-5.668,-5.668,-5.668,-5.668,-5.668,-5.668,-5.668,-5.668,-5.668,-5.668,-5.668,-5.668,-5.668,-5.668,-5.668,-5.668,-5.668,-5.668,-5.668,-5.668,-5.668,-5.668,-5.668,-5.668,-5.668,-5.668,-5.668,-5.668,-5.668,-5.668,-5.668,-5.668,-5.668,-5.668,-5.6448,-5.5951,-5.5487,-5.4556,-5.7081,-5.8493,0.0,-5.9491,-5.9299,0.0,-5.6858,0.0,-5.5137,0.0,0.0,0.0,0.0,0.0,0.0,0.0,0.0,0.0,0.0,-5.7556,-5.7226,-5.7226,-5.8527,-5.9249,-5.8773,-5.8676,-5.8483,-5.8079,-5.8014,-5.8153,0.0,-5.9624,-6.0456,-6.0721,-5.9794,-5.9164,-5.8899,-5.7674,-5.6216,-5.449,-5.449,-5.3765,-5.2409,-5.1912,-5.138,-5.085,-4.9889,-4.9624,-4.9856,-5.0088,-5.0618,-5.1382,-5.2111,-5.2409,-5.2409,-5.2409,-5.2409,-5.2409,-5.2409,-5.2539,-5.2705,-5.2509,-5.2539,-5.2705,-5.244,-5.2409,-5.2475,-5.2672,-5.3599,-5.4556,-5.4821,-5.5786,-5.668,-5.668,-5.668,-5.668,-5.668,-5.668,-5.668,-5.668,-5.668,-5.668,-5.668,-5.668,-5.668,-5.668,-5.668,-5.668,-5.668,-5.668,-5.6779,-5.7044,-5.6846,-5.6812,-5.7044,-5.6846,-5.6812,-5.7044,-5.6846,-5.668,-5.668,-5.668,-5.6945,-5.7475,-5.6945,-5.6945,-5.7475,-5.6945,-5.6547,-5.6316,-5.5852,-5.5085]},{"header":{"parameterUnit":"m.s-1","parameterCategory":1,"la1":30.6,"la2":29.2853,"lo1":-89.7004,"lo2":-87.6739,"dy":0.0162,"dx":0.0183,"nx":112,"ny":82,"refTime":"2023-04-04T06:00:00:Z","depth":0,"parameterNumber":3,"parameterNumberName":"V-component_of_WINDS"},"data":[0.0,0.0,0.0,0.0,0.0,0.0,0.0,0.0,0.0,0.0,0.0,0.0,0.0,0.0,0.0,0.0,0.0,0.0,0.0,0.0,0.0,0.0,0.0,0.0,0.0,0.0,0.0,0.0,0.0,0.0,0.0,0.0,0.0,0.0,0.0,0.0,0.0,0.0,0.0,0.0,0.0,0.0,0.0,0.0,0.0,0.0,0.0,0.0,0.0,0.0,0.0,0.0,0.0,0.0,0.0,0.0,0.0,0.0,0.0,0.0,0.0,0.0,0.0,0.0,0.0,0.0,0.0,0.0,0.0,0.0,0.0,0.0,0.0,0.0,0.0,0.0,0.0,0.0,0.0,0.0,0.0,0.0,0.0,0.0,0.0,0.0,0.0,0.0,0.0,0.0,2.3981,2.4516,2.3525,2.2134,2.0481,1.8694,1.7557,1.7187,0.0,0.0,0.0,0.0,0.0,0.0,0.0,0.0,0.0,0.0,0.0,0.0,0.0,0.0,0.0,0.0,0.0,0.0,0.0,0.0,0.0,0.0,0.0,0.0,0.0,0.0,0.0,0.0,0.0,0.0,0.0,0.0,0.0,0.0,0.0,0.0,0.0,0.0,0.0,0.0,0.0,0.0,0.0,0.0,0.0,0.0,0.0,0.0,0.0,0.0,0.0,0.0,0.0,0.0,0.0,0.0,0.0,0.0,0.0,0.0,0.0,0.0,0.0,0.0,0.0,0.0,0.0,0.0,0.0,0.0,0.0,0.0,0.0,0.0,0.0,0.0,0.0,0.0,0.0,0.0,0.0,0.0,0.0,0.0,0.0,0.0,0.0,0.0,0.0,0.0,0.0,0.0,0.0,0.0,0.0,0.0,0.0,0.0,0.0,0.0,0.0,0.0,0.0,0.0,2.3901,2.4235,2.3642,2.3012,2.2337,2.0569,1.924,1.8735,0.0,0.0,0.0,0.0,0.0,0.0,0.0,0.0,0.0,0.0,0.0,0.0,0.0,0.0,0.0,0.0,0.0,0.0,0.0,0.0,0.0,0.0,0.0,0.0,0.0,0.0,0.0,0.0,0.0,0.0,0.0,0.0,0.0,0.0,0.0,0.0,0.0,0.0,0.0,0.0,0.0,0.0,0.0,0.0,0.0,0.0,0.0,0.0,0.0,0.0,0.0,0.0,0.0,0.0,0.0,0.0,0.0,0.0,0.0,0.0,0.0,0.0,0.0,0.0,0.0,0.0,0.0,0.0,0.0,0.0,0.0,0.0,0.0,0.0,0.0,0.0,0.0,0.0,0.0,0.0,0.0,0.0,0.0,0.0,0.0,0.0,0.0,0.0,0.0,0.0,0.0,0.0,0.0,0.0,0.0,0.0,0.0,0.0,0.0,0.0,0.0,0.0,0.0,2.3474,2.3888,2.4168,2.4269,2.4278,2.4198,2.2484,2.1275,2.0998,2.0124,0.0,0.0,0.0,0.0,0.0,0.0,0.0,0.0,0.0,0.0,0.0,0.0,0.0,0.0,0.0,0.0,0.0,0.0,0.0,0.0,0.0,0.0,0.0,0.0,0.0,0.0,0.0,0.0,0.0,0.0,0.0,0.0,0.0,0.0,0.0,0.0,0.0,0.0,0.0,0.0,0.0,0.0,0.0,0.0,0.0,0.0,0.0,0.0,0.0,0.0,0.0,0.0,0.0,0.0,0.0,0.0,0.0,0.0,0.0,0.0,0.0,0.0,0.0,0.0,0.0,0.0,0.0,0.0,0.0,0.0,0.0,0.0,0.0,0.0,0.0,0.0,0.0,0.0,0.0,0.0,0.0,0.0,0.0,0.0,0.0,0.0,0.0,0.0,0.0,0.0,0.0,0.0,0.0,0.0,0.0,0.0,0.0,0.0,0.0,0.0,0.0,0.0,2.3253,2.3795,2.417,2.4804,2.5214,2.5442,2.4086,2.324,2.324,2.298,0.0,0.0,0.0,0.0,0.0,0.0,0.0,0.0,0.0,0.0,0.0,0.0,0.0,0.0,0.0,0.0,0.0,0.0,0.0,0.0,0.0,0.0,0.0,0.0,0.0,0.0,0.0,0.0,0.0,0.0,0.0,0.0,0.0,0.0,0.0,0.0,0.0,0.0,0.0,0.0,0.0,0.0,0.0,0.0,0.0,0.0,0.0,0.0,0.0,0.0,0.0,0.0,0.0,0.0,0.0,0.0,0.0,0.0,0.0,0.0,0.0,0.0,0.0,0.0,0.0,0.0,0.0,0.0,0.0,0.0,0.0,0.0,0.0,0.0,0.0,0.0,0.0,0.0,0.0,0.0,0.0,0.0,0.0,0.0,0.0,0.0,0.0,0.0,0.0,0.0,0.0,0.0,0.0,0.0,0.0,0.0,0.0,0.0,0.0,0.0,0.0,0.0,2.3321,2.337,2.4275,2.4878,2.5193,2.522,2.5005,2.4927,2.4927,2.4648,0.0,0.0,0.0,0.0,0.0,0.0,0.0,0.0,0.0,0.0,0.0,0.0,0.0,0.0,0.0,0.0,0.0,0.0,0.0,0.0,0.0,0.0,0.0,0.0,0.0,0.0,0.0,0.0,0.0,0.0,0.0,0.0,0.0,0.0,0.0,0.0,0.0,0.0,0.0,0.0,0.0,0.0,0.0,0.0,0.0,0.0,0.0,0.0,0.0,0.0,0.0,0.0,0.0,0.0,0.0,0.0,0.0,0.0,0.0,0.0,0.0,0.0,0.0,0.0,0.0,0.0,0.0,0.0,0.0,0.0,0.0,0.0,0.0,0.0,0.0,0.0,0.0,0.0,0.0,0.0,0.0,0.0,0.0,0.0,0.0,0.0,0.0,0.0,0.0,0.0,0.0,0.0,0.0,0.0,0.0,0.0,0.0,0.0,0.0,0.0,0.0,0.0,2.3412,2.3799,2.5261,2.4959,2.5101,2.6168,2.5361,2.4823,2.4823,0.0,0.0,0.0,0.0,0.0,0.0,0.0,0.0,0.0,0.0,0.0,0.0,0.0,0.0,0.0,0.0,0.0,0.0,0.0,0.0,0.0,0.0,0.0,0.0,0.0,0.0,0.0,0.0,0.0,0.0,0.0,0.0,0.0,0.0,0.0,0.0,0.0,0.0,0.0,0.0,0.0,0.0,0.0,0.0,0.0,0.0,0.0,0.0,0.0,0.0,0.0,0.0,0.0,0.0,0.0,0.0,0.0,0.0,0.0,0.0,0.0,0.0,0.0,0.0,0.0,0.0,0.0,0.0,0.0,0.0,0.0,0.0,0.0,0.0,0.0,0.0,0.0,0.0,0.0,0.0,0.0,0.0,0.0,0.0,0.0,0.0,0.0,0.0,0.0,0.0,0.0,0.0,0.0,0.0,0.0,0.0,0.0,0.0,0.0,0.0,0.0,0.0,2.3839,2.3876,2.4431,2.6098,2.5798,2.5876,2.6641,2.5819,2.5056,2.4688,0.0,0.0,0.0,0.0,0.0,0.0,0.0,0.0,0.0,0.0,0.0,0.0,0.0,0.0,0.0,0.0,0.0,0.0,0.0,0.0,0.0,0.0,0.0,0.0,0.0,0.0,0.0,0.0,0.0,0.0,0.0,0.0,0.0,0.0,0.0,0.0,0.0,0.0,0.0,0.0,0.0,0.0,0.0,0.0,0.0,0.0,0.0,0.0,0.0,0.0,0.0,0.0,0.0,0.0,0.0,0.0,0.0,0.0,0.0,0.0,0.0,0.0,0.0,0.0,0.0,0.0,0.0,0.0,0.0,0.0,0.0,0.0,0.0,0.0,0.0,0.0,0.0,0.0,0.0,0.0,0.0,0.0,0.0,0.0,0.0,0.0,0.0,0.0,0.0,0.0,0.0,0.0,0.0,0.0,0.0,0.0,0.0,0.0,0.0,0.0,0.0,0.0,2.4606,2.4731,2.5201,2.6651,2.7495,2.7524,2.6506,2.6374,2.5893,0.0,0.0,0.0,0.0,0.0,0.0,0.0,0.0,0.0,0.0,0.0,0.0,0.0,0.0,0.0,0.0,0.0,0.0,0.0,0.0,0.0,0.0,0.0,0.0,0.0,0.0,0.0,0.0,0.0,0.0,0.0,0.0,0.0,0.0,0.0,0.0,0.0,0.0,0.0,0.0,0.0,0.0,0.0,0.0,0.0,0.0,0.0,0.0,0.0,0.0,0.0,0.0,0.0,0.0,0.0,0.0,0.0,0.0,0.0,0.0,0.0,0.0,0.0,0.0,0.0,0.0,0.0,0.0,0.0,0.0,0.0,0.0,0.0,0.0,0.0,0.0,0.0,0.0,0.0,0.0,0.0,0.0,0.0,0.0,0.0,0.0,0.0,0.0,0.0,0.0,0.0,0.0,0.0,0.0,0.0,0.0,0.0,0.0,0.0,0.0,0.0,0.0,0.0,2.5501,2.5566,2.6371,2.851,2.806,2.7969,2.8916,2.8309,2.7308,2.5966,0.0,0.0,0.0,0.0,0.0,0.0,0.0,0.0,0.0,0.0,0.0,0.0,0.0,0.0,0.0,0.0,0.0,0.0,0.0,0.0,0.0,0.0,0.0,0.0,0.0,0.0,0.0,0.0,0.0,0.0,0.0,0.0,0.0,0.0,0.0,0.0,0.0,0.0,0.0,0.0,0.0,0.0,0.0,0.0,0.0,0.0,0.0,0.0,0.0,0.0,0.0,0.0,0.0,0.0,0.0,0.0,0.0,0.0,0.0,0.0,0.0,0.0,0.0,0.0,0.0,0.0,0.0,0.0,0.0,0.0,0.0,0.0,0.0,0.0,0.0,0.0,0.0,0.0,0.0,0.0,0.0,0.0,0.0,0.0,0.0,0.0,0.0,0.0,0.0,0.0,0.0,0.0,0.0,0.0,0.0,0.0,0.0,0.0,0.0,0.0,0.0,0.0,2.6323,2.6594,2.7463,2.9608,2.9255,2.9204,3.0032,2.9499,2.8598,2.732,0.0,0.0,0.0,0.0,0.0,0.0,0.0,0.0,0.0,0.0,0.0,0.0,0.0,0.0,0.0,0.0,0.0,0.0,0.0,0.0,0.0,0.0,0.0,0.0,0.0,0.0,0.0,0.0,0.0,0.0,0.0,0.0,0.0,0.0,0.0,0.0,0.0,0.0,0.0,0.0,0.0,0.0,0.0,0.0,0.0,0.0,0.0,0.0,0.0,0.0,0.0,0.0,0.0,0.0,0.0,0.0,0.0,0.0,0.0,0.0,0.0,0.0,0.0,0.0,0.0,0.0,0.0,0.0,0.0,0.0,0.0,0.0,0.0,0.0,0.0,0.0,0.0,0.0,0.0,0.0,0.0,0.0,0.0,0.0,0.0,0.0,0.0,0.0,0.0,0.0,0.0,0.0,0.0,0.0,0.0,0.0,0.0,0.0,0.0,0.0,0.0,0.0,2.7367,2.7776,2.8577,3.0101,3.0605,3.068,3.0267,3.018,2.9708,2.8652,0.0,0.0,0.0,0.0,0.0,0.0,0.0,0.0,0.0,0.0,0.0,0.0,0.0,0.0,0.0,0.0,0.0,0.0,0.0,0.0,0.0,0.0,0.0,0.0,0.0,0.0,0.0,0.0,0.0,0.0,0.0,0.0,0.0,0.0,0.0,0.0,0.0,0.0,0.0,0.0,0.0,0.0,0.0,0.0,0.0,0.0,0.0,0.0,0.0,0.0,0.0,0.0,0.0,0.0,0.0,0.0,0.0,0.0,0.0,0.0,2.3928,2.1874,0.0,0.0,0.0,0.0,0.0,0.0,0.0,0.0,0.0,0.0,0.0,0.0,0.0,0.0,0.0,0.0,0.0,0.0,0.0,0.0,0.0,0.0,0.0,0.0,0.0,0.0,0.0,0.0,0.0,0.0,0.0,0.0,0.0,0.0,0.0,0.0,0.0,0.0,0.0,0.0,2.9233,2.9327,2.9637,3.0664,3.0508,3.0587,3.1144,3.0913,3.0276,2.9259,2.9619,0.0,0.0,0.0,0.0,0.0,0.0,0.0,0.0,0.0,0.0,0.0,0.0,0.0,0.0,0.0,0.0,0.0,0.0,0.0,0.0,0.0,0.0,0.0,0.0,0.0,0.0,0.0,0.0,0.0,0.0,0.0,0.0,0.0,0.0,0.0,0.0,0.0,0.0,0.0,0.0,0.0,0.0,0.0,0.0,0.0,0.0,0.0,0.0,0.0,0.0,0.0,0.0,0.0,0.0,0.0,0.0,0.0,0.0,0.0,2.8109,2.5892,0.0,0.0,0.0,0.0,0.0,0.0,0.0,0.0,0.0,0.0,0.0,0.0,0.0,0.0,0.0,0.0,0.0,0.0,0.0,0.0,0.0,0.0,0.0,0.0,0.0,0.0,0.0,0.0,0.0,0.0,0.0,0.0,0.0,0.0,0.0,0.0,0.0,0.0,0.0,0.0,3.0127,3.0097,3.0137,3.082,3.0469,3.0448,3.1034,3.1054,3.0898,3.0384,3.0853,0.0,0.0,0.0,0.0,0.0,0.0,0.0,0.0,0.0,0.0,0.0,0.0,0.0,0.0,0.0,0.0,0.0,0.0,0.0,0.0,0.0,0.0,0.0,0.0,0.0,0.0,0.0,0.0,0.0,0.0,0.0,0.0,0.0,0.0,0.0,0.0,0.0,0.0,0.0,0.0,0.0,0.0,0.0,0.0,0.0,0.0,0.0,0.0,0.0,0.0,0.0,0.0,0.0,3.0707,3.1233,3.2462,3.1961,3.2324,3.3311,3.239,3.0333,2.7654,2.6417,0.0,0.0,0.0,0.0,0.0,0.0,0.0,0.0,0.0,0.0,0.0,0.0,0.0,0.0,0.0,0.0,0.0,0.0,0.0,0.0,0.0,0.0,0.0,0.0,3.2593,3.1884,3.1096,0.0,0.0,0.0,0.0,0.0,0.0,0.0,0.0,0.0,0.0,0.0,3.0659,3.0501,3.0371,3.0898,3.0409,3.0209,3.065,3.0926,3.1104,3.1263,3.1879,3.1463,0.0,0.0,0.0,0.0,0.0,0.0,0.0,0.0,0.0,0.0,0.0,0.0,0.0,0.0,0.0,0.0,0.0,0.0,0.0,0.0,0.0,0.0,0.0,0.0,0.0,0.0,0.0,0.0,0.0,0.0,0.0,0.0,2.6894,2.7602,0.0,0.0,0.0,0.0,0.0,0.0,0.0,0.0,0.0,0.0,0.0,0.0,0.0,3.1167,3.1117,3.1131,3.1105,3.1103,3.2936,3.3904,3.42,3.6216,3.7284,3.74,3.7658,0.0,3.0954,2.7982,0.0,0.0,0.0,0.0,0.0,0.0,0.0,0.0,0.0,0.0,0.0,0.0,0.0,0.0,0.0,0.0,0.0,0.0,0.0,0.0,0.0,0.0,2.9871,3.4152,3.51,3.4856,0.0,3.1866,3.0114,3.0325,2.9544,0.0,0.0,0.0,0.0,0.0,0.0,0.0,3.1799,3.0918,3.0486,3.1169,3.0218,2.9913,3.095,3.0404,3.0344,3.1107,3.0906,3.086,3.1035,2.9938,0.0,0.0,0.0,0.0,0.0,0.0,0.0,0.0,0.0,0.0,0.0,0.0,0.0,0.0,0.0,0.0,0.0,0.0,0.0,0.0,0.0,0.0,0.0,0.0,0.0,0.0,0.0,0.0,0.0,2.6321,2.7997,2.6744,2.7757,2.7654,0.0,0.0,0.0,0.0,0.0,0.0,0.0,0.0,0.0,2.9963,3.1085,3.2155,3.3076,3.3227,3.3794,3.4726,3.5167,3.561,3.6158,3.6996,3.7695,3.8191,3.8398,3.7429,3.551,3.2881,3.0923,2.9411,0.0,0.0,0.0,0.0,2.5849,2.5786,2.5912,2.6008,2.5993,2.5972,0.0,0.0,0.0,0.0,0.0,0.0,0.0,0.0,0.0,0.0,3.2468,3.5864,3.6239,3.5807,3.5413,3.4009,3.266,0.0,3.1168,3.0544,3.0324,0.0,0.0,0.0,0.0,3.0283,3.2211,3.1466,3.0835,3.091,3.0346,3.0083,3.0235,3.037,3.0614,3.0944,3.1081,3.1236,3.1594,3.1014,3.0541,0.0,0.0,0.0,0.0,0.0,0.0,0.0,0.0,0.0,0.0,0.0,0.0,0.0,0.0,0.0,0.0,0.0,0.0,0.0,0.0,0.0,0.0,0.0,0.0,0.0,0.0,0.0,0.0,2.7318,2.8975,2.6398,2.8487,2.9206,0.0,0.0,0.0,0.0,0.0,0.0,2.8509,3.0518,3.1854,3.2326,3.2803,3.3775,3.5225,3.5462,3.6299,3.7653,3.6846,3.6887,3.7653,3.7198,3.7363,3.8026,3.8129,3.8378,3.8491,3.6276,3.4,3.1835,3.0775,3.0113,2.9742,2.914,2.9014,2.9171,2.9384,2.9436,2.9531,2.9591,2.9185,2.8892,2.944,0.0,0.0,0.0,0.0,2.7864,3.0847,3.2534,3.412,3.6579,3.6618,3.6059,3.5811,3.5314,3.4529,0.0,3.2734,3.2211,3.1626,0.0,0.0,3.188,3.1016,3.0755,3.2237,3.1838,3.1242,3.0741,3.0505,3.0248,2.972,3.0396,3.0847,3.0847,3.1277,3.1554,3.1539,3.1681,3.1344,3.0379,0.0,0.0,0.0,0.0,0.0,0.0,0.0,0.0,0.0,0.0,0.0,0.0,0.0,0.0,0.0,0.0,0.0,0.0,0.0,0.0,0.0,0.0,0.0,0.0,0.0,0.0,0.0,0.0,0.0,2.909,3.0411,0.0,0.0,0.0,0.0,3.13,3.1264,3.0972,3.0466,3.2562,3.3888,3.4236,3.625,3.7534,3.7975,3.8042,3.8063,3.815,3.7653,3.7674,3.8129,3.7674,3.7488,3.755,3.8005,3.8191,3.8037,3.5622,3.427,3.3548,3.1241,3.0044,2.9613,2.9276,2.9363,2.9565,2.9583,2.9632,2.9747,3.0014,2.954,2.9153,2.9817,2.965,0.0,0.0,2.9676,3.0157,3.2487,3.3043,3.3534,3.5636,3.6142,3.5873,3.5004,3.4817,3.4675,0.0,3.4285,3.4115,3.3715,0.0,3.3435,3.3075,3.2955,3.2634,3.1948,3.1808,3.1523,3.0953,3.0479,3.0171,2.9983,3.045,3.0719,3.0719,3.1153,3.1292,3.0962,3.137,3.1649,3.1692,3.0776,0.0,0.0,0.0,0.0,0.0,0.0,0.0,0.0,0.0,0.0,0.0,0.0,0.0,0.0,0.0,0.0,0.0,0.0,0.0,0.0,0.0,0.0,0.0,0.0,0.0,0.0,0.0,0.0,3.2348,3.4702,0.0,3.2542,3.2123,3.1946,3.1778,3.323,3.3775,3.3076,3.5074,3.6426,3.6841,3.7586,3.8037,3.8191,3.8771,3.8771,3.8191,3.8026,3.7881,3.7715,3.726,3.7053,3.7053,3.7218,3.7301,3.7236,3.6664,3.6682,3.6918,3.5495,3.4838,3.4622,3.3897,3.4093,3.4622,3.399,3.4216,3.4719,3.4459,3.4264,3.3694,3.2123,3.1672,3.1441,2.9992,3.0671,3.2051,3.2777,3.3757,3.4669,3.517,3.5004,3.4714,3.4443,3.4608,3.4672,3.4242,3.4023,3.3902,3.3981,3.3046,3.2421,3.2776,3.1946,3.1365,3.1609,3.1385,3.1035,3.0499,3.0512,3.0384,3.0036,3.0429,3.0677,3.0677,3.1381,3.174,3.1628,3.2061,3.2276,3.2133,3.1792,3.1326,0.0,0.0,0.0,0.0,0.0,0.0,0.0,0.0,0.0,0.0,0.0,0.0,0.0,0.0,0.0,0.0,0.0,0.0,0.0,0.0,0.0,0.0,0.0,0.0,0.0,3.2508,3.5264,3.427,3.701,3.7939,3.548,3.5076,3.4859,3.4675,3.6045,3.6618,3.5951,3.7085,3.7881,3.8171,3.8336,3.8336,3.8191,3.8937,3.8854,3.7943,3.7798,3.755,3.7239,3.6784,3.6577,3.6577,3.6577,3.6577,3.6597,3.6908,3.7467,3.8109,3.7674,3.7405,3.7177,3.6577,3.6742,3.7177,3.6556,3.6846,3.7425,3.6949,3.6804,3.6424,3.4541,3.3995,3.3764,3.2245,3.2815,3.3823,3.3791,3.4329,3.4879,3.465,3.4235,3.3803,3.3637,3.3741,3.3741,3.3451,3.3811,3.4142,3.3906,3.2905,3.2256,3.2649,3.1525,3.0806,3.1456,3.125,3.084,3.0191,3.0488,3.0491,3.0036,3.0429,3.0615,3.047,3.1153,3.1588,3.1588,3.2023,3.222,3.2194,3.208,3.1661,3.0792,0.0,0.0,0.0,0.0,0.0,0.0,0.0,0.0,0.0,0.0,0.0,0.0,0.0,0.0,0.0,0.0,0.0,0.0,0.0,0.0,0.0,0.0,0.0,2.9008,3.4367,3.7387,3.4848,3.7158,3.8647,3.7845,3.7623,3.8287,4.01,3.9736,3.9282,3.8848,3.844,3.8191,3.8212,3.8647,3.8647,3.8191,3.8647,3.844,3.7508,3.7053,3.6846,3.6804,3.6328,3.6121,3.6121,3.6101,3.6101,3.6101,3.6101,3.6349,3.6784,3.7281,3.7198,3.6804,3.6784,3.6763,3.6742,3.6763,3.7053,3.7343,3.6908,3.6763,3.6763,3.6763,3.6453,3.6183,3.6618,3.6101,3.5397,3.5355,3.4693,3.409,3.401,3.3658,3.3223,3.2809,3.2297,3.1988,3.1988,3.3824,3.49,3.3555,3.3306,3.3161,3.2727,3.1899,0.0,3.136,3.134,3.0988,3.0118,3.0408,3.0512,3.0077,3.0429,3.0491,3.0036,3.0408,3.0677,3.0677,3.1112,3.1567,3.1946,3.1722,3.1125,3.0214,0.0,0.0,0.0,0.0,0.0,0.0,0.0,0.0,0.0,0.0,0.0,0.0,0.0,0.0,0.0,0.0,0.0,0.0,0.0,0.0,0.0,3.1666,3.4944,3.513,3.6966,3.8843,4.0364,4.1609,4.1915,4.1094,4.0992,4.0872,4.0737,3.9972,3.955,3.9778,3.8792,3.8336,3.8647,3.9034,3.8978,3.8191,3.9288,3.9226,3.8005,3.786,3.7632,3.7281,3.6473,3.6121,3.6101,3.5749,3.5604,3.5604,3.5604,3.55,3.5438,3.6556,3.6908,3.6763,3.6432,3.5894,3.5418,3.608,3.5956,3.5542,3.5749,3.579,3.579,3.579,3.5707,3.5562,3.5376,3.5148,3.4714,3.372,3.3513,3.341,3.2747,3.2499,3.2375,3.2194,3.207,3.1988,3.1988,3.2752,3.3141,3.2106,3.165,3.1381,3.1278,3.076,0.0,3.0822,3.0594,3.0408,3.0491,3.0615,3.076,3.0988,3.0801,3.0491,3.0036,3.0118,3.018,3.018,3.0636,3.1091,3.1547,3.1492,3.1333,0.0,0.0,0.0,0.0,0.0,0.0,0.0,0.0,0.0,0.0,0.0,0.0,0.0,0.0,0.0,0.0,0.0,0.0,0.0,0.0,0.0,0.0,3.4271,3.7884,3.9612,4.0065,4.0955,4.2947,4.3118,4.2828,4.2384,4.1897,4.1462,4.0924,4.0386,4.0137,4.022,3.9288,3.8792,3.8786,3.9034,3.8812,3.7902,3.9061,3.8957,3.7612,3.7612,3.7363,3.6887,3.6163,3.5832,3.5811,3.5542,3.5418,3.5418,3.5418,3.5169,0.0,0.0,0.0,0.0,0.0,3.5086,3.4608,3.5066,3.4921,3.4546,3.4548,3.4693,3.4859,3.4859,3.4859,3.4797,3.4548,3.4401,3.4049,3.3203,3.3058,3.2975,3.2401,3.1988,3.1754,3.1754,3.1464,3.1174,3.1174,3.1402,0.0,3.0884,3.0905,3.0905,3.0719,3.0284,3.016,3.0636,3.0284,3.0098,3.0367,3.0574,3.0801,3.1071,3.0843,0.0,0.0,0.0,3.0367,3.0574,3.1195,0.0,0.0,0.0,3.1091,3.0512,0.0,0.0,0.0,2.9647,2.9876,0.0,0.0,0.0,0.0,0.0,0.0,0.0,0.0,0.0,0.0,0.0,0.0,0.0,0.0,0.0,0.0,3.6463,3.9294,4.2521,4.2994,4.3159,4.3553,4.2849,4.2384,4.2343,4.1462,4.0944,4.0944,4.0862,4.0675,4.0386,3.9778,0.0,0.0,0.0,3.8502,3.7591,3.8419,3.8125,3.6887,3.6825,3.6556,3.6101,3.5625,3.5418,3.5418,3.5418,3.5418,3.5418,3.5376,3.5045,3.4671,3.4712,3.4484,3.4113,3.4526,3.438,3.3906,3.3865,0.0,0.0,3.3348,3.3534,3.3927,3.4028,3.409,3.4111,3.3948,3.3658,3.3348,3.3182,3.2934,3.2706,3.2602,3.1961,3.136,3.1298,3.0615,2.9994,2.9994,2.9994,2.9994,2.9994,3.0677,3.1091,3.0677,3.0263,3.0139,3.0553,3.0243,3.0015,3.0077,0.0,0.0,3.0843,3.0801,3.0719,3.0615,3.0553,3.0698,3.105,3.1981,3.1899,3.0636,3.1008,3.0615,2.9394,2.9787,2.9787,2.9394,2.9808,2.9973,0.0,0.0,0.0,0.0,0.0,0.0,0.0,0.0,0.0,0.0,0.0,0.0,0.0,0.0,0.0,3.6318,3.9513,4.2248,4.3291,4.347,4.3511,4.3594,4.3118,4.2642,4.229,4.1752,4.1441,4.1441,4.0758,4.0634,4.1276,4.0179,3.9426,3.9344,3.9344,3.8978,3.8067,3.8585,3.8357,3.7363,3.697,0.0,3.6101,3.5625,3.5418,3.5418,3.5418,3.5418,3.5397,3.5045,3.4403,3.3738,3.4111,3.4214,3.409,3.38,3.3368,3.2934,3.2561,3.2188,3.194,3.2209,3.2623,3.3058,3.341,3.3782,0.0,3.3203,3.3182,3.312,3.2043,3.225,3.254,3.1816,3.1505,3.1278,3.0905,3.0387,2.9994,2.9994,2.9994,2.9994,2.9994,3.0139,3.0243,3.0139,3.0056,3.0036,3.0118,3.0056,3.0139,3.0512,3.0967,3.1381,3.1754,3.1443,3.0926,3.018,2.9766,2.9435,2.9166,3.0387,3.0781,3.0139,3.0222,3.0139,2.987,2.9953,2.9953,2.987,2.9953,2.9787,0.0,0.0,0.0,0.0,0.0,0.0,0.0,0.0,0.0,0.0,0.0,3.0771,3.2055,0.0,3.7379,3.8405,4.1033,4.3077,4.3553,4.3615,4.3615,4.3615,4.3201,4.2828,4.2621,4.1959,4.1565,4.1565,4.1151,4.0986,4.1214,4.0572,4.0013,3.9488,3.9241,3.875,3.7839,3.8295,3.8171,3.7488,3.726,3.6908,3.6453,3.5976,3.5645,3.5418,3.5418,3.5418,3.5376,3.4693,3.4134,3.3699,3.3492,3.341,3.343,3.3461,3.2909,3.2148,3.2148,3.1696,3.1258,3.1822,3.2132,3.2421,3.2913,3.3058,3.2954,3.2463,3.2375,3.223,3.1547,3.1712,3.2002,3.1774,3.136,3.1029,3.1029,3.0491,2.9994,2.9994,2.9994,2.9994,2.9994,2.9994,2.9994,2.9994,2.9994,2.9994,2.9994,2.9994,3.0077,3.0305,3.076,3.1029,3.1008,3.0594,3.0243,3.0015,2.9559,2.9187,2.898,2.9849,3.0015,2.9311,2.9766,2.9891,2.9642,2.9891,2.987,2.9642,2.9642,2.9518,0.0,0.0,0.0,0.0,0.0,0.0,0.0,2.7293,2.855,3.1984,3.3129,3.4011,3.5966,3.7738,3.9293,4.0391,4.1936,4.318,4.3553,4.3615,4.3615,4.3615,4.3201,4.2911,4.2911,4.2186,4.1742,4.1565,4.1565,4.1358,4.0903,4.0882,4.051,3.9633,3.9158,3.8585,3.7757,3.8046,3.7943,3.7488,3.7488,3.7198,3.666,3.637,3.5935,3.5418,3.5418,3.5314,3.5107,3.4362,3.3969,3.3741,3.3099,3.2809,3.2731,3.2977,3.237,3.1416,3.16,3.1309,3.0894,3.1587,3.1843,3.2023,3.2504,3.2354,3.1864,3.1864,3.165,3.136,3.1257,3.1298,3.1464,3.1816,3.1278,3.0781,3.1153,3.0594,2.9994,2.9994,2.9994,2.9994,2.9994,2.9994,2.9994,2.9994,2.9994,2.9994,2.9994,2.9994,2.9994,2.9994,3.0408,3.0491,3.0036,2.9497,2.929,2.958,2.9332,2.9125,2.9042,2.9559,2.9477,2.8628,2.9352,2.9539,2.9166,2.9539,2.9539,2.9166,2.9083,2.9042,2.3065,2.4174,2.5913,2.6265,2.7669,2.9781,0.0,3.3332,3.3941,3.6955,3.7986,3.8615,3.971,4.085,4.1814,4.2376,4.3081,4.3553,4.3594,4.3615,4.3615,4.3615,4.3201,4.2911,4.2911,4.2476,4.2094,4.1607,4.1565,4.1358,4.0903,4.0882,4.0655,4.0158,3.9702,3.9137,3.8641,3.8357,3.7943,3.7488,3.7488,3.7032,3.6204,3.6556,3.6246,3.5418,3.5418,3.4962,3.4217,3.4113,3.3596,3.2913,3.3203,3.3078,3.2587,3.1564,3.0939,3.0495,2.9749,2.9829,3.035,3.0874,3.1203,3.1609,3.2478,3.2126,3.1443,3.1443,3.1422,3.1278,3.0864,3.1071,3.1381,3.1443,3.105,3.0698,3.076,3.0367,2.9994,2.9994,2.9994,2.9994,2.9994,2.9994,2.9994,2.9994,2.9994,2.9994,2.9994,2.9994,2.9994,2.9994,3.0408,3.0491,3.0036,2.9187,2.8545,2.8173,2.8504,2.8504,2.809,2.8918,2.9145,2.8628,2.8711,2.8752,2.869,2.8752,2.8731,2.869,2.8276,2.809,2.8743,2.8717,2.8717,2.9786,3.1526,3.3262,3.4551,3.5096,3.6197,3.9223,4.0452,4.1247,4.2167,4.2877,4.3448,4.3635,4.3836,4.4008,4.4008,4.378,4.3615,4.3615,4.3449,4.3325,4.3325,4.2911,4.2559,4.2373,4.1876,4.1483,4.1296,4.1027,4.0675,4.0241,3.9716,3.9241,3.8786,3.8398,3.8088,3.7902,3.7902,3.755,3.6908,3.6846,3.6308,3.5418,3.5418,3.5066,3.4505,3.4235,3.3679,3.312,3.3306,3.2984,3.2379,3.1649,3.1014,3.0419,2.9819,2.9983,3.0437,3.0785,3.1491,3.2188,3.2235,3.2064,3.1712,3.1443,3.1174,3.0864,3.0408,3.0429,3.0636,3.0905,3.0615,3.0367,3.0636,3.0325,2.9994,2.9994,2.9994,2.9994,2.9994,2.9994,2.9994,2.9994,2.9994,2.9994,2.9994,2.9994,2.9994,2.9994,2.9684,2.9518,2.958,2.8504,2.7862,2.7924,2.7862,2.7738,2.7552,2.7903,2.8028,2.7841,2.8069,2.8214,2.8214,2.8483,2.8483,2.8214,2.8007,2.7634,3.041,3.0561,3.0431,3.189,3.4165,3.5991,3.5911,3.677,3.8255,4.079,4.1897,4.2725,4.3635,4.407,4.4339,4.4463,4.4381,4.4298,4.4298,4.3905,4.3615,4.3615,4.3615,4.3615,4.3615,4.3304,4.3056,4.2932,4.2311,4.1835,4.1586,4.1255,4.0862,4.0427,3.9972,3.9509,3.9158,3.8647,3.8378,3.8357,3.8253,3.7943,3.7467,3.6887,3.6246,3.5604,3.548,3.5169,3.4774,3.4318,3.3803,3.3368,3.3244,3.288,3.2363,3.196,3.1167,3.0274,2.9813,3.0003,3.0535,3.0791,3.1655,3.2442,3.2235,3.2064,3.1795,3.1464,3.105,3.0574,3.0118,2.9994,3.0118,3.0574,3.0429,3.0284,3.0615,3.0429,3.0139,3.0015,2.9994,2.9994,2.9994,2.9994,2.9994,2.9994,2.9994,2.9994,2.9994,2.9994,2.9994,2.9994,2.9166,2.8794,2.927,2.8048,2.7448,2.7883,2.751,2.7309,2.7309,2.7309,2.7309,2.7309,2.7572,2.7738,2.7738,2.8069,2.8069,2.7738,2.7738,2.7324,2.4164,2.6422,2.8793,3.0662,3.4046,3.7222,3.8059,3.9573,4.1048,4.2021,4.258,4.318,4.4112,4.4298,4.4443,4.4898,4.4588,4.4298,4.4298,4.3905,4.3615,4.3615,4.3615,4.3615,4.3615,4.3594,4.3408,4.2952,4.289,4.2497,4.1607,4.1545,4.1338,4.0862,4.0427,4.0199,4.0179,3.922,3.8765,3.8765,3.8398,3.7943,3.7467,3.6556,3.6121,3.6059,3.5625,3.5169,3.4774,3.4318,3.3803,3.3327,3.2913,3.269,3.2612,3.2018,3.1054,2.9917,2.9064,2.9485,3.0535,3.0791,3.1373,3.2091,3.2525,3.2106,3.1402,3.1381,3.105,3.0574,3.0118,2.9994,3.0118,3.0574,3.0677,3.0677,3.0677,3.0677,3.0532,3.0077,2.9994,2.9994,2.9994,2.9994,2.9994,2.9994,2.9994,2.9994,2.9994,2.9994,2.9994,2.9994,2.9166,2.8794,2.927,2.8048,2.7448,2.7883,2.751,2.7309,2.7309,2.7309,2.7309,2.7309,2.7309,2.733,2.733,2.7351,2.7351,2.733,2.733,2.7081,2.5398,2.7552,2.9834,3.2191,3.45,3.6404,3.7032,3.8454,3.9937,4.0833,4.0197,3.9576,4.0284,4.0821,4.1205,4.1178,4.3152,4.4753,4.4753,4.4629,4.4422,4.4112,4.407,4.3946,4.3635,4.3615,4.3553,4.3387,4.3097,4.2663,4.2062,4.1731,4.1358,4.0882,4.0448,4.022,4.022,3.9241,3.8786,3.8765,3.8088,3.7488,3.7011,3.639,3.5935,3.5645,3.55,3.5169,3.4774,3.4318,3.3803,3.3389,3.3555,3.343,3.3145,3.3103,3.24,3.1378,3.0402,3.0349,3.0791,3.088,3.1634,3.2421,3.2256,3.2271,3.2209,3.1899,3.1712,3.1485,3.1029,3.0905,3.0946,3.1112,3.1153,3.1071,3.076,3.0677,3.0553,3.0077,2.9994,2.9994,2.9994,2.9994,2.9994,2.9994,2.9994,2.9994,2.9994,2.9994,2.9994,2.9994,2.9435,2.9145,2.929,2.8607,2.809,2.7875,2.7779,2.7572,2.7309,2.7019,2.6998,2.7309,2.6998,2.6998,2.7309,2.6998,2.6998,2.7309,2.6998,2.6936,2.6443,2.8237,2.9971,3.2336,3.3993,3.521,3.5531,3.7472,3.9445,4.0007,3.8989,3.8094,3.8627,3.8569,3.8326,3.8194,4.042,4.2474,4.3351,4.3217,4.3294,4.3973,4.4049,4.3946,4.3635,4.3615,4.3532,4.3387,4.3097,4.2663,4.2115,4.1731,4.1358,4.0882,4.0613,4.0468,4.0468,3.9558,3.8869,3.8605,3.8026,3.7508,3.7032,3.6577,3.6101,3.5666,3.55,3.5252,3.4962,3.4507,3.4051,3.3658,3.4007,3.3782,3.3451,3.3795,3.3284,3.2301,3.1341,3.1055,3.1201,3.1257,3.1937,3.2607,3.2318,3.2442,3.2587,3.2112,3.1988,3.1884,3.1485,3.1381,3.1381,3.1381,3.145,3.1333,3.0822,3.0748,3.0632,3.0118,2.9994,2.9994,2.9994,2.9994,2.9994,2.9994,2.9994,2.9994,2.9994,2.9994,2.9994,2.9994,2.958,2.9373,2.9539,2.898,2.8483,2.8193,2.7958,2.7717,2.733,2.6853,2.6832,2.7309,2.6687,2.6687,2.7309,2.6832,2.6853,2.7309,2.6998,2.7019,2.6997,2.8118,2.9106,3.1113,3.2775,3.3852,3.3852,3.6735,3.9433,3.9395,3.8663,3.8239,3.8627,3.7264,3.612,3.6211,3.6942,3.833,4.0579,4.0243,4.0765,4.3304,4.3656,4.3635,4.3615,4.3615,4.3428,4.2952,4.2932,4.2559,4.1607,4.1586,4.1379,4.0882,4.0882,4.0882,4.0882,4.0013,3.9102,3.8191,3.8191,3.7943,3.7467,3.6991,3.6535,3.608,3.5625,3.5418,3.5376,3.4921,3.4546,3.4152,3.4132,3.3824,3.3555,3.4164,3.3711,3.2669,3.1912,3.1671,3.1687,3.1952,3.2318,3.2669,3.2669,3.2649,3.2545,3.2112,3.1967,3.1899,3.1485,3.1402,3.1422,3.1402,3.1511,3.1482,3.0838,3.0853,3.0785,3.019,3.0056,3.0015,2.9994,2.9994,2.9994,2.9994,2.9994,2.9994,2.9994,2.9994,2.9994,2.9994,2.9601,2.9518,2.9953,2.9187,2.8669,2.8607,2.8193,2.7738,2.7289,2.6832,2.6791,2.7226,2.6356,2.6356,2.7268,2.6791,2.6812,2.7309,2.7247,2.7268,2.7939,2.8904,2.9907,3.122,3.1842,3.2155,3.2155,3.3855,3.5302,3.4968,3.3587,3.2351,3.1878,3.342,3.4789,3.4954,3.9482,4.3204,4.3812,4.4021,4.414,4.4096,4.4132,4.3987,4.3635,4.3615,4.3428,4.2952,4.3242,4.289,4.1628,4.197,4.1783,4.0903,4.0882,4.0882,4.0882,4.0323,3.9433,3.8191,3.8191,3.7943,3.7467,3.666,3.6225,3.608,3.5625,3.5418,3.5355,3.4569,3.4443,3.4608,3.4256,3.4256,3.4486,3.4923,3.455,3.3658,3.3145,3.2488,3.1973,3.238,3.2587,3.2669,3.2669,3.2442,3.2132,3.2008,3.1795,3.1526,3.1402,3.1629,3.1802,3.1579,3.1871,3.1921,3.1126,3.1218,3.1283,3.0765,3.0558,3.0408,3.0056,2.9994,2.9994,2.9994,2.9994,2.9994,2.9994,2.9994,2.9994,2.9994,2.9891,2.987,2.9973,2.9787,2.9352,2.8649,2.8504,2.7924,2.6832,2.6356,2.6103,2.6227,2.5689,2.5834,2.6791,2.5958,2.6144,2.7289,2.6604,2.6646,2.8652,2.9547,3.0284,3.1031,3.115,3.1084,3.0506,3.1902,3.3129,3.2307,3.0899,2.9724,2.9303,3.1167,3.2818,3.2914,3.7592,4.1686,4.2952,4.3042,4.3241,4.3931,4.4008,4.3905,4.3635,4.3615,4.3428,4.2952,4.2973,4.26,4.1607,4.1628,4.1421,4.0903,4.0882,4.0779,4.0593,4.0158,3.9433,3.8481,3.8274,3.8046,3.7777,3.7053,3.6618,3.639,3.5914,3.5604,3.5376,3.4672,3.4463,3.4445,3.4283,3.4223,3.4346,3.48,3.4472,3.3852,3.3585,3.2984,3.2256,3.2188,3.2271,3.2339,3.2188,3.2085,3.1946,3.1816,3.1567,3.1381,3.1381,3.1712,3.1988,3.1799,3.2035,3.2125,3.143,3.1349,3.1263,3.0982,3.099,3.0905,3.0657,3.0429,3.0305,3.0305,3.0118,2.9994,2.9994,2.9994,2.9994,2.9994,2.9994,2.9994,2.9994,2.9994,2.9684,2.8959,2.8918,2.84,2.722,2.6537,2.6231,2.6231,2.5357,2.5378,2.6314,2.5564,2.573,2.6687,2.6169,2.6314,2.9257,2.9925,3.0519,3.0803,3.0861,3.051,2.9295,3.0623,3.1715,3.0333,2.9369,2.8757,2.8611,2.9693,3.077,3.1461,3.4487,3.7817,4.0769,4.0587,4.0976,4.3283,4.3615,4.3615,4.3615,4.3553,4.3346,4.2952,4.2456,4.2053,4.1586,4.1193,4.0944,4.0882,4.0882,4.0675,4.0241,3.9889,3.9413,3.8786,3.8523,3.8295,3.8171,3.7715,3.7239,3.6784,3.6308,3.5852,3.5376,3.4941,3.4588,3.4196,3.4226,3.4023,3.3839,3.4308,3.4166,3.3716,3.3593,3.3197,3.2602,3.1816,3.1774,3.1905,3.1588,3.165,3.1774,3.1402,3.1236,3.1195,3.1195,3.1471,3.1767,3.1828,3.1953,3.2007,3.1625,3.1317,3.1083,3.1009,3.1223,3.1443,3.1381,3.105,3.0781,3.0781,3.0429,3.016,3.0098,3.0036,2.9994,2.9994,2.9994,2.9994,2.9994,2.9994,2.9808,2.9332,2.9311,2.8856,2.7883,2.7076,2.6646,2.6521,2.5316,2.513,2.6003,2.5482,2.5523,2.6061,2.5982,2.6123,3.0049,3.0343,3.0495,3.1081,3.1022,3.0627,2.9866,2.9626,2.906,2.7191,2.6683,2.6309,2.5554,2.7645,3.0544,3.3803,3.6771,3.9908,4.3239,4.3541,4.3536,4.3559,4.3615,4.3615,4.3615,4.3263,4.3014,4.2932,4.2145,4.1721,4.1565,4.1483,4.1276,4.0882,4.0882,4.0675,4.0241,4.051,4.0034,3.8786,3.9096,3.8916,3.8171,3.7715,3.7239,3.6784,3.6308,0.0,3.5376,3.4941,3.4774,3.4671,3.43,3.4323,3.4591,3.4696,3.4654,3.4467,3.3703,3.3103,3.2706,3.254,3.2235,3.1967,3.1884,3.1464,3.0905,3.0822,3.0532,3.0243,3.0243,3.0393,3.0588,3.0976,3.1035,3.104,3.1319,3.1321,3.1317,3.1421,3.1508,3.1517,3.1443,3.1298,3.1257,3.1257,3.1195,3.1008,3.0615,3.0243,2.9994,2.9994,2.9994,2.9994,2.9994,2.9994,2.9808,2.9332,2.9311,2.8731,2.7475,2.7268,2.6832,2.6065,2.5771,2.5916,2.6501,2.5627,2.5854,2.704,2.6273,2.6123,3.0466,3.0846,3.1183,3.149,3.1315,3.0685,2.9208,2.8491,2.7554,2.5447,2.5154,2.5066,2.4437,2.7181,3.011,3.2047,3.5975,3.948,4.1615,4.2876,4.3594,4.3615,4.3387,4.3346,4.3594,4.2994,4.2663,4.2911,4.2083,4.1565,4.1565,4.1338,4.111,4.0882,4.0882,4.0779,4.0572,4.0551,4.0096,3.9137,3.9117,3.8957,3.8523,3.8067,3.7736,3.7488,3.6784,3.6204,3.5728,3.5045,3.4671,3.4403,3.4244,3.4163,3.4204,3.4493,3.4595,3.4409,3.3731,3.3479,3.3389,3.3141,3.2602,3.1905,3.1485,3.1195,3.0946,3.047,3.016,3.0056,3.0284,3.0405,3.0566,3.1018,3.1025,3.1017,3.1456,3.1556,3.1669,3.1905,3.2112,3.2164,3.207,3.1878,3.1712,3.1712,3.1526,3.1298,3.1071,3.0636,3.0263,3.0015,2.9994,2.9994,2.9994,2.9994,2.9891,2.9684,2.9663,2.927,2.8359,2.809,2.7531,2.6667,2.6418,2.6123,2.5875,2.5396,2.5564,2.6206,2.5751,2.5792,3.0734,3.1359,3.1812,3.1885,3.1607,3.0759,2.856,2.7744,2.6749,2.454,2.4291,2.4364,2.4042,2.6512,2.885,2.955,3.3321,3.696,3.9148,4.0873,4.2372,4.3435,4.3201,4.3056,4.3428,4.2642,4.2249,4.26,4.1876,4.1421,4.1421,4.1069,4.0882,4.0882,4.0882,4.0882,4.0882,4.0448,3.9922,3.9468,3.8993,3.8724,3.8688,3.8336,3.8129,3.7984,3.7156,3.6535,3.6059,3.5231,3.4691,3.4238,3.4265,3.4083,3.3919,3.4227,3.4411,3.4472,3.4001,3.4038,3.4194,3.3679,3.2913,3.2008,3.134,3.1174,3.1071,3.0346,3.0077,3.0098,3.0574,3.0624,3.0714,3.1162,3.1243,3.1308,3.1649,3.1672,3.1787,3.219,3.2477,3.2612,3.2669,3.238,3.2132,3.2132,3.1899,3.1629,3.1526,3.1195,3.0801,3.0346,3.0118,2.9994,2.9994,2.9994,2.9994,2.9994,2.9994,2.9787,2.9332,2.8959,2.838,2.7572,2.7247,2.6662,2.5912,2.5809,2.5768,2.5747,2.5606,2.5709,3.0927,3.152,3.1871,3.2163,3.1768,3.0876,2.9222,2.7905,2.6471,2.4496,2.4101,2.4027,2.3706,2.4443,2.5911,2.8388,2.9227,3.1685,3.7788,3.8798,4.0037,4.3256,4.3201,4.2932,4.2973,4.2166,4.1648,4.169,4.1234,4.0944,4.0944,4.0903,4.0882,4.0882,4.0882,4.0882,4.0882,4.0448,3.9922,3.9468,3.8993,3.8647,3.8253,3.8212,3.7964,3.7529,3.7032,3.6535,0.0,3.5562,3.5086,3.4712,3.4279,3.4362,3.4652,3.4261,3.4632,3.5232,3.4838,3.4693,3.4671,3.4214,3.341,3.2587,3.2504,3.1712,3.0739,3.0657,3.0325,3.0098,3.0574,3.0442,3.0323,3.0714,3.1234,3.169,3.1383,3.1325,3.1556,3.219,3.2305,3.242,3.2669,3.2628,3.2607,3.2607,3.2566,3.2457,3.1988,3.1884,3.1754,3.1298,3.0491,2.9994,2.9994,2.9994,2.9994,2.9994,2.9994,2.9787,2.9332,2.927,2.9001,2.8504,2.8442,2.838,2.8297,2.7883,2.7676,2.7655,2.6827,2.6521,3.1204,3.2266,3.2895,3.2646,3.1944,3.089,2.9295,2.7773,2.6252,2.4701,2.454,2.451,2.3984,2.4423,2.5152,2.5835,2.7256,2.9278,3.2207,3.3973,3.6232,3.9719,3.9719,4.0231,4.2361,4.169,4.1151,4.1151,4.0986,4.0882,4.0882,4.0882,4.0882,4.0882,4.0882,4.0882,4.0882,4.0448,3.9922,3.9468,3.9282,3.8951,3.8585,3.8585,3.8481,3.8253,3.7239,3.6701,0.0,3.5728,3.5004,3.4401,3.4505,3.4318,3.3969,3.4401,3.4714,3.5004,3.4878,3.4941,3.5086,3.4691,3.4051,3.343,3.2892,3.2147,3.1443,3.1174,3.0967,3.0926,3.1381,3.1375,3.1236,3.0987,3.1321,3.1694,3.1612,3.1787,3.2018,3.244,3.2555,3.2555,3.2669,3.2669,3.2669,3.2669,3.2669,3.2607,3.2421,3.2153,3.1926,3.1795,3.1215,3.0719,3.0429,3.0408,3.0284,3.0015,2.9994,2.9911,2.9725,2.9725,2.9497,2.9042,2.9021,2.8752,2.8193,2.8007,2.7779,2.751,2.7206,2.704,3.0821,3.2412,3.348,3.3027,3.2105,3.089,2.9281,2.7656,2.6135,2.4832,2.4826,2.4811,2.4188,2.454,2.4701,2.4042,2.5532,2.7162,2.8358,3.0157,3.2576,3.5901,3.5845,3.6847,4.0242,4.0802,4.0882,4.0882,4.0882,4.0882,4.0882,4.0882,4.0882,4.0882,4.0882,4.0882,4.0882,4.0448,4.0005,3.9744,3.9599,3.922,3.8786,3.8786,3.8703,3.8585,3.7343,3.6804,0.0,3.5811,3.5045,3.4465,3.4588,3.4297,3.3883,3.4217,3.4588,3.4816,3.4816,3.5045,3.5376,3.5045,3.4652,3.4194,3.3368,3.2566,3.1926,3.1671,3.1567,3.165,3.1905,3.2035,3.1948,3.1438,3.1438,3.1617,3.1946,3.2221,3.2493,3.3041,3.3016,3.2934,3.2934,3.2809,3.2669,3.2669,3.2669,3.2669,3.2669,3.2401,3.2194,3.2194,3.1961,3.1485,3.0739,3.0677,3.0491,3.0036,2.9994,2.9994,2.9994,2.9994,2.9849,2.9518,2.9518,2.9187,2.8545,2.8545,2.8235,2.7655,2.751,2.7434,2.9509,3.1641,3.3156,3.3246,3.2266,3.089,2.9266,2.7656,2.6135,2.4832,2.4569,2.4466,2.4145,2.4349,2.4364,2.3706,2.3603,2.4675,2.7774,2.8254,2.9373,3.2508,3.2227,3.3059,3.6368,3.9242,4.0882,4.0882,4.0882,4.0882,4.0882,4.0882,4.0882,4.0882,4.0882,4.0882,4.0882,4.0448,4.022,4.022,3.9695,3.922,3.8786,3.8786,3.8605,3.815,3.7198,3.6804,0.0,3.5811,3.5418,3.5314,3.4424,3.4401,3.4691,3.372,3.3969,3.4816,3.4816,3.5045,3.5418,3.5418,3.5107,3.4733,3.4256,3.312,3.1988,3.1967,3.1967,3.1967,3.1988,3.2148,3.219,3.1903,3.1556,3.1502,3.2292,3.251,3.2808,3.3909,3.3679,3.3368,3.3368,3.3016,3.2669,3.2669,3.2669,3.2669,3.2669,3.2727,3.2669,3.2669,3.2669,3.2168,3.0801,3.0677,3.0491,3.0036,2.9994,2.9994,2.9994,2.9994,2.9994,2.9994,2.9994,2.9973,2.9973,2.9973,2.9497,2.8587,2.8131,2.7676,2.7175,2.8963,3.0167,3.0097,2.9881,2.9354,2.8183,2.7188,2.6193,2.5193,2.4973,2.487,2.4481,2.4496,2.4349,2.3706,2.3586,2.3702,2.4302,2.6557,2.9083,3.1577,3.5534,3.8416,3.9425,4.032,4.0882,4.0882,4.0882,4.0882,4.0882,4.0882,4.0882,4.0882,4.0882,4.0882,4.0882,4.0448,4.022,4.022,4.0075,3.953,3.8786,3.9096,3.8895,3.815,3.755,3.7094,3.6763,3.6142,3.5521,3.4941,3.4712,3.4505,3.4318,3.4007,3.4297,3.4816,3.4816,3.5045,3.5418,3.5418,3.5128,3.4795,3.465,3.401,3.343,3.343,3.3203,3.2954,3.2954,3.2601,3.219,3.1903,3.1903,3.2082,3.243,3.2804,3.3279,3.3969,3.4007,3.38,3.343,3.3265,3.3078,3.2768,3.2669,3.2669,3.2669,3.2669,3.2669,3.2669,3.2669,3.2437,3.1671,3.134,3.0967,3.0491,3.018,2.9994,2.9994,2.9994,2.9994,2.9994,2.9994,2.9994,2.9994,2.9994,2.9518,2.8607,2.8462,2.8317,2.5801,2.7696,2.8984,2.9243,2.9152,2.8681,2.7696,2.6896,2.6049,2.5168,2.497,2.487,2.4679,2.4364,2.4071,2.3662,2.347,2.3607,2.437,2.6417,2.8703,3.1067,3.5893,3.899,3.8829,4.0094,4.0882,4.0882,4.0882,4.0882,4.0882,4.0882,4.0882,4.0882,4.0882,4.0882,4.0882,4.0613,4.0468,4.0468,4.0468,3.9992,3.9055,3.9344,3.904,3.815,3.7695,3.7322,0.0,3.637,3.579,3.5231,3.4961,3.465,3.436,3.4194,3.4422,3.4816,3.4816,3.5045,3.5418,3.5418,3.5004,3.4527,3.4592,3.4244,3.3893,3.3774,3.3387,3.3018,3.3193,3.2834,3.2339,3.2261,3.2403,3.2705,3.3092,3.3491,3.3852,3.4305,3.4385,3.4176,3.3602,3.3434,3.3223,3.2789,3.2669,3.2669,3.2669,3.2669,3.2669,3.2669,3.2669,3.2545,3.2277,3.1733,3.1174,3.0719,3.0243,2.9994,2.9994,2.9994,2.9994,2.9994,2.9994,2.9994,2.9994,2.9829,2.9435,2.8876,2.869,2.8711,0.0,2.7302,2.8998,2.9746,2.9318,2.8487,2.7496,2.659,0.0,2.4996,2.4723,2.4569,2.454,2.4013,2.3588,2.3496,2.3262,2.4116,2.695,2.7718,2.8943,3.1428,3.4396,3.6158,3.5869,3.8919,4.0882,4.0882,4.0882,4.0882,4.0882,4.0882,4.0882,4.0882,4.0882,4.0882,4.0882,4.0882,4.0882,4.0882,4.0841,4.0386,3.9468,3.9447,3.9019,0.0,3.7736,3.7508,3.7384,3.6515,3.6121,3.5976,3.5128,3.4857,3.4816,3.4339,3.4403,3.4857,3.4837,3.5045,3.5418,3.5418,3.4859,3.4238,3.4268,3.3942,3.3535,3.3236,3.2874,3.2591,3.2885,3.2747,3.263,3.2904,3.3111,3.3437,3.4106,3.4329,3.4452,3.484,3.4902,3.4591,3.3837,3.3585,3.3327,3.2851,3.269,3.2669,3.2669,3.2649,3.2628,3.2727,3.2669,3.2669,3.2669,3.1899,3.1215,3.0801,3.0284,3.0015,3.0036,2.9973,2.9953,2.9953,2.9953,2.9973,2.9994,2.9559,2.9332,2.929,2.8856,2.8897,2.3911,0.0,2.5086,2.554,2.6333,2.6896,0.0,2.5953,2.5717,2.4793,2.4362,2.4084,2.3854,2.3479,2.3134,2.2889,2.299,2.3813,2.5866,3.004,3.4323,3.8137,3.9222,3.9545,3.9138,4.0194,4.0882,4.0882,4.0882,4.0882,4.0882,4.0882,4.0882,4.0882,4.0882,4.0882,4.0882,4.0882,4.0882,4.0862,4.0551,4.0096,3.9468,3.9096,3.8709,3.8171,3.8067,3.7612,3.6949,3.6722,3.6225,3.5562,3.5355,3.5273,3.5211,3.4755,3.4879,3.5211,3.4879,3.5045,3.5418,3.5418,3.5273,3.5004,3.4452,3.3942,3.3678,3.3982,3.3799,3.3518,3.3881,3.3457,3.3014,3.3372,3.3454,3.3657,3.4166,3.4512,3.4818,3.5211,3.5273,3.5128,3.4612,3.4507,3.4155,3.3348,3.2934,3.2669,3.2669,3.2359,3.2277,3.2628,3.2669,3.2669,3.2669,3.1899,3.1485,3.1712,3.0636,3.016,3.0512,2.9849,2.9456,2.9456,2.9456,2.9642,2.9994,2.9891,2.9642,2.9311,2.9187,2.9187,2.3316,2.3941,2.4514,2.4899,2.5527,2.5906,2.5384,2.5295,2.5092,2.4341,2.3834,2.3488,2.3318,2.2921,2.2553,2.2383,2.3613,2.5515,2.8158,3.1475,3.5005,3.8658,3.9252,3.9668,4.0439,4.0737,4.0882,4.0882,4.0882,4.0882,4.0882,4.0882,4.0882,4.0882,4.0882,4.0882,4.0882,4.0675,4.0675,4.0862,4.022,3.9785,3.9447,3.8993,3.8605,3.8191,3.8191,3.7777,3.7094,3.6887,3.639,3.5707,3.55,3.5293,3.5086,3.492,3.49,3.5086,3.4899,3.5045,3.5376,3.519,3.4983,3.4736,3.439,3.3881,3.3497,3.4002,3.396,3.3902,3.4207,3.3963,3.372,3.4082,3.4307,3.4512,3.4759,3.4943,3.5066,3.5191,3.5294,3.5211,3.4655,3.4694,3.4505,3.3513,3.3016,3.2607,3.238,3.2023,3.1919,3.2318,3.2359,3.2442,3.2649,3.2085,3.1692,3.1733,3.0843,3.0325,3.0367,2.9891,2.9622,2.9622,2.9415,2.9539,2.9994,2.9994,2.987,2.9622,2.9622,2.9622,2.3354,2.4506,2.5583,2.5693,2.5557,2.5317,2.4834,2.4578,2.4238,2.3804,2.3347,2.2869,2.2837,2.2362,2.1957,2.204,2.4841,2.8294,3.199,3.3083,3.4546,3.7114,3.7748,3.8728,4.0625,4.0841,4.0882,4.0882,4.0882,4.0882,4.0882,4.0882,4.0882,4.0882,4.0882,4.0882,4.0882,4.051,4.051,4.0862,3.9972,3.9468,3.9447,3.8931,3.8543,3.8191,0.0,0.0,3.7363,3.697,3.6494,3.5976,3.5583,3.5148,3.4837,3.4899,3.4878,3.4837,3.4899,3.5107,3.5355,3.4983,3.4608,3.4238,3.4268,3.3882,3.3397,3.3801,3.3819,3.388,3.4309,3.4371,3.4493,3.4798,3.5148,3.5418,3.5418,3.5418,3.5294,3.5046,3.5232,3.517,3.4554,3.4676,3.4608,3.3617,3.312,3.2664,3.2153,3.1692,3.1567,3.2029,3.2029,3.2173,3.2628,3.2318,3.1961,3.1505,3.0988,3.045,2.9911,2.9891,2.9849,2.9787,2.9477,2.9497,2.9891,2.9973,2.9994,2.9994,2.9994,2.9994,2.43,2.5612,2.6344,2.4718,2.4673,2.4911,2.4285,2.3894,2.3574,2.3226,2.2857,2.2418,2.1974,2.1526,2.1382,2.174,2.6339,3.1313,3.5229,3.7331,3.8771,3.9581,4.0103,4.0359,4.0274,4.0655,4.0882,4.0882,4.0882,4.0882,4.0882,4.0882,4.0882,4.0882,4.0882,4.0882,4.0882,4.082,4.082,4.0862,3.9972,3.9468,3.9447,3.8667,3.8253,3.8191,0.0,3.7695,3.6908,3.6825,3.6308,3.5521,3.5438,3.5148,3.4857,3.519,3.5086,3.4878,3.519,3.5376,3.5418,3.5335,3.5024,3.4672,3.437,3.441,3.4491,3.4309,3.4041,3.401,3.4633,3.482,3.4882,3.5252,3.5376,3.5418,3.5418,3.5418,3.5356,3.5356,3.5356,3.5335,3.5273,3.5252,3.5004,3.4152,3.3575,3.312,3.2628,3.1899,3.1692,3.254,3.2215,3.2173,3.2628,3.2607,3.238,3.1905,3.1153,3.0305,2.9456,2.9415,2.9228,2.8835,2.9145,2.9352,2.9415,2.9808,2.9994,2.9994,2.9994,2.9994,2.462,2.544,2.5761,2.5031,2.5334,2.5623,2.4943,2.4434,2.3877,2.3418,2.2709,2.2254,2.2235,2.3119,2.5101,2.8779,3.0218,3.2118,3.586,3.5986,3.6426,3.8176,3.8799,3.9465,4.048,4.0758,4.0882,4.0882,4.0882,4.0882,4.0882,4.0882,4.0882,4.0882,4.0882,4.0882,4.0882,4.0634,4.0634,4.0862,3.9723,3.922,3.9447,3.8605,3.8191,3.8171,0.0,3.7425,3.6784,3.6535,3.6039,3.5418,3.5418,3.5004,3.4403,3.461,3.4569,3.4546,3.519,3.5418,3.5376,3.5148,3.4755,3.4383,3.4262,3.3978,3.3875,3.4429,3.4473,3.4451,3.4759,3.4882,3.482,3.4755,3.4879,3.5004,3.4734,3.4879,3.5066,3.5066,3.5252,3.5418,3.5418,3.5418,3.5107,3.4196,3.3679,3.312,3.238,3.1795,3.1526,3.1961,3.1816,3.1774,3.1981,3.2002,3.2023,3.1988,3.1195,3.0491,3.0077,2.9559,2.9332,2.9352,2.9332,2.9435,2.9684,2.9891,2.9994,2.9994,2.9994,2.9994,2.4699,2.5137,2.5212,2.5281,2.5564,2.5787,2.5567,2.4827,2.4139,2.3802,2.3444,2.3035,2.249,2.4344,2.7945,3.3786,3.328,3.3311,3.6867,3.5681,3.5287,3.7599,3.8137,3.897,4.0728,4.0882,4.0882,4.0882,4.0882,4.0882,4.0882,4.0882,4.0882,4.0882,4.0882,4.082,4.0737,4.0406,4.0406,4.0717,3.9454,3.8972,3.9282,3.8543,3.8129,3.8005,3.7653,3.7177,3.6618,3.6266,3.5832,3.5418,3.5418,3.5004,3.4362,3.4214,3.4196,3.4486,3.519,3.5418,3.5355,3.49,3.4588,3.4217,3.4033,3.3587,3.3384,3.4283,3.4527,3.4546,3.4754,3.4733,3.4567,3.4214,3.4484,3.4733,3.436,3.459,3.4921,3.4921,3.519,3.5418,3.5418,3.5418,3.5148,3.4401,3.3844,3.3244,3.2457,3.1878,3.1567,3.1692,3.1588,3.1526,3.1526,3.1526,3.1629,3.1878,3.1236,3.076,3.0532,2.9849,2.958,2.9829,2.9601,2.958,2.9829,2.9953,2.9994,2.9994,2.9994,2.9994,2.4694,2.5257,2.533,2.4774,2.4218,2.4123,2.5264,2.4519,2.3736,2.4303,2.542,2.5343,2.2415,2.3612,2.6444,3.0691,3.3622,3.6586,4.0083,4.0421,4.035,4.0574,4.0616,4.0728,4.0862,4.0882,4.0882,4.0882,4.0882,4.0882,4.0882,4.0882,4.0882,4.0882,4.0882,4.0675,4.0282,4.0241,4.0241,4.0261,3.9241,3.8807,3.8807,3.8398,3.7943,3.755,3.7508,3.6991,3.6163,3.6121,3.5832,3.5418,3.5418,3.5376,3.5231,3.4383,3.461,3.5335,3.5397,3.5418,3.5355,3.49,3.4795,3.4631,3.3837,3.3793,3.3971,3.3735,3.3626,3.3679,3.4588,3.4505,3.4113,3.4132,3.4484,3.4816,3.4774,3.5066,3.5376,3.5376,3.5397,3.5418,3.5418,3.5418,3.5252,3.4837,3.438,3.3844,3.3348,3.252,3.2091,3.2582,3.2194,3.1946,3.1946,3.1946,3.1836,3.1443,3.136,3.0946,3.0077,2.9973,2.9766,2.9352,2.9746,2.9746,2.9352,2.9787,2.9994,2.9994,2.9994,2.9994,2.4515,2.5048,2.5145,2.4694,2.4119,2.3971,2.5455,2.5233,2.4789,2.4767,2.5952,2.7048,2.7147,2.9367,3.1899,3.3983,3.6666,3.8991,4.0274,4.0717,4.0882,4.0882,4.0882,4.0882,4.0882,4.0882,4.0882,4.0882,4.0882,4.0882,4.0882,4.0882,4.0882,4.0882,4.0882,4.0675,4.0241,3.9881,3.9592,3.9302,3.8951,3.8709,3.8419,3.7964,3.7508,3.7053,3.6763,3.6432,3.608,3.5811,3.5583,3.5397,3.5128,3.4838,3.4569,3.4588,3.4714,3.5045,3.5314,3.5418,3.5355,3.49,3.4816,3.4672,3.4077,3.3806,3.3699,3.3871,3.3417,3.312,3.3741,3.382,3.3575,3.3306,3.3803,3.4318,3.3969,3.4486,3.5004,3.5004,3.5231,3.5418,3.5418,3.5418,3.5273,3.4878,3.4671,3.4401,3.3924,3.3265,3.283,3.2747,3.2064,3.1629,3.1629,3.1629,3.1443,3.0967,3.0946,3.0801,3.045,3.0139,2.9911,2.9746,2.9911,2.9911,2.9725,2.9911,2.9994,2.9994,2.9994,2.9994,2.4239,2.4532,2.4589,2.4327,2.3956,2.3947,2.5398,2.5374,2.5115,2.5469,2.6213,2.7683,3.0328,3.2467,3.4225,3.5441,3.7834,3.9744,4.0158,4.0489,4.0717,4.0862,4.0882,4.0882,4.0882,4.0882,4.0882,4.0882,4.0882,4.0882,4.0882,4.0882,4.0882,4.0882,4.0737,4.0448,3.9943,3.9488,3.9013,3.8647,3.8647,3.8398,3.7964,3.7632,3.7156,3.6556,3.6246,3.6039,3.5873,3.5562,3.5335,3.519,3.4879,3.4629,3.438,3.4691,3.492,3.5004,3.5314,3.5418,3.5355,3.49,3.492,3.4859,3.4318,3.3903,3.3696,3.3803,3.3306,3.2752,3.3099,3.3161,3.3099,3.2809,3.341,3.4049,3.3658,3.432,3.4962,3.4962,3.5211,3.5418,3.5418,3.5418,3.5314,3.5004,3.492,3.4712,3.438,3.3945,3.343,3.2975,3.225,3.1754,3.1609,3.1588,3.1319,3.0719,3.0677,3.0615,3.047,3.0305,3.0222,3.0222,3.0222,3.0222,3.0222,3.0056,2.9994,2.9994,2.9994,2.9994,2.3963,2.3852,2.3603,2.3588,2.3603,2.3866,2.4899,2.4554,2.4598,2.6324,2.6374,2.73,3.11,3.1584,3.1969,3.3597,3.6325,3.8667,4.0013,4.022,4.0386,4.082,4.0882,4.0882,4.0882,4.0882,4.0882,4.0882,4.0882,4.0882,4.0882,4.0882,4.0882,4.0882,4.0448,3.9943,3.9468,3.9013,3.8626,3.8191,3.8171,3.7943,3.7488,3.7488,3.697,3.6101,3.6101,3.5852,3.5418,3.5418,3.5169,3.4816,3.4816,3.4816,3.4816,3.4816,3.5045,3.5418,3.5418,3.5418,3.5355,3.49,3.5066,3.5252,3.4341,3.4132,3.4049,3.3513,3.3078,3.269,3.2747,3.2747,3.269,3.2747,3.343,3.4132,3.4132,3.4776,3.5418,3.5418,3.5418,3.5418,3.5418,3.5418,3.5418,3.5418,3.5045,3.4816,3.4816,3.4422,3.3886,3.343,3.2996,3.2483,3.2029,3.1988,3.165,3.076,3.0698,3.047,3.0015,3.045,3.0677,3.0677,3.0698,3.0698,3.0698,3.0222,2.9994,2.9994,2.9994,2.9994,2.4154,2.4369,2.4408,2.3486,2.394,2.4642,2.4701,2.492,2.6005,2.9173,2.9199,2.9422,3.1703,3.3532,3.4383,3.3414,3.6071,3.8336,3.873,3.962,4.0282,4.0406,4.0696,4.0882,4.0882,4.0882,4.0882,4.0882,4.0882,4.0882,4.0882,4.0882,4.0882,4.0882,4.0448,3.9943,3.9468,3.9013,3.8626,3.8171,3.786,3.7446,3.7011,3.7011,3.6494,3.5625,3.5625,3.5542,3.5418,3.5418,3.5169,3.4857,3.5107,3.5045,3.4857,3.5107,3.5314,3.5418,3.5418,3.5418,3.5397,3.5273,3.5314,3.5376,3.5107,3.4797,3.4526,3.3989,3.3762,3.3596,3.3265,3.343,3.3596,3.3265,3.3886,3.4608,3.4608,3.5004,3.5418,3.5418,3.5418,3.5418,3.5418,3.5418,3.5418,3.5418,3.5314,3.5107,3.4857,3.4422,3.3886,3.343,3.2996,3.2607,3.2483,3.2173,3.1864,3.165,3.1029,3.047,3.0015,3.045,3.0677,3.0677,3.1008,3.1174,3.1174,3.0698,3.047,3.047,3.0139,2.9994,2.4446,2.4803,2.493,2.4203,2.4657,2.5169,2.4832,2.5066,2.6284,2.9641,2.9789,2.9937,3.219,3.4126,3.4985,3.3917,3.5963,3.7757,3.8129,3.9206,4.0013,4.022,4.0613,4.0882,4.0882,4.0882,4.0882,4.0882,4.0882,4.0882,4.0882,4.0882,4.0882,4.0882,4.0282,3.9827,3.9468,3.8916,3.8357,3.7902,3.7632,3.7156,3.6535,3.6535,3.6121,3.5418,3.5418,3.5418,3.5418,3.5418,3.5045,3.4608,3.5169,3.5045,3.4569,3.519,3.5418,3.5418,3.5418,3.5418,3.5418,3.5418,3.5418,3.5418,3.5418,3.5107,3.4754,3.4484,3.4132,3.3779,3.3451,3.3575,3.382,3.3679,3.4277,3.4816,3.4816,3.5107,3.5418,3.5418,3.5418,3.5418,3.5418,3.5418,3.5418,3.5418,3.5418,3.5314,3.5045,3.4465,3.3969,3.3738,3.3099,3.2669,3.2669,3.2421,3.2173,3.1988,3.136,3.076,3.0284,3.0532,3.0781,3.0946,3.1236,3.1381,3.1381,3.0905,3.0594,3.0408,3.0305,3.0263,2.4907,2.5173,2.5234,2.5457,2.5505,2.5418,2.5193,2.5061,2.5686,2.8344,2.8674,2.941,3.2413,3.3575,3.4281,3.4779,3.5911,3.6991,3.7922,3.8833,3.9599,4.0116,4.0551,4.082,4.0862,4.0882,4.0862,4.082,4.082,4.082,4.082,4.082,4.082,4.082,3.9992,3.9447,3.9406,3.8585,3.7902,3.7488,3.7405,3.6929,3.6121,3.6121,3.5852,3.5418,3.5418,3.5418,3.5418,3.5376,3.4879,3.4217,3.4983,3.4797,3.4235,3.5004,3.5314,3.5355,3.5355,3.5376,3.5418,3.5418,3.5418,3.5418,3.5418,3.5128,3.4878,3.4837,3.4214,3.3513,3.3513,3.3513,3.3617,3.4093,3.4546,3.4837,3.4878,3.5128,3.5418,3.5418,3.5418,3.5418,3.5418,3.5418,3.5418,3.5418,3.5418,3.5418,3.5376,3.4631,3.4152,3.4069,3.3265,3.2768,3.2669,3.2669,3.2483,3.207,3.1692,3.1236,3.076,3.0719,3.0884,3.1298,3.136,3.1381,3.1381,3.0905,3.047,3.0077,3.0491,3.0677,2.5085,2.5464,2.575,2.5564,2.5344,2.514,2.5134,2.4466,2.452,2.6791,2.8146,2.9552,3.1645,3.3135,3.4258,3.4756,3.5294,3.6039,3.697,3.7902,3.8771,3.9599,4.0096,4.051,4.0841,4.0882,4.0737,4.0386,4.0365,4.0365,4.0365,4.0365,4.0365,4.0365,3.9827,3.9302,3.8931,3.8088,3.7591,3.7488,3.6763,3.6308,3.6121,3.6121,3.5852,3.5418,3.5418,3.5418,3.5397,3.5045,3.4857,3.465,3.4424,3.4238,3.4093,3.4279,3.459,3.49,3.49,3.5128,3.5418,3.5418,3.5418,3.5418,3.5418,3.5355,3.5211,3.492,3.4671,3.4526,3.4526,3.4526,3.4569,3.5024,3.4941,3.492,3.5211,3.5355,3.5418,3.5418,3.5418,3.5418,3.5418,3.5418,3.5418,3.5418,3.5418,3.5293,3.4941,3.4795,3.4401,3.3596,3.3348,3.3099,3.2747,3.2669,3.2685,3.2582,3.2091,3.1692,3.1236,3.0884,3.0739,3.0822,3.1195,3.1381,3.1381,3.0905,3.0636,3.0532,3.0636,3.0677,2.5204,2.5627,2.6022,2.5959,2.5754,2.5432,2.5193,2.4423,2.408,2.5024,2.7006,2.9022,3.0569,3.2435,3.3824,3.4111,3.4838,3.5583,3.608,3.7322,3.844,3.9055,3.9806,4.0386,4.082,4.0696,4.0468,4.0241,4.0013,3.9819,3.9819,3.9819,3.9819,3.9819,3.9385,3.8931,3.8543,3.7839,3.7281,3.6825,3.6349,3.5997,3.5769,3.5769,3.5645,3.5418,3.519,3.5107,3.5066,3.461,3.436,3.4152,3.4132,3.3986,3.3762,3.4049,3.4422,3.4795,3.4567,3.4859,3.5376,3.5169,3.5107,3.5148,3.5355,3.5273,3.5107,3.5086,3.4921,3.4816,3.4816,3.465,3.4548,3.5004,3.5086,3.5128,3.5376,3.5418,3.5418,3.5418,3.5418,3.5418,3.5418,3.5418,3.5418,3.5418,3.5252,3.5024,3.4857,3.4422,3.3906,3.343,3.3182,3.2975,3.269,3.2669,3.2669,3.2669,3.2235,3.1884,3.1712,3.1257,3.0905,3.0698,3.1133,3.1381,3.1381,3.1133,3.0905,3.0677,3.0677,3.0677,2.533,2.5897,2.623,2.6367,2.6179,2.5783,2.5198,2.4554,2.3984,2.3662,2.5649,2.7931,2.9335,3.1407,3.2974,3.3368,3.432,3.5148,3.5397,3.6804,3.8046,3.8667,3.9454,4.0137,4.0593,4.0323,4.0075,3.9922,3.964,3.9344,3.9344,3.9344,3.9344,3.9344,3.8978,3.8523,3.8067,3.7529,3.6867,3.6121,3.5956,3.5625,3.519,3.519,3.5231,3.5273,3.4838,3.4691,3.4671,3.4194,3.372,3.341,3.372,3.3596,3.3306,3.3699,3.4194,3.4526,3.4132,3.4486,3.5148,3.4859,3.4774,3.4795,3.5273,3.5107,3.492,3.5293,3.5045,3.4733,3.4838,3.4465,3.4256,3.4795,3.5148,3.5418,3.5418,3.5418,3.5418,3.5418,3.5418,3.5418,3.5418,3.5418,3.5418,3.5418,3.5107,3.4878,3.4712,3.4113,3.3617,3.3306,3.3078,3.2892,3.269,3.2669,3.2669,3.2669,3.2318,3.207,3.1988,3.1692,3.1278,3.0822,3.1174,3.1381,3.1381,3.1298,3.1071,3.0677,3.0677,3.0677,2.5295,2.6195,2.6751,2.6205,2.5842,2.5505,2.514,2.4554,2.3984,2.3662,2.4797,2.6305,2.7853,2.9589,3.1308,3.3132,3.3534,3.4072,3.5252,3.5976,3.6867,3.8129,3.873,3.9137,3.9682,3.9592,3.9385,3.8993,3.891,3.8869,3.8869,3.8869,3.8869,3.8869,3.8502,3.8046,3.7591,3.6722,3.6225,3.6101,3.5314,3.4754,3.4238,3.4238,3.4526,3.4817,3.4362,3.4155,3.4194,3.3658,3.343,3.3348,3.3037,3.2871,3.283,3.2892,3.3182,3.3555,3.3492,3.3803,3.43,3.4712,3.4546,3.432,3.5169,3.5107,3.492,3.5293,3.4817,3.4341,3.5128,3.4693,3.4279,3.5128,3.5376,3.5418,3.5418,3.5418,3.5418,3.5418,3.5418,3.5418,3.5418,3.5418,3.5418,3.5418,3.5376,3.5045,3.4258,3.4734,3.4548,3.2975,3.3472,3.3575,3.2789,3.2669,3.2669,3.2669,3.2607,3.2401,3.2008,3.1926,3.1754,3.1298,3.134,3.1381,3.1381,3.0967,3.0739,3.0677,3.0677,3.0677,2.5209,2.5676,2.5991,2.6457,2.6179,2.5769,2.5622,2.5096,2.454,2.4203,2.4295,2.5092,2.7263,2.912,3.0859,3.2493,3.3145,3.3596,3.4196,3.5107,3.6142,3.7281,3.8046,3.875,3.9406,3.9241,3.8993,3.8786,3.8626,3.8481,3.8481,3.8481,3.8357,3.8088,3.7902,3.7446,3.6722,3.6308,3.5852,3.5335,3.4754,3.4318,3.4111,3.3555,3.3699,3.4401,3.3945,3.3738,3.3637,3.3203,3.3016,3.2996,3.2809,3.2669,3.2669,3.2669,3.2996,3.3348,3.3099,3.3637,3.4505,3.4443,3.4297,3.4238,3.5148,3.4941,3.4526,3.4921,3.4755,3.4608,3.4941,3.4755,3.4671,3.5273,3.5418,3.5418,3.5418,3.5418,3.5418,3.5418,3.5418,3.5418,3.5418,3.5418,3.5418,3.5418,3.5211,3.49,3.4567,3.4569,3.4362,3.3555,3.3596,3.3513,3.312,3.2871,3.2669,3.2669,3.2669,3.2644,3.238,3.238,3.2333,3.2147,3.1878,3.1754,3.1754,3.1298,3.1071,3.1071,3.0532,3.0305,2.4943,2.5109,2.5276,2.6443,2.631,2.593,2.6105,2.5637,2.5081,2.4759,2.4247,2.4487,2.6734,2.8583,3.037,3.218,3.2929,3.331,3.3368,3.4465,3.5562,3.6349,3.7384,3.8274,3.8957,3.8812,3.8688,3.8688,3.8378,3.8191,3.8191,3.8191,3.8026,3.7674,3.7446,3.6991,3.6287,3.5935,3.5376,3.4629,3.4173,3.3844,3.3699,3.3037,3.3099,3.3699,3.3368,3.3223,3.3182,3.2871,3.2669,3.2669,3.2669,3.2669,3.2669,3.2669,3.2934,3.3161,3.2851,3.3389,3.4196,3.4028,3.3886,3.4072,3.4983,3.4693,3.4214,3.4691,3.465,3.4484,3.4608,3.465,3.4754,3.5148,3.5335,3.5418,3.5418,3.5418,3.5418,3.5418,3.5418,3.5418,3.5418,3.5418,3.5418,3.5418,3.5128,3.494,3.4837,3.4548,3.432,3.4093,3.3762,3.3513,3.3389,3.2975,3.2669,3.2669,3.2669,3.2669,3.2669,3.2669,3.2669,3.2669,3.2339,3.2153,3.2153,3.1774,3.1547,3.1526,3.0719,3.0346,2.447,2.4742,2.5159,2.59,2.5813,2.571,2.6339,2.5974,2.5418,2.5163,2.4826,2.4868,2.5864,2.726,2.9228,3.2391,3.2901,3.3018,3.3389,3.4256,3.4962,3.5438,3.6701,3.755,3.7591,3.7984,3.8212,3.8212,3.8191,3.8191,3.8191,3.8191,3.8171,3.815,3.7301,3.6825,3.6763,3.548,3.465,3.4152,3.3637,3.3203,3.2752,3.269,3.2747,3.2752,3.2768,3.2768,3.2711,3.2747,3.2669,3.2669,3.2669,3.2669,3.2669,3.2669,3.2747,3.2711,3.2747,3.2768,3.2892,3.3285,3.341,3.3575,3.4567,3.4526,3.4214,3.4691,3.4194,3.3555,3.3989,3.4173,3.4277,3.4733,3.5107,3.5418,3.5418,3.5418,3.5418,3.5418,3.5418,3.5418,3.5418,3.5418,3.5418,3.5418,3.5397,3.5231,3.4878,3.5107,3.5024,3.4155,3.4111,3.3844,3.341,3.2975,3.2669,3.2669,3.2669,3.2669,3.2669,3.2669,3.2669,3.2669,3.2706,3.2628,3.2628,3.2173,3.1946,3.1946,3.1526,3.1298,2.4259,2.4374,2.4554,2.5204,2.5324,2.5218,2.5244,2.5342,2.5432,2.5193,2.5031,2.536,2.6773,2.702,2.8019,3.0869,3.1442,3.1939,3.296,3.354,3.4155,3.49,3.5687,3.6515,3.7405,3.7653,3.786,3.8171,3.8191,3.8191,3.8191,3.7902,3.7736,3.7736,3.7136,3.6515,3.5914,3.5438,3.4652,3.3617,3.3451,3.3141,3.2669,3.2669,3.2669,3.2669,3.2669,3.2669,3.2669,3.2669,3.2669,3.2669,3.2669,3.2669,3.2669,3.2669,3.2669,3.2669,3.2669,3.2913,3.3161,3.3327,3.3575,3.3986,3.4629,3.4484,3.4173,3.4318,3.3865,3.3492,3.4007,3.4132,3.4258,3.5004,3.5314,3.5418,3.5418,3.5418,3.5418,3.5418,3.5418,3.5418,3.5418,3.5418,3.5418,3.5418,3.5418,3.5355,3.5211,3.5314,3.5293,3.4983,3.4672,3.4505,3.4339,3.3575,3.3141,3.3141,3.2892,3.2669,3.2669,3.2669,3.2669,3.2669,3.2669,3.2669,3.2669,3.2215,3.1988,3.1967,3.1588,3.1381,2.4519,2.4285,2.3866,2.4925,2.4858,2.4704,2.5066,2.5262,2.5397,2.5549,2.5374,2.5574,2.6847,2.6584,2.7068,2.9877,3.0259,3.0588,3.156,3.2196,3.2991,3.4024,3.5026,3.6142,3.7384,3.7632,3.786,3.8171,3.8191,3.8191,3.8191,3.7902,3.7591,3.7281,3.697,3.6287,3.5211,3.5045,3.4424,3.3368,3.3223,3.3016,3.2669,3.2669,3.2669,3.2669,3.2669,3.2669,3.2669,3.2669,3.2669,3.2669,3.2669,3.2669,3.2669,3.2669,3.2669,3.2669,3.2669,3.2913,3.3161,3.3161,3.3472,3.3886,3.4256,3.4132,3.3903,3.3903,3.3513,3.3223,3.3534,3.3844,3.43,3.5211,3.5418,3.5418,3.5418,3.5418,3.5418,3.5418,3.5418,3.5418,3.5418,3.5418,3.5418,3.5418,3.5418,3.5418,3.5418,3.5418,3.5418,3.5418,3.5024,3.4816,3.4816,3.4111,3.3617,3.3617,3.3182,3.2954,3.2954,3.2809,3.2669,3.2669,3.2669,3.2669,3.2669,3.2359,3.2215,3.2215,3.1961,3.1836,0.0,0.0,0.0,2.4929,2.4452,2.4037,2.587,2.5598,2.525,2.6254,2.5889,2.5568,2.5974,2.5783,2.6512,2.9446,2.9474,2.9154,2.9395,3.0288,3.1436,3.2718,3.4711,3.6389,3.7405,3.7902,3.8171,3.8191,3.8191,3.8191,3.8191,3.8191,3.7757,3.6825,3.6825,3.6163,3.4837,3.438,3.3844,3.3348,3.2934,3.2669,3.2669,3.2669,3.2669,3.2669,3.2669,3.2669,3.2669,3.2669,3.2669,3.2669,3.2669,3.2669,3.2669,3.2669,3.2669,3.2669,3.2669,3.2669,3.2669,3.2669,3.3016,3.3368,3.3368,3.3389,3.3389,3.3389,3.3078,3.269,3.2711,3.343,3.4341,3.5211,3.5418,3.5418,3.5418,3.5418,3.5418,3.5418,3.5418,3.5418,3.5418,3.5418,3.5418,3.5418,3.5418,3.5418,3.5418,3.5418,3.5418,3.5418,3.5045,3.4837,3.4837,3.4422,3.4152,3.4152,3.3658,3.3389,3.3389,3.2996,3.2711,3.269,3.269,3.269,3.2669,3.2669,3.2669,3.2669,3.2669,3.2669,2.3933,0.0,0.0,0.0,0.0,0.0,2.3217,2.3448,2.3937,2.4919,2.5146,2.5418,2.6195,2.6486,2.686,2.7702,2.8079,2.8494,2.9362,2.9679,3.0615,3.2585,3.3379,3.4708,3.7233,3.7612,3.7819,0.0,3.8191,3.8191,3.8191,3.8191,3.7757,3.6825,3.7136,3.6494,3.4837,3.4691,3.401,3.2913,3.2789,3.2669,3.2669,3.2669,3.2669,3.2669,3.2669,3.2669,3.2669,3.2669,3.2669,3.2669,3.2669,3.2669,3.2669,3.2669,3.2669,3.2669,3.2669,3.2669,3.2669,3.2669,3.3016,3.3368,3.3368,3.3617,3.3945,3.3945,3.3555,3.3285,3.3617,3.4362,3.5107,3.5355,3.5418,3.5418,3.5418,3.5418,3.5418,3.5418,3.5418,3.5418,3.5418,3.5418,3.5418,3.5418,3.5418,3.5418,3.5418,3.5418,3.5418,3.5418,3.5314,3.5231,3.5231,3.4817,3.4629,3.4629,3.4194,3.3945,3.3945,3.3762,3.3534,3.3203,3.3203,3.3037,3.2669,3.2669,3.2669,3.2669,3.2669,3.2669,2.4041,2.3731,2.3263,2.3175,0.0,0.0,2.3192,2.3409,2.3874,2.5319,2.5621,2.5879,2.6546,2.6749,2.6837,2.6969,2.727,2.767,2.8186,2.846,2.9531,3.2162,3.2948,3.4446,3.7522,3.7777,3.7902,3.8171,3.8191,3.8191,3.8191,3.8357,3.8046,3.7115,3.697,3.6225,3.4837,3.4443,3.3699,3.2669,3.2669,3.2669,3.2669,3.2669,3.2669,3.2669,3.2669,3.2669,3.2669,3.2669,3.2669,3.2669,3.2669,3.2669,3.2669,3.2669,3.2669,3.2669,3.2669,3.2669,3.2669,3.2669,3.2892,3.3099,3.3099,3.343,3.3841,3.3841,3.372,3.3782,3.4297,3.4755,3.519,3.5376,3.5418,3.5418,3.5418,3.5418,3.5418,3.5418,3.5418,3.5418,3.5418,3.5418,3.5418,3.5418,3.5418,3.5418,3.5418,3.5418,3.5418,3.5418,3.5418,3.5418,3.5418,3.519,3.5045,3.5045,3.461,3.4422,3.4422,3.4235,3.3948,3.3679,3.3658,3.3451,3.2996,3.283,3.2669,3.2669,3.2669,3.2669,2.4568,2.4181,2.3505,2.3806,2.3182,0.0,2.4191,2.4148,2.4297,2.6127,2.6299,2.6197,2.6589,2.6372,2.627,2.656,2.675,2.6807,2.6502,2.6976,2.8392,3.1456,3.2951,3.4887,3.7601,3.8104,3.8191,3.8191,3.8233,3.8233,3.8191,3.8605,3.844,3.7529,3.6597,3.5666,3.4837,3.3782,3.312,3.2669,3.2628,3.2628,3.2669,3.2669,3.2669,3.2669,3.2669,3.2669,3.2669,3.2669,3.2669,3.2669,3.2669,3.2669,3.2669,3.2669,3.2669,3.2669,3.2669,3.2669,3.2669,3.2669,3.2669,3.2669,3.2669,3.3037,3.3368,3.3368,3.38,3.4277,3.465,3.4774,3.4879,3.5314,3.5418,3.5418,3.5418,3.5418,3.5418,3.5418,3.5418,3.5418,3.5418,3.5418,3.5418,3.5418,3.5418,3.5418,3.5418,3.5418,3.5418,3.5418,3.5418,3.5418,3.5418,3.5418,3.5418,3.5418,3.5045,3.4899,3.4899,3.4505,3.4196,3.4194,3.4152,3.3844,3.3368,3.2934,3.2669,3.2669,3.2669,3.2669,2.3493,2.335,2.3143,2.2948,2.2512,0.0,2.2249,2.2167,2.2355,2.3301,2.3599,2.3856,2.4167,2.438,2.4365,2.3994,2.5197,2.6272,2.6499,2.6579,2.7421,2.9629,3.1389,3.336,3.5743,3.7327,3.8191,3.8191,3.8523,3.8564,3.8212,3.8605,3.844,3.7529,3.6597,3.5666,3.4837,3.3492,3.2809,3.2727,3.2297,3.2318,3.2669,3.2669,3.2669,3.2669,3.2669,3.2669,3.2669,3.2669,3.2669,3.2669,3.2669,3.2669,3.2669,3.2669,3.2669,3.2669,3.2669,3.2669,3.2669,3.2669,3.2669,3.2669,3.2669,3.3037,3.3368,3.3368,3.4049,3.4629,3.4339,3.4546,3.4879,3.5314,3.5418,3.5418,3.5418,3.5418,3.5418,3.5418,3.5418,3.5418,3.5418,3.5418,3.5418,3.5418,3.5418,3.5418,3.5418,3.5418,3.5418,3.5418,3.5418,3.5418,3.5418,3.5418,3.5418,3.5418,3.5335,3.5293,3.5293,3.5211,3.4983,3.4691,3.4318,3.3844,3.3368,3.2934,3.2669,3.2669,3.2669,3.2669,2.3494,2.3566,2.3717,2.3041,2.2869,0.0,0.0,2.2516,2.2813,2.3643,2.3837,2.3837,2.4037,2.4099,2.3965,2.3653,2.4807,2.5608,2.531,2.6257,2.7695,2.9576,3.046,3.2087,3.5131,3.6276,3.7193,3.8125,3.8812,3.8931,3.8543,3.8869,3.8807,3.8191,3.6825,3.579,3.5107,3.3741,3.2934,3.2669,3.2442,3.2442,3.2669,3.2669,3.2669,3.2669,3.2669,3.2669,3.2669,3.2669,3.2669,3.2669,3.2669,3.2669,3.2669,3.2669,3.2669,3.2669,3.2669,3.2669,3.2669,3.2669,3.2669,3.2669,3.2669,3.3203,3.3824,3.4279,3.4569,3.4774,3.4526,3.465,3.4878,3.5045,3.5252,3.5418,3.5418,3.5418,3.5418,3.5418,3.5418,3.5418,3.5418,3.5418,3.5418,3.5418,3.5418,3.5418,3.5418,3.5418,3.5418,3.5418,3.5418,3.5418,3.5418,3.5418,3.5418,3.5418,3.5418,3.5418,3.5418,3.5418,3.5314,3.5086,3.4424,3.4132,3.4132,3.3389,3.2934,3.2669,3.2669,3.2669,2.3623,2.4036,2.4349,2.3434,2.3335,2.3371,0.0,0.0,0.0,2.4084,2.4095,2.3904,2.3934,2.3722,2.3525,2.3477,2.4334,2.475,2.3826,2.5641,2.7583,2.8985,2.9552,3.0963,3.3941,3.455,3.5781,3.8161,3.8623,3.8801,3.8786,3.922,3.922,3.8662,3.7011,3.5894,3.5418,3.3989,3.3078,3.2669,3.2587,3.2587,3.2669,3.2644,3.2587,3.2669,3.2587,3.2587,3.2669,3.2669,3.2669,3.2669,3.2669,3.2669,3.2669,3.2669,3.2669,3.2669,3.2669,3.2669,3.2669,3.2669,3.2669,3.2747,3.283,3.3368,3.4093,3.4817,3.4838,3.4691,3.4691,3.4754,3.4837,3.492,3.5169,3.5418,3.5418,3.5418,3.5418,3.5418,3.5418,3.5418,3.5418,3.5418,3.5418,3.5418,3.5418,3.5418,3.5418,3.5418,3.5418,3.5418,3.5418,3.5418,3.5418,3.5418,3.5418,3.5418,3.5418,3.5418,3.5418,3.5418,3.5418,3.5418,3.4693,3.4465,3.4816,3.4069,3.3368,3.2851,3.2851,3.2809,2.3154,2.3688,2.4423,2.3744,2.3327,2.2928,2.2061,0.0,2.17,2.1284,0.0,2.185,2.161,0.0,0.0,2.1115,2.2342,2.3236,2.28,2.4246,2.5229,2.5141,2.7919,2.9873,3.0004,3.154,3.425,3.8397,3.7157,3.7001,3.8697,3.922,3.9144,3.8295,3.6867,3.5894,3.5418,3.3679,3.2731,3.2669,3.2256,3.2277,3.2669,3.2256,3.2277,3.2706,3.2235,3.2297,3.2669,3.2669,3.2669,3.2669,3.2669,3.2669,3.2669,3.2669,3.2669,3.2669,3.2669,3.2669,3.2669,3.2669,3.2669,3.2809,3.3182,3.3368,3.3472,3.3575,3.3865,3.4194,3.4194,3.4505,3.492,3.5252,3.5376,3.5418,3.5418,3.5418,3.5418,3.5418,3.5418,3.5418,3.5418,3.5418,3.5418,3.5418,3.5418,3.5418,3.5418,3.5418,3.5418,3.5418,3.5418,3.5418,3.5418,3.5418,3.5418,3.5418,3.5418,3.5418,3.5418,3.5418,3.5418,3.5418,3.5314,3.5107,3.4816,3.4712,3.4214,3.3306,3.3306,3.3099,2.2858,2.3724,2.4678,2.3751,2.3493,2.3064,2.1937,2.1519,2.1371,2.1307,0.0,0.0,0.0,0.0,0.0,0.0,2.2079,2.2406,2.1818,0.0,2.4116,2.4441,0.0,0.0,2.8623,3.0478,3.3058,3.6542,3.6014,3.6454,3.8677,3.922,3.9247,3.8585,3.7239,3.6287,3.5832,3.4548,3.3637,3.3099,3.2913,3.2789,3.2649,3.2194,3.2091,3.2256,3.1857,3.1919,3.2277,3.2277,3.2421,3.2669,3.2669,3.2669,3.2669,3.2669,3.2669,3.2669,3.2669,3.2669,3.2669,3.2669,3.2669,3.2809,3.3244,3.3368,3.343,3.3699,3.3986,3.4132,3.4132,3.4463,3.4857,3.4983,3.5231,3.5418,3.5418,3.5418,3.5418,3.5418,3.5418,3.5418,3.5418,3.5418,3.5418,3.5418,3.5418,3.5418,3.5418,3.5418,3.5418,3.5418,3.5418,3.5418,3.5418,3.5418,3.5418,3.5418,3.5418,3.5418,3.5418,3.5418,3.5418,3.5418,3.5169,3.5066,3.5148,3.4879,3.4629,3.4235,3.3617,3.3141,2.3848,2.4553,2.5308,2.3762,2.3275,2.2879,2.163,2.121,2.1129,2.1244,2.13,0.0,0.0,0.0,2.1768,2.2126,0.0,2.19,2.1186,2.2066,2.2942,2.3525,2.3954,0.0,0.0,2.8593,3.0719,3.4707,3.4289,3.5278,3.8491,3.8978,3.9019,3.8688,3.7446,3.6577,3.6121,3.5211,3.436,3.3368,3.3368,3.3141,3.2649,3.2194,3.1988,3.1967,3.1567,3.1629,3.1988,3.1988,3.2256,3.2669,3.2669,3.2669,3.2669,3.2669,3.2669,3.2669,3.2669,3.2669,3.2669,3.2669,3.2669,3.2809,3.3244,3.3285,3.3306,3.3762,3.4028,3.4132,3.4132,3.4507,3.4941,3.4941,3.519,3.5418,3.5418,3.5418,3.5418,3.5418,3.5418,3.5418,3.5418,3.5418,3.5418,3.5418,3.5418,3.5418,3.5418,3.5418,3.5418,3.5418,3.5418,3.5418,3.5418,3.5418,3.5418,3.5418,3.5418,3.5418,3.5418,3.5418,3.5418,3.5418,3.5107,3.5107,3.5418,3.5107,3.4817,3.4608,3.3945,3.3327,0.0,0.0,0.0,2.3787,0.0,0.0,0.0,0.0,2.0651,0.0,0.0,0.0,0.0,0.0,2.2967,2.2622,2.2309,0.0,0.0,2.144,2.1534,2.1203,2.2659,0.0,0.0,2.506,2.6708,3.3425,3.1632,3.2581,3.7909,3.8212,3.8212,3.8212,3.7301,3.6577,3.6121,3.5211,3.436,3.3368,3.3368,3.3141,3.2649,3.2194,3.1988,3.1967,3.1567,3.1629,3.1988,3.1988,3.2256,3.2669,3.2669,3.2669,3.2669,3.2669,3.2669,3.2669,3.2669,3.2669,3.2669,3.2669,3.2669,3.2809,3.3244,3.3078,3.2851,3.3285,3.372,3.4132,3.4132,3.4734,3.5397,3.5397,3.5418,3.5418,3.5418,3.5418,3.5418,3.5418,3.5418,3.5418,3.5418,3.5418,3.5418,3.5418,3.5418,3.5418,3.5418,3.5418,3.5418,3.5418,3.5418,3.5418,3.5418,3.5418,3.5418,3.5418,3.5418,3.5418,3.5418,3.5418,3.5418,3.5418,3.5418,3.5418,3.5418,3.5418,3.4941,3.4152,3.4051,3.3862,0.0,0.0,2.9238,2.7312,0.0,0.0,0.0,0.0,0.0,0.0,0.0,0.0,0.0,0.0,2.1883,2.2182,2.1605,2.1128,0.0,2.1029,2.0935,2.0842,2.2056,2.3285,0.0,0.0,2.595,3.1533,3.1027,3.2571,3.7501,3.8026,3.8191,3.8191,3.7281,3.6722,3.6577,3.5645,3.4734,3.3844,3.3844,3.3451,3.2649,3.2194,3.1988,3.1946,3.1236,3.1174,3.1609,3.1609,3.1878,3.2256,3.2545,3.2669,3.2669,3.2669,3.2669,3.2669,3.2669,3.2669,3.2669,3.2669,3.2669,3.2747,3.2913,3.2851,3.2711,3.2913,3.3492,3.4132,3.4132,3.4734,3.5418,3.5418,3.5418,3.5418,3.5418,3.5418,3.5418,3.5418,3.5418,3.5418,3.5418,3.5418,3.5418,3.5418,3.5418,3.5418,3.5418,3.5418,3.5418,3.5418,3.5418,3.5418,3.5418,3.5418,3.5418,3.5418,3.5418,3.5418,3.5418,3.5418,3.5418,3.5418,3.5418,3.5418,3.5418,3.5418,3.5273,3.4962,3.4672,3.4173,3.0351,3.0856,0.0,2.9418,2.8922,0.0,2.6137,0.0,2.376,0.0,0.0,0.0,0.0,0.0,0.0,0.0,0.0,0.0,0.0,2.0949,2.0828,2.0828,2.1592,2.2226,2.2708,2.2744,2.4374,2.8484,2.9401,3.141,0.0,3.6897,3.7777,3.7943,3.7363,3.697,3.6804,3.6039,3.5128,3.4132,3.4132,3.3596,3.2669,3.2359,3.2106,3.1774,3.1174,3.1008,3.1153,3.1298,3.1629,3.2029,3.2483,3.2669,3.2669,3.2669,3.2669,3.2669,3.2669,3.283,3.2934,3.2731,3.283,3.2934,3.2768,3.2669,3.2711,3.2913,3.3492,3.4173,3.4339,3.4859,3.5418,3.5418,3.5418,3.5418,3.5418,3.5418,3.5418,3.5418,3.5418,3.5418,3.5418,3.5418,3.5418,3.5418,3.5418,3.5418,3.5418,3.5418,3.548,3.5645,3.5521,3.55,3.5645,3.5521,3.55,3.5645,3.5521,3.5418,3.5418,3.5418,3.5583,3.5914,3.5583,3.5583,3.5914,3.5583,3.5335,3.519,3.49,3.4505]}]]